GFSGL_prec_cthk_000.txt.gz
RH
50 50 52 52 53 52 59 64 55 50 51 51 46 40 32 30 31 29 28 25 23 19 17 18 19 20 19 17 18 22 25 32 36 24 29 30 34 37 34 42 47 49 50
52 53 54 55 59 64 61 63 57 51 49 47 43 34 32 33 30 29 27 24 20 18 19 21 21 21 20 20 23 28 33 36 45 44 33 36 37 40 48 49 42 40 37
55 55 58 64 68 64 61 65 57 48 45 44 35 34 35 31 31 29 25 21 19 21 23 22 23 23 23 25 29 33 39 43 48 52 42 43 42 51 53 44 38 34 34
56 60 66 70 68 65 64 64 51 45 44 36 35 36 34 33 31 27 22 21 23 23 24 24 25 28 28 30 34 42 44 41 43 50 54 49 58 55 52 44 35 38 40
61 65 70 72 68 67 68 58 46 43 36 38 36 36 37 34 29 24 23 26 25 25 25 26 29 30 31 37 44 44 47 48 51 55 50 59 55 48 47 42 46 49 62
64 69 72 70 70 70 67 49 41 39 38 37 38 39 36 30 27 25 27 27 26 26 26 29 30 30 32 37 39 45 47 53 53 57 59 52 48 47 47 55 62 71 70
70 71 71 71 73 69 53 43 42 36 36 40 41 36 31 29 27 27 28 27 27 26 27 29 30 32 34 34 36 44 46 53 59 60 55 51 54 57 60 66 78 85 84
72 72 74 73 66 51 45 39 37 37 41 41 36 33 30 28 27 26 25 26 24 24 27 30 31 30 31 41 45 51 56 58 54 52 58 61 64 64 80 90 89 88 89
75 74 69 63 51 41 39 38 38 39 39 35 33 31 29 29 27 25 28 26 26 27 28 30 34 33 39 49 59 60 56 53 51 60 62 64 75 93 97 93 91 92 91
66 64 51 43 41 41 39 38 39 37 33 31 32 32 30 27 25 25 29 30 31 30 30 32 34 42 52 61 62 59 53 54 60 58 70 88 93 96 98 98 97 95 94
50 43 41 43 41 40 39 38 34 32 31 33 32 29 26 25 25 26 31 37 36 35 36 36 39 50 57 59 57 56 59 63 73 88 90 92 95 96 98 99 99 98 95
41 43 44 43 42 40 36 32 31 33 34 32 28 26 25 25 26 26 35 38 43 44 44 44 50 57 57 56 53 56 69 89 90 91 94 96 96 96 97 98 98 98 97
47 48 45 45 40 34 31 32 34 35 32 29 27 26 25 25 26 30 36 38 39 44 46 50 53 55 52 48 53 81 91 91 93 94 96 96 97 97 97 97 97 98 97
46 48 45 39 34 32 34 36 36 33 30 28 27 27 27 27 29 35 37 34 40 45 47 48 51 46 46 64 85 89 92 95 95 96 96 97 96 95 97 98 97 97 97
49 44 38 34 33 36 37 36 34 31 29 29 28 29 29 30 33 37 36 40 45 44 47 49 43 46 72 87 89 92 94 96 96 96 92 87 82 85 93 98 98 98 98
42 36 34 35 38 39 37 36 32 28 26 26 26 29 30 31 31 35 36 40 43 45 48 44 56 78 88 91 93 94 95 96 94 91 90 85 80 84 92 98 98 98 97
36 36 37 40 40 38 36 32 28 27 26 25 25 26 30 30 30 35 38 43 41 45 46 60 81 89 92 93 94 95 94 92 89 86 84 76 78 88 89 93 96 98 98
37 39 41 42 40 37 32 29 28 27 26 25 26 26 26 28 31 37 39 40 39 44 57 82 89 92 94 95 95 93 85 81 80 78 80 77 77 81 88 92 89 90 97
40 43 45 42 38 33 30 28 27 27 26 25 24 23 23 26 32 36 41 41 44 55 82 89 92 95 94 91 87 85 83 81 77 76 79 81 81 82 83 90 92 89 92
44 46 44 39 33 31 30 28 28 26 25 24 21 21 25 30 34 37 39 41 53 79 87 90 90 88 88 87 87 86 87 87 79 78 81 83 83 83 84 85 84 87 89
47 44 39 33 32 31 29 28 27 26 23 19 20 24 32 37 37 40 39 50 74 85 87 85 86 86 86 86 85 88 91 89 83 82 82 81 81 83 85 85 83 83 82
45 38 33 32 31 30 29 27 24 21 19 20 24 27 34 36 39 40 46 67 79 80 79 83 83 83 82 84 90 91 91 91 89 85 83 83 85 89 89 85 83 83 83
38 34 33 31 30 29 26 22 19 18 21 25 28 31 34 37 39 42 61 71 74 71 82 84 82 80 84 87 87 87 88 86 86 86 85 84 85 85 85 85 87 85 82
35 33 31 30 28 25 19 18 19 22 26 29 31 33 35 38 39 53 63 67 71 77 82 78 79 84 85 84 82 80 79 80 81 82 82 82 83 83 85 88 89 88 84
32 30 30 28 22 18 18 19 22 25 27 30 33 33 36 39 48 56 60 68 71 74 77 78 80 84 85 82 79 78 80 82 85 87 85 84 86 89 91 90 90 89 88
31 30 26 20 17 19 20 22 26 29 30 32 34 34 37 45 49 55 63 66 68 77 78 77 77 81 83 83 84 84 85 88 90 93 93 90 86 88 86 86 88 89 88

GFSGL_prec_cthk_003.txt.gz
RH
51 52 54 56 57 59 59 60 62 66 62 64 58 45 35 32 33 33 30 33 34 33 29 24 22 22 23 22 22 22 24 29 32 20 24 26 26 29 34 37 44 50 54
56 56 57 59 60 61 63 66 70 70 64 63 52 37 32 34 35 31 34 37 36 32 26 23 24 25 25 24 22 23 25 29 37 37 25 25 28 33 33 34 44 47 46
58 58 60 62 63 65 70 74 74 71 65 62 43 35 36 36 35 35 39 39 34 28 26 26 26 25 24 23 25 26 30 34 37 40 36 33 37 34 39 45 39 36 37
60 62 63 64 67 72 75 78 76 70 68 55 39 36 38 37 36 41 40 35 29 27 27 26 25 24 24 26 29 32 35 36 36 39 43 42 42 48 51 48 37 39 39
65 64 64 68 72 75 77 78 74 72 60 43 39 39 37 39 41 41 36 30 28 27 25 23 22 23 26 30 33 33 33 40 43 51 47 56 55 52 50 46 48 45 46
65 65 68 71 74 77 80 78 77 62 46 39 35 38 38 41 41 34 30 29 26 24 21 19 21 22 23 27 28 33 44 49 56 62 62 59 51 54 55 59 60 64 75
64 68 70 74 80 81 80 77 63 46 37 36 38 37 41 39 33 30 30 30 25 22 21 22 23 24 26 26 29 39 50 54 61 64 59 55 58 62 70 79 90 92 89
68 70 76 80 82 82 71 58 41 36 37 36 36 40 37 32 30 28 29 26 23 23 25 27 29 29 29 38 46 49 50 50 51 51 56 62 76 87 93 95 95 94 93
74 76 80 82 73 63 49 39 37 38 36 37 39 36 33 31 28 25 26 25 25 27 28 31 32 33 35 47 51 52 48 45 47 59 75 87 88 92 97 95 94 96 91
76 79 73 65 56 44 38 40 39 36 37 37 35 35 32 28 25 23 27 28 30 29 32 31 31 37 43 51 54 48 47 53 73 81 82 85 90 94 98 98 97 96 95
72 68 59 47 41 43 43 39 37 36 36 36 35 32 29 26 24 23 29 32 33 35 31 30 34 38 44 48 47 48 68 83 82 84 85 87 92 95 96 98 99 98 93
55 47 43 45 45 43 40 37 35 36 37 35 31 29 26 24 24 25 31 36 36 33 33 34 36 42 47 43 47 75 86 87 86 88 89 91 92 92 89 91 98 98 98
44 48 48 45 44 41 37 36 37 37 35 32 29 25 24 24 25 27 30 34 34 36 36 39 40 44 39 49 75 84 86 87 90 92 92 89 89 83 80 85 96 98 97
49 47 47 45 39 36 37 39 38 36 32 29 26 25 25 25 26 28 34 33 34 36 40 40 40 39 56 77 81 85 88 91 93 92 90 88 86 76 80 92 96 95 95
48 49 43 38 37 39 40 39 37 34 29 27 26 28 28 28 30 36 34 35 36 40 41 38 37 56 79 83 87 89 91 93 93 91 87 83 78 76 85 91 95 96 96
47 41 38 38 40 42 41 39 34 29 27 26 27 26 26 29 28 31 33 35 39 40 39 38 56 79 85 88 90 93 93 89 83 80 76 78 76 74 80 91 91 94 97
40 39 40 43 44 43 39 32 28 28 27 26 25 24 23 26 25 32 35 37 37 39 38 56 79 87 91 92 92 89 84 83 82 77 75 78 80 79 79 88 93 90 96
40 42 44 46 43 38 33 30 28 26 25 23 22 20 18 19 27 34 35 36 35 37 53 78 88 92 90 88 86 85 85 87 87 79 79 81 82 81 82 83 88 90 93
44 45 46 43 39 34 30 29 27 26 24 21 18 17 20 23 30 32 35 38 37 51 75 86 88 89 88 86 86 85 87 90 88 84 83 82 81 81 81 83 84 83 87
45 46 44 41 34 30 29 27 26 24 20 17 18 20 23 28 30 32 36 39 50 71 83 82 86 86 85 84 85 90 91 91 90 88 86 83 82 84 85 85 84 83 81
46 46 40 33 31 29 27 26 24 19 17 18 20 22 30 33 32 34 37 47 67 78 76 82 84 83 83 87 88 87 88 88 90 89 88 89 90 91 90 86 84 82 82
45 38 34 31 29 27 27 24 18 17 18 19 20 24 28 31 33 36 43 61 69 73 78 83 81 83 85 84 82 81 82 85 88 89 89 89 89 89 88 87 88 85 81
37 34 31 29 28 26 22 17 16 18 19 21 25 28 29 32 34 42 52 62 71 73 79 80 83 84 84 81 78 81 84 86 86 85 85 87 91 92 91 89 89 87 83
34 32 30 29 26 21 17 17 18 20 22 26 29 31 32 32 39 47 55 66 67 72 82 81 82 85 84 81 83 85 88 91 95 93 92 91 91 90 90 90 90 90 88
31 30 29 25 20 18 18 19 20 24 28 31 33 34 32 34 45 49 58 62 67 76 77 78 79 83 83 83 84 86 86 86 94 94 93 91 90 91 93 93 91 90 89
31 28 23 20 18 19 21 23 27 30 33 35 37 35 33 44 47 51 58 63 66 73 75 76 76 76 76 79 81 81 81 88 93 92 91 89 92 93 93 93 93 94 90

GFSGL_prec_cthk_006.txt.gz
RH
56 52 53 55 55 56 58 60 62 63 64 67 72 71 65 55 43 34 32 37 38 35 35 38 35 31 27 28 28 25 25 25 26 17 19 18 18 21 26 29 32 41 44
57 57 57 59 60 60 61 63 64 65 68 73 75 71 62 51 39 37 42 40 35 37 39 35 30 28 28 25 25 25 26 26 30 27 19 20 22 29 29 33 38 44 47
60 60 61 63 62 62 64 66 67 70 74 76 74 68 57 45 41 42 36 36 38 40 34 30 28 25 23 23 24 24 26 29 32 33 28 28 32 38 41 42 43 40 42
60 61 62 63 64 66 67 70 72 75 78 77 74 63 50 43 39 36 36 39 40 34 30 27 23 22 21 24 25 27 29 29 31 36 40 44 48 46 49 46 46 51 54
59 60 63 67 68 68 71 73 77 81 80 78 66 51 40 36 35 36 40 39 33 30 27 24 23 23 24 27 29 27 29 37 43 48 50 48 48 45 52 59 67 75 83
61 65 68 69 69 71 76 78 82 83 80 64 48 38 35 35 36 40 37 34 32 27 25 25 25 25 24 25 25 31 44 46 47 49 46 45 51 58 69 78 81 84 80
66 68 67 69 73 76 79 82 83 76 62 45 37 36 35 38 41 36 32 31 29 27 27 26 26 27 25 25 27 34 44 44 47 44 47 57 69 76 80 82 86 88 88
65 69 73 76 78 79 82 81 71 59 42 37 37 34 39 40 36 32 28 27 29 29 28 29 30 26 29 33 37 41 39 37 36 51 71 75 79 82 86 88 87 88 88
74 76 76 77 81 81 77 69 53 39 39 36 35 40 39 35 31 27 26 30 30 30 29 30 29 32 33 39 44 40 39 34 57 76 78 80 81 84 89 87 87 85 83
76 77 80 80 76 72 60 42 40 40 35 38 40 38 34 30 27 26 30 32 31 30 33 31 31 34 36 40 42 42 41 63 76 77 78 81 83 83 85 85 83 81 87
76 76 73 69 61 46 42 43 38 37 40 40 37 34 31 28 27 26 29 31 32 36 33 30 30 35 40 40 42 49 72 78 79 80 80 81 81 83 84 80 81 91 89
70 67 58 48 44 44 42 39 39 40 39 36 33 31 29 28 27 25 28 30 35 33 31 30 35 40 38 37 47 77 81 83 82 82 83 83 81 78 75 75 87 96 96
51 46 45 45 44 43 40 39 39 38 36 34 31 29 29 26 24 24 26 27 32 31 32 36 35 36 33 45 75 81 84 84 85 86 84 78 76 75 71 76 87 93 95
44 46 45 45 42 40 39 39 39 37 35 32 30 29 26 24 23 25 27 30 32 32 34 35 34 33 50 77 80 84 87 89 89 82 76 71 69 72 72 70 86 87 91
46 45 46 42 39 39 41 41 40 36 31 31 29 26 26 25 26 32 32 33 33 35 37 33 32 51 77 84 87 88 87 85 81 80 78 71 73 75 76 76 85 90 92
46 45 40 39 41 43 44 42 36 32 30 28 26 25 23 22 25 26 33 33 34 34 34 33 53 76 85 85 83 84 84 83 83 83 79 77 77 76 77 80 83 85 91
42 40 41 43 46 45 42 36 32 31 28 26 24 21 18 18 24 27 29 29 29 33 34 51 76 84 83 82 82 82 81 84 86 84 82 81 81 78 77 77 79 80 86
42 43 45 47 46 42 35 31 30 28 26 23 18 16 17 19 23 27 29 27 30 35 47 76 79 80 82 81 80 83 87 87 87 85 85 84 82 79 78 80 80 80 79
44 46 47 47 42 34 31 30 28 26 23 19 16 16 18 18 25 26 27 29 35 46 73 73 76 81 80 82 85 84 83 83 84 86 86 86 87 88 88 87 84 83 82
47 47 47 41 34 31 30 28 26 23 19 16 17 18 19 25 26 25 28 33 45 67 70 73 79 79 83 83 80 80 81 82 85 88 88 88 88 88 86 85 85 82 80
47 46 40 34 32 30 28 26 23 18 17 17 18 20 26 30 28 28 30 43 57 67 70 73 76 82 82 78 78 84 88 90 91 88 88 91 92 92 91 88 87 85 81
45 39 34 32 30 29 26 22 18 17 17 19 20 23 27 29 29 29 40 48 61 65 68 76 77 82 80 78 82 85 89 94 97 95 95 93 91 90 89 88 87 87 82
38 34 32 30 29 25 20 17 16 17 20 22 25 27 29 30 29 36 44 52 59 64 69 74 77 80 81 81 84 86 86 91 95 93 94 92 94 93 91 89 88 86 84
34 31 30 28 23 20 17 17 20 23 25 27 30 31 32 32 33 41 45 53 57 61 71 74 74 76 77 81 83 83 85 92 93 94 93 95 97 95 94 93 91 88 83
31 30 27 23 19 18 19 22 25 26 29 32 33 33 34 33 39 42 49 52 56 64 71 73 73 73 76 79 81 83 86 89 91 93 96 98 98 98 98 96 94 90 85
30 27 23 19 20 22 24 26 28 31 33 34 34 35 34 38 41 47 51 54 60 68 74 76 76 77 79 80 81 83 85 88 89 89 92 97 97 97 97 95 92 89 88

GFSGL_prec_cthk_009.txt.gz
RH
68 66 62 58 53 55 59 60 59 60 63 67 68 69 68 69 67 57 49 42 42 43 35 33 35 35 31 28 27 27 24 25 26 18 21 19 22 26 28 34 38 38 37
69 64 61 56 56 58 61 63 63 64 68 70 72 72 71 72 67 57 47 42 38 32 34 36 34 29 27 26 24 23 24 27 28 24 20 22 26 29 32 36 39 41 41
71 64 61 61 60 60 63 66 65 70 71 73 75 74 78 75 62 48 39 35 32 36 37 34 29 28 26 24 24 26 29 30 28 29 26 28 31 36 35 35 40 50 60
72 66 65 65 64 63 65 66 71 73 74 76 78 82 79 65 49 38 34 34 38 37 33 30 28 27 26 26 30 34 34 33 31 35 38 34 35 32 37 48 55 62 69
70 69 68 67 66 63 66 71 73 74 78 81 84 80 65 50 38 34 36 39 37 31 30 29 28 27 28 33 36 35 35 35 39 42 41 40 33 39 58 62 67 71 74
68 65 65 67 64 66 71 71 74 80 83 85 78 65 49 37 34 38 40 36 31 29 29 28 28 29 31 30 31 33 36 42 40 41 41 38 45 67 67 71 74 76 70
64 63 63 64 68 70 72 77 81 84 86 74 63 44 36 36 40 40 34 30 29 29 29 29 30 31 29 28 27 32 35 38 39 40 40 55 71 73 74 74 76 76 75
61 64 66 68 71 76 80 83 86 83 70 57 39 35 37 42 39 33 29 28 29 30 30 29 30 29 29 31 32 33 34 33 36 45 68 75 77 79 79 79 77 77 72
66 68 72 77 80 82 83 85 74 64 46 38 36 40 43 37 32 29 29 30 30 29 28 29 29 31 33 32 35 34 36 34 48 72 76 79 78 79 81 80 78 75 69
73 78 81 82 83 83 76 68 52 41 38 38 43 41 35 31 30 30 29 31 31 29 30 31 30 31 32 35 37 38 38 51 75 77 77 79 80 80 80 83 78 70 80
80 82 81 80 77 70 53 42 41 37 41 43 39 34 31 31 30 27 25 31 30 34 33 32 28 30 35 38 38 41 61 77 78 79 80 80 79 76 72 74 75 73 83
81 80 74 66 50 42 42 40 39 43 42 38 35 32 32 30 27 24 25 27 33 32 33 28 29 35 35 33 42 71 79 81 81 82 83 79 72 65 65 70 72 72 86
69 58 46 42 43 43 39 42 44 41 38 35 33 31 29 27 24 21 22 23 26 32 29 31 30 32 29 43 74 80 82 82 80 77 74 72 70 68 68 70 70 76 82
46 43 46 45 41 40 43 44 42 40 36 33 30 29 27 23 20 21 23 24 27 27 29 28 29 30 46 76 82 80 77 77 77 76 76 75 74 74 74 72 71 74 76
47 45 43 41 41 43 45 44 42 36 32 29 29 26 24 21 21 24 26 30 31 31 30 29 31 50 77 81 78 78 78 78 79 80 79 76 77 77 77 74 73 73 74
43 43 41 41 45 47 46 42 37 31 30 29 26 22 18 17 22 24 29 25 26 27 28 32 55 72 74 75 75 76 79 81 82 81 80 80 80 79 78 77 77 75 74
44 41 43 46 47 46 43 36 31 31 28 26 22 17 16 15 18 24 25 26 22 24 32 53 66 69 74 74 77 78 77 78 79 81 83 83 84 85 85 83 80 77 75
42 45 46 46 46 42 34 31 30 28 25 21 17 15 14 15 18 25 25 22 22 30 47 62 66 72 73 77 76 76 79 80 81 82 84 86 87 87 87 86 84 81 78
46 45 46 46 40 33 31 29 27 25 21 17 15 14 16 18 20 22 24 24 29 42 57 61 65 70 76 75 75 80 82 86 90 91 92 93 94 93 92 89 85 84 82
46 47 46 38 33 31 29 27 25 20 17 15 15 17 18 21 23 24 25 27 40 50 58 62 68 73 76 74 75 81 83 86 91 94 95 96 93 91 89 87 87 85 81
47 44 37 33 31 28 27 24 19 16 15 16 18 20 23 29 27 28 27 37 44 54 58 62 68 74 75 75 78 81 84 87 95 96 95 95 97 95 92 89 87 84 82
43 37 33 30 29 27 23 19 16 16 18 21 22 24 26 28 29 29 34 40 48 53 59 66 69 73 75 76 78 82 84 89 94 95 96 97 98 99 97 93 90 85 82
37 33 30 29 27 22 18 16 18 21 23 24 25 27 29 30 30 34 38 44 49 55 61 69 70 72 74 77 79 80 83 88 90 94 97 97 98 98 96 96 93 88 82
32 31 29 26 21 17 18 20 22 24 25 27 29 30 30 31 33 38 42 47 51 59 68 70 72 74 75 78 80 82 86 88 89 93 96 96 97 96 97 96 94 91 84
32 29 26 21 18 19 21 22 23 26 28 30 30 28 29 32 38 41 46 51 58 65 71 72 73 75 77 79 82 84 86 88 89 94 97 98 98 95 95 97 95 90 84
29 25 20 19 21 22 22 23 26 28 30 31 29 28 31 39 42 47 51 58 64 69 72 74 75 76 78 80 82 84 85 87 89 90 94 95 97 95 92 92 94 90 83

GFSGL_prec_cthk_012.txt.gz
RH
64 62 72 78 69 65 64 62 61 64 65 67 68 69 72 74 72 69 64 58 52 46 38 36 33 32 31 30 31 30 29 28 26 23 25 28 27 29 32 36 36 31 29
71 71 75 75 73 69 66 63 65 68 69 70 71 73 76 76 73 69 64 57 47 38 36 35 34 32 31 30 30 30 29 28 28 25 25 25 28 33 35 33 34 32 34
78 77 76 71 70 66 64 66 68 70 72 72 75 79 78 76 73 69 60 49 38 37 36 35 33 31 30 31 31 30 30 33 34 31 27 27 31 34 33 33 32 41 53
84 84 74 70 67 65 67 69 71 73 72 76 83 80 78 78 73 61 51 37 37 37 36 35 32 31 33 32 31 33 35 33 31 31 32 35 37 32 35 35 47 63 64
87 81 73 69 70 70 71 73 74 74 78 86 80 81 83 73 62 51 37 37 39 40 36 34 34 33 28 28 32 35 34 32 33 39 43 40 34 34 42 57 67 68 70
90 79 71 78 74 72 72 73 76 78 87 81 86 85 71 61 48 37 37 38 38 35 34 34 34 32 30 30 33 33 34 37 41 44 42 43 38 49 64 71 74 72 68
86 76 82 75 70 71 73 76 78 84 86 89 83 68 59 41 38 38 38 33 33 34 36 33 30 30 32 33 33 34 36 41 43 40 42 45 56 71 74 75 76 76 74
84 78 72 70 69 73 77 78 85 90 89 77 65 53 38 39 39 36 31 30 35 36 32 30 30 32 33 33 33 34 38 37 39 42 53 65 77 79 82 80 77 73 69
71 69 69 71 75 77 83 89 91 84 70 61 42 38 40 40 35 31 31 33 34 31 29 28 33 33 33 32 33 33 35 36 46 64 77 82 84 84 84 80 74 72 63
73 73 74 78 84 89 90 86 74 67 48 36 41 41 39 33 32 33 30 30 29 25 29 33 32 32 31 33 35 35 36 50 73 81 83 83 85 85 83 82 76 70 69
79 83 85 88 88 85 76 69 49 37 40 42 42 38 33 33 32 28 24 26 26 31 33 32 31 31 32 34 36 37 58 78 81 82 81 80 78 76 75 77 76 76 71
85 86 86 84 77 64 47 39 39 41 43 41 38 35 35 32 27 23 20 26 26 34 32 31 31 32 29 30 39 68 77 78 75 73 74 74 74 74 76 77 78 78 78
86 80 69 55 45 42 40 40 42 43 42 38 36 34 31 27 23 21 24 27 34 33 31 31 30 28 29 43 69 73 70 71 71 70 73 75 75 73 73 74 78 77 74
61 52 46 43 43 38 41 44 44 42 38 35 34 30 28 27 25 24 25 32 32 31 30 25 26 30 53 67 67 69 70 71 71 72 73 74 74 75 77 78 77 76 73
47 45 44 39 39 43 44 46 42 38 34 31 29 26 27 24 24 24 25 31 32 29 26 25 30 50 62 67 68 69 71 71 73 74 75 78 80 81 82 82 82 80 78
45 42 37 41 43 46 45 42 38 32 30 28 25 22 19 19 22 23 23 25 25 26 27 29 46 59 64 65 68 70 71 76 79 82 82 82 83 83 84 86 87 86 80
39 39 42 45 48 45 42 36 31 30 28 25 21 17 16 15 16 23 24 23 23 23 28 42 56 60 63 67 68 68 73 77 81 87 91 92 92 93 92 90 88 84 82
41 43 47 46 45 41 34 31 29 27 24 20 17 15 14 15 17 24 24 21 24 27 37 49 57 63 66 68 68 69 75 81 84 88 94 94 94 93 91 89 87 86 84
44 47 46 45 40 34 31 28 27 24 20 16 14 14 15 17 19 23 22 25 25 34 42 52 59 63 67 70 71 74 78 84 88 94 96 97 98 96 95 91 88 85 83
46 46 46 39 34 31 28 26 23 19 16 16 17 19 19 24 26 25 26 28 32 39 49 55 60 65 70 72 75 79 84 88 93 97 98 98 98 98 97 94 90 85 82
48 46 39 35 31 28 26 22 18 16 17 19 20 21 23 28 29 28 28 32 37 44 51 56 63 67 71 74 79 82 85 90 94 97 99 98 98 98 98 95 91 87 82
45 39 34 31 29 25 21 17 17 18 20 21 22 23 24 26 29 29 32 36 41 47 54 61 68 71 73 76 79 83 88 90 93 96 98 98 98 98 98 97 94 88 83
38 34 31 29 25 19 16 18 19 20 21 23 25 26 26 26 27 32 36 40 46 53 59 67 72 75 78 80 82 84 87 88 91 95 97 98 94 95 97 94 92 88 83
34 32 29 24 19 17 19 20 20 21 23 25 27 26 25 26 32 37 42 48 52 57 65 71 74 77 79 81 83 84 85 84 87 91 93 94 92 94 97 93 90 86 94
33 30 25 19 18 20 20 20 21 23 24 26 27 26 26 32 38 42 49 54 58 63 70 72 73 74 76 79 82 83 81 81 81 86 91 95 94 91 92 89 84 92 97
30 25 20 20 20 20 20 21 23 24 25 28 28 28 31 38 43 49 56 61 65 70 74 74 74 76 76 78 80 82 79 79 80 83 82 83 87 82 79 83 85 91 94

GFSGL_prec_cthk_015.txt.gz
RH
60 62 67 74 76 73 78 74 72 70 64 64 65 69 71 73 75 75 76 75 68 57 55 52 41 37 36 33 29 30 32 31 30 28 29 29 28 26 27 28 29 25 25
65 68 73 75 77 75 77 73 71 70 66 66 68 71 74 78 76 80 80 73 63 60 55 44 39 38 32 31 32 32 31 31 32 32 30 28 29 26 30 33 31 29 27
68 72 79 76 76 80 79 72 73 68 67 69 71 75 76 75 84 85 77 68 61 57 45 41 36 34 34 33 33 32 32 31 32 31 30 27 26 31 37 33 29 31 37
75 80 79 83 82 80 76 75 72 67 70 73 76 78 76 84 88 80 72 62 56 45 40 37 37 35 35 34 32 30 30 30 31 29 28 26 34 40 37 34 34 42 52
83 82 83 87 84 85 77 75 68 72 74 78 79 81 85 90 83 72 61 54 42 38 38 36 36 36 34 32 31 32 33 32 30 28 30 34 35 33 36 43 50 58 65
85 84 94 83 87 80 73 70 78 78 79 78 82 84 89 84 70 60 51 39 34 36 36 35 35 33 30 30 34 33 32 32 32 36 41 39 34 40 52 61 68 71 69
89 94 88 82 74 68 76 83 79 78 78 80 83 89 83 66 59 46 37 35 34 35 36 35 32 28 28 32 33 32 29 31 36 36 38 42 52 63 69 72 77 77 73
88 89 84 82 76 86 83 76 79 78 80 84 89 77 63 54 40 36 35 34 34 36 34 31 27 29 31 33 29 29 29 30 32 36 50 65 71 75 79 80 79 72 66
91 84 83 89 81 74 73 77 80 83 91 84 68 59 44 38 37 35 34 33 33 32 29 25 28 31 31 30 32 31 30 30 37 62 71 75 78 78 77 74 68 67 61
92 85 72 71 73 76 78 85 92 87 72 62 45 40 39 38 36 35 33 30 30 26 24 24 29 31 30 31 33 32 30 45 63 66 68 68 69 70 73 75 76 72 69
73 71 73 76 80 85 89 87 74 62 44 40 40 39 38 37 35 34 28 24 27 25 25 25 24 30 31 31 33 34 53 66 63 63 64 65 67 71 74 74 77 78 73
74 77 81 85 87 84 72 59 44 41 41 40 40 39 38 38 34 30 26 27 25 27 26 25 26 30 31 27 32 56 63 63 63 63 64 66 68 68 69 72 77 78 80
85 86 86 79 64 54 43 40 40 40 41 41 38 37 36 32 29 26 25 24 22 25 27 30 25 23 25 30 55 61 62 63 64 64 67 71 72 72 74 76 79 82 84
84 70 61 50 44 40 38 39 42 43 41 36 36 32 29 27 24 23 18 19 20 25 23 22 23 24 28 53 58 58 62 65 67 69 72 76 82 84 83 85 84 83 80
60 50 44 42 37 37 42 45 44 39 35 32 29 27 23 21 18 15 20 21 26 25 25 22 23 27 49 57 58 61 65 66 69 74 79 81 85 89 90 89 88 86 86
44 43 39 36 40 44 46 44 39 34 31 28 25 21 18 15 13 15 22 22 23 24 23 24 28 43 53 59 62 64 65 67 74 81 85 89 92 93 92 93 93 88 83
41 37 39 43 46 47 43 38 33 31 28 25 21 17 14 13 14 16 22 24 21 25 25 28 38 50 58 63 66 67 69 74 81 88 91 94 95 96 96 94 94 91 85
39 41 43 48 47 43 37 33 30 27 24 20 16 14 15 16 17 24 24 24 24 25 27 35 48 55 61 65 69 72 77 82 86 90 93 96 96 97 96 97 96 91 85
41 46 48 46 42 37 33 30 27 23 19 15 15 17 19 18 22 26 27 26 27 29 34 45 52 60 64 69 73 76 81 84 87 91 96 97 98 97 96 96 93 92 87
47 48 46 41 36 33 30 27 22 18 15 16 18 20 21 20 22 23 25 27 29 33 43 49 57 63 68 71 75 79 81 83 87 92 97 98 98 97 97 96 95 94 87
48 47 41 36 32 30 26 22 18 17 18 18 20 23 27 27 25 26 27 30 34 41 46 54 62 69 73 76 78 78 80 82 86 92 97 98 97 98 98 98 94 90 85
47 41 36 33 31 27 22 19 19 19 20 21 23 23 26 25 24 25 30 35 40 46 53 61 69 73 75 77 77 77 78 80 83 91 96 96 95 97 96 92 88 88 93
41 36 34 31 27 22 20 20 20 20 21 23 24 24 24 22 24 31 35 40 46 53 60 67 71 73 76 78 78 77 78 79 83 84 89 91 91 91 88 86 94 98 97
37 35 31 28 23 22 21 21 20 20 23 24 24 24 24 23 30 37 42 47 53 59 65 68 69 72 75 78 80 78 77 80 84 83 81 81 81 90 94 97 98 97 95
36 33 30 25 23 22 21 20 20 22 24 24 24 25 25 27 36 42 50 56 61 67 71 72 74 77 78 79 80 81 79 79 84 88 84 80 79 84 88 91 91 92 94
36 31 25 23 22 20 20 21 22 24 24 24 26 26 26 34 41 50 57 63 68 71 75 78 81 83 82 82 80 81 82 82 83 85 85 78 74 75 76 80 82 84 85

GFSGL_prec_cthk_018.txt.gz
RH
54 55 57 64 68 71 71 76 75 75 76 70 73 64 60 66 69 73 75 77 76 73 70 64 51 51 47 39 35 30 29 33 32 29 27 27 27 25 23 22 22 24 23
59 59 66 76 74 75 74 75 79 80 72 75 71 64 68 72 75 76 79 78 76 75 70 54 54 47 39 34 30 33 34 33 31 28 27 27 25 22 21 24 27 26 22
61 67 75 79 76 78 82 80 79 79 74 73 70 68 72 76 77 81 85 80 76 71 58 56 47 39 32 32 35 34 32 28 27 28 26 24 22 23 25 27 24 24 30
69 76 81 82 81 84 83 79 80 78 74 74 70 71 75 78 83 87 87 78 71 62 57 45 36 34 36 37 35 31 29 28 30 30 28 26 26 28 31 29 28 39 44
80 81 86 82 87 87 79 81 84 78 78 73 72 75 80 84 86 89 78 72 64 55 40 31 35 38 36 34 33 32 34 34 31 31 29 29 31 29 36 45 50 51 56
85 81 80 79 85 80 86 85 82 82 79 72 78 87 84 86 84 78 73 63 50 35 31 35 36 34 30 29 28 33 33 32 30 30 32 32 32 46 55 57 58 61 57
83 80 78 83 86 94 90 89 86 77 79 86 87 84 85 85 80 71 58 42 31 34 36 36 34 29 26 26 28 30 28 27 31 33 31 40 50 59 61 61 61 61 58
90 87 96 95 97 94 88 82 81 87 85 81 82 85 86 77 62 48 34 33 35 35 34 31 28 26 25 28 29 29 28 27 26 30 46 55 61 62 62 61 60 58 54
95 94 97 96 93 87 94 90 81 79 81 90 92 80 65 50 36 34 35 37 34 30 27 25 23 25 27 30 30 28 28 27 30 47 58 60 59 61 62 61 60 59 53
98 97 94 94 91 85 76 73 79 87 92 81 64 49 37 34 35 38 37 33 27 23 21 21 22 23 24 30 30 31 30 29 48 56 55 56 56 58 62 65 64 63 63
96 95 87 82 77 78 79 86 90 78 62 44 38 36 35 38 40 37 32 26 24 26 25 22 20 21 29 30 31 32 32 54 57 54 54 55 58 62 67 71 76 78 75
79 79 80 79 84 88 86 71 54 41 38 36 35 38 41 38 35 30 29 28 26 24 21 20 21 24 26 24 28 32 54 58 54 56 56 58 63 69 73 77 82 86 89
79 80 83 86 78 62 48 40 38 36 35 39 41 38 34 31 27 25 23 20 16 20 20 21 22 23 23 24 30 52 54 54 58 58 58 65 73 76 80 83 88 88 89
86 85 72 57 47 40 38 36 36 41 42 40 35 32 29 24 21 18 15 14 15 18 20 21 21 20 24 29 47 52 54 58 61 63 67 75 80 85 88 90 89 89 86
70 58 46 40 38 35 36 41 43 42 36 33 31 27 23 19 15 17 18 18 20 24 28 21 20 21 25 44 50 54 57 61 66 72 76 80 85 90 94 95 94 90 89
47 42 39 35 36 40 43 44 39 35 33 30 26 21 17 15 15 15 16 22 23 24 24 22 22 26 42 49 53 58 63 67 71 75 80 86 90 92 92 93 94 92 88
41 35 36 39 41 44 42 37 35 32 29 26 22 19 18 19 19 20 24 24 25 24 22 22 26 39 47 54 59 64 66 71 74 78 82 90 94 93 94 94 94 93 88
37 38 39 42 44 40 37 34 31 28 24 19 19 20 19 20 19 24 25 24 20 21 23 27 38 46 53 59 64 67 69 72 75 79 85 92 94 94 95 96 96 94 88
39 41 44 44 39 37 34 31 27 23 20 20 20 19 19 19 19 21 22 22 22 24 28 36 45 53 60 66 69 70 71 74 76 79 87 91 93 95 94 94 92 92 88
42 46 44 40 37 34 31 27 23 21 22 21 21 21 21 20 20 19 20 22 26 30 37 44 53 61 68 70 71 71 73 76 79 81 87 90 92 93 90 88 88 91 94
46 45 41 37 34 31 28 24 22 23 22 21 20 21 24 25 20 19 21 27 32 39 45 54 61 68 71 72 73 71 74 77 83 81 84 88 91 90 92 96 97 98 97
46 42 37 35 32 29 25 24 22 21 20 19 20 20 21 21 20 21 28 33 40 47 54 61 67 69 71 73 76 74 73 76 82 84 78 86 89 92 93 94 95 96 97
43 39 36 34 31 26 23 22 21 20 19 21 21 22 22 22 21 27 35 42 48 54 60 66 69 72 76 78 78 78 76 76 80 85 77 76 80 81 87 90 92 92 94
41 38 35 31 25 23 21 20 19 20 21 22 23 23 24 24 24 36 43 51 58 64 68 71 75 78 80 81 79 78 78 78 80 82 80 73 73 80 80 82 85 85 88
40 36 32 26 23 21 19 19 19 21 22 24 24 25 26 25 33 43 53 61 67 71 74 79 82 84 84 83 80 80 80 80 82 84 84 79 73 70 77 80 78 79 81
38 33 27 24 21 19 19 20 22 23 25 26 26 27 27 27 39 51 58 64 69 75 81 85 88 88 87 85 80 80 80 80 79 83 85 83 76 73 70 66 72 76 77

GFSGL_prec_cthk_021.txt.gz
RH
54 56 60 69 71 68 65 65 72 78 81 79 88 78 85 73 77 67 66 71 72 74 76 76 70 64 59 54 49 40 34 33 32 32 29 25 23 21 17 17 16 17 17
68 64 61 70 70 68 70 73 79 79 79 81 86 80 77 80 72 69 71 74 76 79 79 75 70 62 56 52 40 34 33 36 34 29 26 24 21 19 18 19 19 18 17
68 73 76 77 71 73 74 82 81 82 88 86 85 81 78 77 71 73 76 78 83 82 77 73 66 61 51 38 34 36 37 33 29 27 25 23 20 17 20 20 19 21 26
71 86 83 77 75 78 82 82 85 86 87 86 89 84 80 77 74 77 81 87 85 79 73 66 61 46 36 35 39 37 33 29 28 29 27 23 21 21 23 22 24 33 36
80 95 85 80 79 79 88 85 84 89 92 88 86 81 79 77 78 85 88 87 81 77 70 57 40 33 38 39 35 32 30 29 30 30 27 26 27 24 25 34 39 41 43
94 98 78 76 81 85 81 87 93 90 85 84 85 82 79 81 87 89 85 82 78 68 48 34 34 38 35 30 29 28 29 30 32 30 30 30 24 29 39 45 46 47 42
87 82 78 80 81 95 84 93 94 90 84 84 88 86 89 88 89 83 81 75 57 37 33 37 37 32 29 26 26 27 26 28 30 31 29 26 34 46 49 49 51 50 48
85 84 87 87 97 91 90 95 97 92 95 94 92 90 89 84 84 79 62 40 33 36 37 32 27 26 24 25 26 29 29 28 27 25 27 39 50 53 54 53 51 52 51
94 86 88 88 88 97 98 98 96 95 94 88 85 85 84 79 60 38 33 35 39 35 27 24 23 23 21 23 30 29 26 24 24 27 44 53 52 54 56 56 58 59 55
91 97 98 98 99 97 96 96 87 82 83 85 84 73 52 38 34 34 39 39 31 26 23 22 21 21 21 28 30 30 27 24 28 46 50 50 52 54 59 66 69 69 70
93 98 97 97 97 93 89 81 82 88 80 61 46 38 34 33 37 39 34 30 28 26 22 18 17 19 22 30 30 28 26 34 49 48 48 51 53 58 68 75 81 83 81
97 96 94 90 83 82 86 84 67 50 41 39 34 33 37 39 36 31 30 29 27 20 16 17 20 22 22 22 23 24 32 49 47 49 52 54 58 66 73 78 85 87 92
82 80 82 85 86 77 58 43 38 37 34 34 37 39 36 32 29 24 21 18 16 17 18 22 24 23 19 18 20 31 46 47 50 55 58 62 67 71 76 81 88 89 90
87 84 76 65 51 41 38 36 34 34 38 40 38 33 30 26 22 18 17 18 18 20 23 24 23 19 18 19 27 44 48 53 58 61 64 67 71 77 85 88 84 86 83
75 62 48 42 38 36 35 36 40 41 39 35 32 28 24 20 19 20 21 22 25 28 31 22 19 18 18 27 44 49 53 59 61 64 67 69 75 82 87 89 90 90 90
50 45 40 37 35 37 41 42 40 37 33 30 27 22 21 21 23 23 23 27 28 26 22 19 19 20 29 42 48 54 59 60 64 67 70 73 78 82 82 87 91 91 89
43 37 36 39 41 43 42 39 35 32 29 26 23 22 23 26 27 26 27 26 24 21 19 20 21 31 40 48 55 59 61 63 66 71 71 77 81 80 81 83 85 87 86
38 40 41 43 45 41 37 35 32 29 25 22 22 23 23 22 23 23 22 19 19 19 20 24 31 40 49 57 61 63 63 65 70 74 72 80 83 82 83 87 91 94 95
41 42 44 45 41 38 35 32 30 25 23 23 23 22 21 22 23 22 20 19 20 22 26 32 41 51 59 63 65 65 65 67 71 77 74 80 85 89 93 96 97 98 97
42 46 45 42 39 36 33 30 26 24 23 22 21 21 21 21 21 20 19 19 22 29 36 44 53 61 64 65 67 68 68 68 72 78 75 76 82 87 91 94 96 96 96
47 45 43 39 36 34 31 26 23 23 21 20 19 20 22 23 21 20 19 21 32 37 47 54 61 64 66 69 71 71 71 72 74 79 77 70 79 81 87 90 91 90 91
46 44 40 37 35 31 26 23 23 20 18 17 18 20 21 22 22 21 21 32 39 48 55 61 64 67 71 73 73 72 72 74 76 79 77 72 69 80 83 84 86 87 88
46 43 40 36 32 27 25 22 19 17 17 18 20 21 22 23 23 21 29 41 49 56 61 65 69 73 76 77 76 74 73 75 77 79 79 73 69 68 74 80 83 84 84
46 42 37 34 28 25 21 18 16 17 19 20 22 23 24 24 23 26 41 50 57 64 68 73 76 79 80 79 77 74 75 76 76 77 79 76 75 76 76 78 79 78 80
44 39 34 29 25 20 18 18 18 19 21 22 23 24 25 24 26 38 48 56 62 68 73 77 80 82 82 80 78 76 76 77 76 77 78 80 79 75 73 72 71 73 73
41 36 30 25 21 19 19 18 19 20 21 23 24 25 24 27 35 45 50 55 63 73 80 83 84 85 85 83 78 77 76 76 75 76 76 75 75 70 67 66 65 65 68

GFSGL_prec_cthk_024.txt.gz
RH
27 29 29 33 41 52 66 73 72 76 77 78 77 77 83 85 85 76 76 81 72 72 70 72 74 76 74 73 69 64 55 47 38 34 33 33 30 25 21 18 16 16 15
31 32 32 37 47 63 69 79 77 75 78 75 76 85 87 82 94 82 92 71 74 73 75 79 79 79 80 75 68 57 48 38 35 35 36 30 26 22 20 18 16 13 13
33 37 42 47 56 69 79 86 81 76 73 76 85 86 84 84 88 80 79 74 77 76 78 79 85 82 77 68 60 46 37 36 39 36 31 27 24 20 19 16 15 14 17
40 49 59 60 72 80 84 90 79 80 79 86 82 83 97 84 82 79 78 80 77 80 81 87 82 77 67 55 41 35 39 40 34 29 27 25 22 19 18 19 17 21 26
51 75 69 68 82 86 93 88 79 78 81 82 84 99 86 88 86 88 80 82 80 86 87 82 74 64 47 35 37 41 37 31 27 27 27 24 22 21 20 21 27 32 34
69 81 83 82 93 88 95 82 77 82 84 91 96 86 87 82 81 91 85 83 88 85 78 71 56 35 33 39 37 32 29 28 28 29 29 27 24 22 23 32 39 39 35
76 83 85 88 90 92 82 84 85 89 97 92 94 96 90 89 90 94 90 87 79 74 61 38 32 37 37 30 27 24 24 23 26 31 29 26 24 26 39 41 41 43 41
95 98 98 98 93 88 90 95 95 95 93 93 97 97 98 98 95 87 80 73 57 38 32 36 38 31 26 23 22 22 22 24 26 25 24 23 31 44 47 47 46 45 45
98 98 97 94 90 90 96 93 98 96 98 97 98 99 94 87 84 69 51 36 32 36 39 33 28 23 20 22 23 28 26 24 22 22 23 37 46 47 49 49 50 54 53
90 90 92 97 95 98 98 97 97 97 98 96 91 87 79 59 39 35 32 36 39 34 29 24 20 18 22 25 31 31 26 22 22 24 40 44 46 50 53 57 62 65 68
98 99 98 97 96 98 98 98 96 90 86 79 63 44 38 34 33 38 40 36 31 26 21 18 18 21 26 28 29 25 22 25 26 40 41 45 50 54 59 66 73 76 76
94 98 98 98 97 93 88 84 82 67 44 38 36 33 34 38 38 34 30 26 24 21 20 21 23 26 26 24 20 18 23 28 38 41 46 51 54 59 64 69 78 84 86
93 87 82 82 82 80 63 46 38 36 35 34 37 38 37 33 29 27 23 21 21 21 23 26 27 26 21 17 17 17 26 40 43 48 51 55 59 61 66 73 77 81 83
82 77 70 60 49 41 38 36 35 37 38 37 35 32 29 27 24 22 22 22 23 25 27 27 26 22 20 17 17 29 42 46 50 53 56 61 61 65 74 74 72 76 76
62 53 48 43 38 36 37 38 39 38 35 33 31 29 26 24 23 23 25 26 29 30 29 26 20 18 17 18 31 43 48 52 54 58 62 65 63 73 76 75 76 76 79
48 43 38 36 38 39 40 39 37 35 32 30 28 25 23 23 26 26 25 30 28 27 24 20 18 18 20 34 44 49 54 56 58 62 67 68 66 75 78 84 88 90 90
41 37 38 39 40 41 40 37 35 33 31 28 24 23 24 25 24 23 23 25 21 19 18 18 19 25 35 45 52 56 58 59 61 64 68 70 67 75 80 84 87 89 90
39 40 41 42 43 40 38 36 33 30 27 24 23 22 22 21 21 22 19 17 17 18 19 20 30 36 47 55 58 60 62 64 65 67 72 72 68 75 78 82 85 86 85
42 43 44 44 41 38 36 33 31 28 24 23 22 20 17 18 19 19 17 18 17 19 22 34 40 51 58 60 63 66 68 68 69 71 75 74 68 72 79 83 84 83 83
44 46 44 42 39 37 35 33 29 25 24 21 17 15 15 16 18 18 18 19 20 23 37 45 54 60 62 64 68 70 70 69 71 73 76 75 71 70 74 76 78 81 81
46 46 43 42 40 38 35 30 26 23 18 16 14 15 17 19 19 20 20 20 24 38 47 56 60 63 67 70 74 73 71 70 72 74 76 77 72 71 75 77 77 75 76
47 45 44 43 40 36 30 27 22 17 14 14 15 17 18 20 20 20 20 25 37 47 55 59 64 69 73 76 76 73 71 71 73 73 75 78 75 72 70 67 68 74 73
45 46 46 41 37 31 27 21 17 15 16 17 18 19 20 21 21 21 25 34 43 52 60 66 71 74 77 79 77 75 72 72 73 72 72 71 71 68 66 65 64 64 67
46 47 44 38 33 28 23 19 18 17 18 18 19 20 22 22 22 26 32 39 48 57 64 71 75 79 81 81 79 75 74 74 72 72 72 70 70 71 66 62 61 61 61
49 47 41 35 31 26 23 21 20 18 18 18 19 22 21 22 26 31 37 43 48 58 68 76 80 82 84 83 81 78 75 74 74 75 76 75 72 69 65 63 64 60 57
50 45 39 35 31 27 23 21 19 18 17 18 20 21 21 24 29 34 38 42 51 65 74 78 81 83 84 84 82 80 77 74 77 78 78 78 72 66 67 68 65 56 52

GFSGL_prec_cthk_030.txt.gz
RH
45 47 49 50 49 43 37 35 35 35 38 48 54 61 75 85 88 83 86 86 84 87 82 83 82 88 83 92 83 81 80 76 73 71 66 62 55 45 37 33 29 27 23
50 59 59 57 56 53 50 44 44 44 42 46 56 64 70 78 84 84 84 86 84 92 79 87 93 93 89 92 89 89 85 76 70 65 62 54 42 37 32 30 27 21 17
57 58 63 69 65 61 55 52 52 56 53 49 55 62 67 73 77 81 86 89 88 83 97 79 97 94 89 87 85 85 78 75 67 60 50 41 35 33 31 25 22 17 16
67 74 70 77 73 68 65 55 56 62 61 62 62 67 76 78 82 84 84 85 96 88 87 97 95 95 95 94 90 87 78 69 59 49 38 35 35 29 26 23 21 18 18
82 85 88 82 79 73 66 60 60 65 66 67 71 74 77 82 85 87 92 96 90 86 87 97 95 95 98 90 78 69 62 53 43 36 35 35 30 26 24 23 21 20 20
93 89 86 82 73 66 66 68 76 78 76 75 79 79 82 81 90 88 95 92 88 90 97 98 98 94 84 74 65 56 46 36 35 35 32 30 27 25 25 23 24 27 27
85 78 70 62 58 61 60 69 82 81 79 77 85 83 82 87 91 93 96 95 93 98 98 95 87 77 67 56 44 36 33 30 29 31 30 28 28 25 24 26 29 30 31
74 68 63 60 60 65 66 72 74 81 93 84 85 84 83 88 98 98 97 92 97 95 84 77 66 55 45 36 33 30 30 28 28 28 26 26 25 25 28 31 31 34 36
82 79 74 72 69 74 78 81 83 92 90 93 96 91 87 94 98 94 95 93 82 69 60 51 38 37 34 26 30 32 30 29 28 27 24 23 22 25 30 33 37 39 38
90 90 93 93 93 95 96 98 98 98 95 95 98 98 98 96 96 86 73 58 44 35 36 36 29 25 24 27 30 30 30 26 23 20 18 19 27 32 38 42 44 46 46
92 95 97 98 98 98 98 98 96 97 99 98 97 94 83 67 52 40 34 36 36 31 27 24 22 21 26 29 29 26 21 22 21 17 18 29 33 41 45 48 50 51 51
96 97 97 98 98 98 98 97 97 91 75 59 50 42 37 36 37 36 33 30 27 23 20 21 23 26 24 21 17 15 17 18 15 20 32 36 44 47 50 52 55 54 56
85 83 80 74 66 58 51 43 39 38 37 37 38 37 36 33 30 28 26 22 20 20 19 18 19 18 17 15 13 14 14 15 27 37 42 48 49 51 54 56 58 55 60
56 52 48 45 40 38 38 39 40 40 39 36 33 31 30 29 26 22 19 17 15 15 15 16 15 13 13 13 14 15 19 35 41 49 52 52 53 56 59 60 56 54 58
48 43 41 39 39 40 41 41 39 36 33 32 31 30 26 22 19 19 18 16 16 14 14 13 13 13 14 14 17 29 40 48 53 55 57 58 60 62 63 63 60 60 64
44 41 40 41 41 42 41 38 35 33 32 31 28 24 21 18 15 13 12 12 12 13 13 13 13 14 16 25 35 46 52 54 58 60 62 62 64 65 66 65 64 64 63
43 42 42 43 44 43 39 35 34 33 31 28 24 20 17 14 13 13 13 13 13 12 13 13 14 20 29 40 49 53 56 60 64 65 64 66 67 68 68 68 68 65 61
43 43 43 44 43 40 37 36 34 31 28 23 20 17 15 14 15 13 13 14 14 13 14 17 23 30 41 49 53 57 61 65 66 66 66 68 69 69 68 68 68 64 60
44 44 44 44 43 40 38 36 33 29 24 21 19 17 16 17 16 14 15 15 15 15 18 23 32 41 48 52 57 61 65 68 68 68 69 69 69 69 69 68 67 66 63
45 46 46 44 42 40 38 36 32 27 24 21 19 18 18 17 15 15 16 16 16 19 23 31 39 47 51 57 62 66 69 70 70 69 69 70 70 72 73 72 68 65 68
46 47 46 43 42 41 39 35 30 27 25 23 21 20 18 17 16 17 16 17 19 22 28 35 43 51 58 64 68 70 72 73 73 73 71 70 72 74 75 74 68 68 71
48 47 45 41 41 42 39 34 31 28 26 23 21 19 19 17 17 17 17 19 22 26 32 39 49 56 62 66 70 73 74 74 75 74 74 73 74 75 75 72 69 68 70
49 47 45 44 43 42 39 35 32 29 26 23 21 20 19 17 17 16 18 22 25 30 36 44 52 59 65 69 72 74 76 78 77 75 73 73 74 75 75 72 70 69 71
50 48 47 46 44 43 40 37 34 30 27 24 23 21 18 17 16 17 22 26 31 35 39 47 56 63 67 72 76 77 78 80 80 79 77 73 72 74 74 74 72 69 71
51 48 47 45 46 44 42 38 34 31 29 27 25 22 18 16 16 20 26 30 33 35 44 55 61 66 70 75 79 81 82 81 82 82 79 77 75 73 73 73 71 68 68
51 49 48 46 48 46 42 38 35 32 30 27 26 21 17 17 20 24 30 32 36 46 52 58 66 70 74 79 82 84 84 84 83 85 83 80 78 74 72 72 70 69 65

GFSGL_prec_cthk_033.txt.gz
RH
42 43 42 41 43 44 46 46 47 46 42 42 45 49 54 64 71 75 82 92 86 95 92 84 83 86 87 91 90 94 90 88 91 90 90 87 80 72 64 56 47 42 34
39 43 48 50 50 53 54 55 59 61 56 52 54 52 54 60 61 70 82 87 90 96 87 84 84 96 86 94 95 93 88 95 95 92 87 79 73 66 58 49 42 31 27
45 49 53 55 61 60 57 64 63 68 63 62 63 60 57 61 69 66 71 78 88 87 85 85 93 90 92 94 94 97 97 98 95 91 80 71 63 54 47 38 30 28 22
53 55 61 67 75 75 68 64 72 79 73 63 65 66 64 65 68 71 74 78 77 75 82 83 87 90 97 96 94 97 98 94 85 79 71 64 53 42 35 31 29 23 20
61 62 69 83 85 81 75 84 86 82 77 71 66 67 69 71 76 75 70 71 76 82 92 86 92 96 98 99 92 92 89 83 76 68 57 47 40 35 36 30 27 23 22
63 65 67 75 78 80 80 85 84 82 79 75 75 74 75 77 76 75 77 84 89 90 88 91 95 98 96 95 89 85 78 67 57 52 43 38 38 31 28 26 26 29 29
61 63 60 59 64 66 67 71 77 83 84 85 84 83 78 82 83 81 94 93 94 99 95 93 97 97 88 83 76 67 52 43 38 39 38 33 31 28 26 27 28 30 30
62 66 62 56 55 58 61 65 69 76 87 94 97 89 86 89 96 97 85 88 97 94 94 96 88 80 69 55 45 39 32 28 27 27 28 27 25 24 26 27 30 33 33
77 76 75 77 76 68 72 71 69 77 80 89 96 98 98 92 79 90 87 90 98 92 84 66 50 43 36 30 24 23 24 26 25 23 20 19 20 20 24 29 32 36 38
82 87 86 89 94 95 97 98 90 90 93 96 92 98 97 98 98 92 85 77 62 47 41 39 31 24 22 20 26 25 24 21 17 15 15 15 17 25 32 35 40 43 45
81 85 89 93 94 95 97 97 97 98 98 98 98 98 95 80 65 54 46 42 39 32 26 22 20 18 19 23 23 22 18 18 15 13 13 21 29 35 39 45 47 47 47
79 81 84 86 86 88 91 95 93 84 69 56 48 45 42 40 38 35 31 29 24 20 17 16 16 18 21 18 16 12 11 13 13 15 28 35 39 45 49 48 49 51 51
57 56 54 52 48 42 39 39 39 39 39 38 37 35 33 31 30 28 24 19 16 15 14 14 16 15 12 11 11 11 13 15 25 36 40 45 49 50 50 53 56 56 55
46 43 40 38 38 39 40 40 39 37 35 33 32 31 30 28 24 20 18 16 14 13 13 13 12 11 11 11 13 15 22 33 38 43 47 51 53 55 56 58 58 56 56
43 40 39 40 40 41 41 38 36 33 32 32 31 28 25 21 19 17 15 15 15 14 12 12 13 12 13 14 19 28 37 42 46 50 54 56 57 58 60 60 60 59 59
42 41 41 42 43 42 39 36 34 34 33 31 27 24 21 18 15 15 16 16 14 14 13 13 12 13 16 23 33 40 44 48 51 55 58 58 59 60 61 61 61 59 57
42 43 42 43 44 42 39 37 36 34 31 28 24 21 19 18 17 17 17 14 14 14 13 13 14 18 26 36 42 45 48 53 56 59 60 60 60 61 60 61 63 63 61
43 44 44 45 44 42 39 37 35 33 29 26 24 22 20 19 19 18 16 16 15 14 14 15 19 27 37 43 45 49 54 58 61 62 62 62 62 62 63 65 68 67 64
44 44 45 45 43 41 39 38 36 32 29 27 25 23 22 21 19 19 18 15 15 15 15 19 26 34 42 46 50 55 59 63 65 66 66 66 67 66 66 68 69 70 68
45 45 46 44 43 40 39 39 36 33 31 28 26 24 22 20 20 20 18 16 14 15 18 25 32 38 46 51 55 58 62 65 67 69 69 69 69 68 69 70 71 70 68
46 46 46 45 43 41 40 40 38 35 33 30 27 25 23 22 22 20 17 15 15 18 23 29 34 43 51 55 59 63 67 68 69 71 72 72 71 69 69 70 71 72 71
48 48 47 47 46 45 42 41 41 38 36 32 29 27 26 25 24 22 17 15 18 22 27 32 39 46 53 59 63 67 71 74 75 74 74 75 75 74 72 72 72 71 71
51 52 50 49 47 45 42 44 43 40 36 33 31 29 27 25 23 20 17 17 21 26 32 36 41 48 56 62 66 70 74 78 79 79 78 78 78 77 75 74 72 70 72
54 54 53 50 48 44 45 48 44 40 36 33 32 29 25 24 22 18 18 21 25 32 35 38 47 55 60 65 71 75 79 81 81 81 81 79 79 80 79 77 75 71 71
57 57 54 51 48 47 50 49 44 40 36 34 31 27 26 24 19 19 21 25 30 34 38 48 54 59 65 71 77 82 84 85 83 83 82 81 80 80 79 76 74 69 70
57 55 52 51 49 50 52 48 43 40 37 35 30 27 24 20 19 21 25 29 34 41 49 54 60 67 74 79 84 87 87 85 86 89 87 84 82 80 77 74 70 69 68

GFSGL_prec_cthk_036.txt.gz
RH
32 33 35 37 39 39 39 41 46 47 49 50 51 50 51 56 58 64 68 72 79 84 91 94 99 95 96 91 89 90 86 88 89 93 95 93 95 97 96 88 82 77 70
34 36 36 36 38 41 46 50 55 59 62 62 58 60 60 58 59 66 68 69 75 83 88 89 90 87 84 91 91 84 90 93 93 92 98 97 97 97 93 82 75 68 63
42 42 43 46 46 45 48 52 65 71 73 68 66 67 65 63 65 68 72 75 72 71 75 79 88 82 83 97 89 84 89 95 98 98 98 98 92 86 84 78 73 62 47
55 54 50 47 47 50 50 62 76 74 77 81 79 73 69 69 73 74 76 77 78 76 76 77 85 89 88 84 82 87 87 90 94 96 95 90 87 82 76 67 55 49 45
59 54 51 51 49 51 55 62 67 69 76 78 73 80 82 83 85 84 82 79 84 89 83 79 93 91 80 83 94 95 91 97 97 93 89 85 80 72 57 50 44 39 31
52 51 54 54 51 55 57 59 64 70 76 79 86 88 87 86 88 86 86 81 79 86 83 78 77 81 90 96 96 90 94 92 87 82 75 62 50 46 40 34 29 26 25
52 54 56 55 55 51 55 55 57 69 77 82 84 84 88 87 90 87 89 87 84 86 90 97 98 93 97 97 96 87 83 73 59 50 43 34 30 27 26 24 25 26 27
61 61 58 56 55 59 58 57 58 60 71 79 89 89 90 93 98 91 91 90 93 95 98 97 88 94 90 82 69 52 40 32 24 22 24 25 25 24 24 26 23 24 28
69 70 67 66 72 71 70 71 73 70 70 82 95 96 93 93 95 96 98 98 97 94 85 81 76 65 47 38 30 23 19 21 23 21 19 16 14 14 15 20 24 31 34
70 72 73 73 75 80 83 88 88 90 90 89 94 98 97 98 98 98 96 93 85 72 53 46 40 32 26 20 20 22 21 19 18 14 18 15 11 13 20 27 33 39 46
66 68 69 70 72 75 81 85 88 92 95 97 97 97 95 86 77 61 52 48 43 38 32 26 21 16 13 13 16 17 15 13 13 12 11 13 21 29 34 38 43 47 47
57 57 56 56 56 57 59 60 59 56 50 45 43 43 41 40 37 33 30 28 23 19 16 14 13 12 11 11 13 14 12 11 13 13 22 31 35 38 42 45 48 50 52
44 41 40 37 36 37 38 39 39 39 37 35 33 31 31 31 29 26 22 19 16 14 13 13 13 12 13 12 11 10 11 13 20 29 34 38 41 45 48 50 52 53 54
39 36 36 36 37 38 38 37 35 33 32 31 31 30 28 25 22 19 17 16 15 16 16 15 13 13 12 12 11 12 18 27 34 38 41 44 47 50 50 52 55 58 59
39 38 38 39 39 39 37 35 33 32 32 31 29 26 23 21 20 18 16 20 23 22 16 14 14 14 13 12 15 22 30 36 40 43 46 49 52 53 55 59 60 61 59
40 40 40 40 41 40 38 36 35 34 32 29 26 24 23 21 19 19 19 19 18 18 15 15 14 13 13 16 25 33 38 42 45 49 53 56 58 59 59 61 61 61 63
41 41 42 42 42 41 40 37 36 34 32 29 27 25 24 23 22 21 21 19 18 18 17 15 14 14 18 26 35 39 42 46 51 54 58 60 62 63 64 64 64 65 66
42 42 43 44 43 42 41 39 37 36 33 31 30 28 26 25 23 22 21 21 21 20 17 15 15 18 25 34 39 42 47 52 56 59 61 63 65 66 66 66 66 67 69
44 44 45 45 44 44 42 39 38 36 36 35 33 31 28 27 25 25 25 24 22 21 18 15 18 23 31 38 42 47 52 57 62 64 66 67 67 68 69 69 68 68 70
48 45 47 46 45 45 43 40 39 38 38 38 36 34 31 29 29 29 27 24 21 19 17 17 22 28 36 41 47 52 57 62 66 70 72 73 73 72 71 72 73 72 72
49 47 49 48 47 46 46 44 42 40 41 40 37 35 32 31 30 28 25 23 20 17 18 20 25 31 38 45 52 57 61 65 68 73 76 78 77 78 79 77 76 76 75
52 49 51 51 50 49 47 44 42 44 44 40 37 34 32 31 29 26 24 22 18 17 20 24 29 36 42 47 54 61 65 68 73 78 81 82 81 81 82 82 81 81 79
52 52 55 53 52 52 48 44 45 48 44 40 37 34 33 31 27 25 22 19 19 20 23 29 35 39 43 53 60 65 70 74 79 83 84 85 83 84 86 85 84 82 79
55 57 58 56 55 52 47 47 48 48 44 39 36 34 33 29 26 24 22 21 22 24 29 34 37 45 54 59 64 69 75 81 85 88 87 85 84 87 88 86 82 79 74
60 62 60 57 54 50 49 50 50 49 43 39 35 34 31 28 25 22 21 23 25 28 32 38 48 57 63 70 76 82 86 88 89 91 89 87 87 87 84 80 74 68 64
64 65 61 56 54 50 51 51 53 50 44 40 37 35 32 29 24 22 24 25 29 34 41 49 57 64 74 85 90 93 94 95 96 98 95 90 85 77 70 63 61 62 63

GFSGL_prec_cthk_039.txt.gz
RH
29 29 31 34 36 37 35 35 36 37 38 43 52 56 65 65 66 69 68 68 73 75 74 76 79 86 91 99 98 93 93 97 95 91 96 90 87 86 96 96 95 95 94
30 32 35 37 40 41 37 37 39 42 41 41 47 54 65 76 73 73 74 70 75 80 85 85 87 88 91 92 90 98 94 97 90 92 94 95 90 96 97 95 92 91 83
40 42 44 45 49 49 43 40 39 38 41 46 53 64 75 80 80 78 78 78 78 76 84 90 94 92 91 90 90 92 90 92 91 96 93 92 97 92 91 92 92 85 79
47 50 52 51 47 45 42 42 43 43 47 52 60 64 73 87 82 83 80 82 83 77 79 85 92 94 92 86 79 80 85 92 95 93 93 87 96 94 90 86 81 76 69
52 54 51 48 48 44 44 44 44 48 52 57 67 73 77 80 78 77 81 83 80 84 87 87 90 92 89 85 94 85 85 92 87 89 97 96 92 80 73 71 63 51 39
54 52 48 48 48 44 46 47 47 47 51 57 66 71 73 82 88 88 90 94 94 93 94 93 91 92 95 98 92 80 93 87 97 91 86 79 72 62 51 40 34 26 22
57 55 50 49 48 46 49 50 51 49 51 52 60 71 74 77 83 90 93 94 97 97 95 93 89 86 97 87 85 96 95 85 75 64 56 46 36 31 26 24 21 19 16
60 59 54 50 51 54 56 59 58 58 56 60 66 71 79 82 87 91 95 95 98 94 95 94 92 91 97 95 88 76 64 47 32 26 24 22 22 22 20 18 16 15 14
64 63 62 62 63 65 65 66 69 71 71 72 75 81 86 92 91 90 93 96 95 97 97 98 93 86 71 56 39 29 28 27 27 22 18 15 13 11 10 11 11 16 23
64 63 59 57 58 62 64 68 75 76 78 79 80 82 85 90 94 96 97 96 89 82 75 62 49 41 32 26 19 21 22 21 20 16 14 16 14 10 11 16 26 29 36
57 55 53 50 51 54 56 59 64 67 68 67 65 59 54 50 45 45 44 44 41 38 32 24 19 16 15 15 15 16 17 15 13 12 13 12 15 23 29 32 35 38 41
48 47 45 43 42 42 42 41 39 37 35 33 32 31 30 30 30 29 26 23 20 17 16 15 15 13 13 13 13 14 12 11 10 11 15 22 29 33 36 39 41 44 46
41 39 37 36 36 36 35 34 33 32 30 29 30 30 29 27 24 21 18 16 15 14 14 14 15 16 14 13 12 11 11 11 14 21 27 32 36 38 41 44 45 46 49
39 37 37 37 37 37 35 34 32 30 29 29 28 26 24 21 19 19 19 19 18 19 21 21 17 15 14 13 13 12 14 19 25 30 34 37 40 43 46 48 49 51 53
40 37 39 39 38 37 36 34 32 31 30 28 27 25 23 23 22 21 20 20 20 22 19 19 19 18 17 15 14 16 24 30 34 37 39 43 46 48 50 53 54 57 58
44 40 40 40 40 39 38 37 36 34 32 31 29 28 26 25 25 23 22 22 21 21 21 23 23 22 20 19 19 25 32 36 38 42 46 49 51 53 54 56 58 60 60
47 44 41 41 41 41 41 40 38 37 35 34 33 31 30 30 29 27 26 26 26 26 25 25 22 20 17 18 24 31 36 39 43 48 51 54 57 58 59 60 61 62 63
49 48 45 42 42 43 42 41 40 38 37 37 36 35 34 33 31 30 29 29 29 28 24 21 20 17 17 22 28 35 39 43 48 53 57 61 64 65 65 66 66 66 66
55 51 50 45 44 44 43 42 42 40 40 39 38 38 36 34 32 31 31 29 27 25 23 21 18 16 20 25 32 39 43 49 54 58 62 65 68 70 72 73 74 74 73
60 56 55 49 46 46 45 45 44 43 42 40 40 40 37 34 34 33 31 28 26 23 21 19 17 19 22 28 34 41 48 53 59 64 66 69 72 76 77 78 79 76 77
66 60 56 52 48 48 49 49 47 46 43 42 43 40 36 34 32 31 28 26 24 22 18 18 19 21 26 31 38 45 50 58 64 68 72 75 79 81 83 83 83 81 80
68 62 57 53 51 53 53 52 50 47 45 46 43 38 35 33 31 28 26 25 23 20 20 20 21 25 32 37 41 49 59 65 69 74 80 85 86 87 89 88 86 84 85
70 64 58 56 57 57 56 54 49 48 48 47 43 37 34 31 30 28 26 23 21 21 23 24 27 31 34 40 50 57 66 76 80 85 89 90 92 94 92 89 89 87 85
70 63 57 58 62 61 59 52 49 50 50 49 43 38 34 30 29 27 24 21 22 24 27 28 31 35 43 50 57 67 75 82 92 98 98 97 96 96 93 87 80 75 70
68 63 58 61 66 64 57 51 50 51 52 52 45 39 35 32 30 27 24 24 27 30 31 31 36 42 48 54 61 67 74 80 84 87 88 90 88 84 81 78 76 74 72
73 63 61 67 69 61 54 50 51 52 56 55 48 44 39 35 33 31 31 32 34 37 36 36 39 44 50 56 63 70 76 80 83 86 86 84 82 79 77 75 73 70 67

GFSGL_prec_cthk_042.txt.gz
RH
30 28 29 30 32 34 33 32 33 35 37 38 38 39 41 43 46 53 61 68 77 83 91 94 92 88 90 92 93 92 92 93 94 96 99 98 98 96 94 95 92 87 87
33 32 31 33 37 40 40 39 38 35 35 34 33 32 35 41 49 59 64 71 78 78 81 88 90 92 94 96 98 98 94 93 94 96 96 98 95 96 93 96 97 92 88
41 40 41 43 45 46 45 43 40 36 35 36 35 34 35 43 52 58 63 75 87 85 88 89 92 93 91 95 98 99 99 98 97 95 98 94 92 97 96 98 90 89 88
46 46 47 49 50 46 44 43 40 39 39 39 40 40 41 47 52 59 65 70 74 85 90 90 93 93 92 91 95 98 99 96 96 93 90 87 87 86 94 91 89 80 77
51 50 51 50 46 46 45 44 43 41 42 41 43 44 44 49 56 60 66 73 77 82 84 85 84 92 91 91 93 95 97 95 93 96 94 93 92 95 89 81 75 64 52
53 53 51 49 48 48 46 44 44 43 44 43 44 45 47 50 58 60 67 75 79 83 84 89 97 92 96 94 95 92 95 94 95 90 94 94 82 73 62 45 33 27 20
53 53 53 51 51 49 47 47 47 47 47 47 47 48 53 61 64 69 71 81 88 94 93 92 94 97 91 92 92 91 89 96 91 86 74 64 43 34 27 21 20 17 12
56 56 56 55 56 57 57 55 52 52 55 58 60 62 65 69 75 80 84 83 86 95 96 98 98 98 98 98 97 91 84 74 64 47 33 24 20 19 17 16 13 10 10
57 59 60 60 60 60 59 59 58 60 61 61 64 67 70 72 75 78 83 88 90 90 93 96 94 86 72 55 48 40 36 34 29 22 18 15 13 11 11 11 10 11 15
52 51 52 52 51 51 52 53 56 56 55 56 56 53 50 46 43 42 41 39 42 45 48 43 39 33 27 23 20 17 19 19 18 17 15 12 12 11 11 14 18 23 27
45 46 47 48 48 48 48 48 46 40 34 31 29 28 27 27 27 25 23 21 19 18 17 16 15 15 14 14 14 15 16 15 14 13 12 11 12 16 23 26 29 32 35
41 41 42 42 39 37 37 34 31 29 28 27 27 27 27 25 22 20 18 17 17 16 16 16 16 15 15 15 15 15 14 14 13 12 12 15 23 27 30 33 36 39 40
38 35 36 36 35 35 35 33 31 29 28 28 27 26 24 22 20 20 19 19 18 18 18 18 18 18 18 17 17 16 15 15 14 16 22 27 30 33 35 38 41 43 44
40 37 37 37 37 37 36 34 33 32 30 29 27 26 25 24 24 24 23 23 22 22 22 22 21 21 20 20 20 17 15 15 19 25 29 31 34 38 41 44 45 47 48
43 40 39 38 38 38 37 37 36 35 34 31 30 29 29 29 28 28 27 26 25 25 24 24 24 23 22 20 18 17 17 24 28 31 33 35 40 44 47 50 51 52 54
47 44 43 41 39 39 39 39 38 36 36 34 32 32 32 32 32 31 29 28 28 28 27 26 24 22 21 18 16 16 22 26 31 34 37 42 46 50 53 56 58 59 59
52 48 45 45 43 41 41 41 40 38 38 36 35 35 35 35 34 32 30 29 29 28 26 24 23 21 18 16 16 20 26 31 35 39 45 49 53 57 61 63 65 67 67
60 53 49 48 47 45 43 43 42 42 41 41 40 40 38 38 37 34 31 30 29 27 25 23 21 19 17 17 20 25 30 36 39 45 51 55 60 64 66 69 71 72 74
72 60 55 52 51 51 49 45 45 45 45 44 44 42 41 40 36 33 31 29 27 25 24 22 20 18 18 20 22 27 31 37 43 49 56 61 66 69 72 75 77 80 81
82 70 60 55 56 55 52 49 47 48 48 49 47 44 44 38 34 32 30 29 26 25 23 20 19 20 22 23 25 29 34 41 46 51 59 67 72 76 80 85 87 86 87
89 78 69 60 60 57 53 50 51 53 50 51 47 47 44 37 33 30 28 27 26 24 21 21 22 24 26 28 31 34 37 42 51 60 65 71 82 88 93 93 94 94 92
94 84 74 64 63 57 56 55 60 55 53 51 49 49 44 37 33 29 28 27 25 23 23 24 27 28 29 30 32 38 46 53 58 64 73 82 88 96 98 98 98 97 93
95 86 76 68 65 59 57 59 62 59 53 51 50 50 45 39 35 31 29 27 25 24 26 28 31 32 33 35 39 44 50 56 61 67 72 77 83 87 89 90 89 86 83
98 89 78 73 66 60 59 63 67 58 53 51 51 52 48 42 39 35 33 31 30 31 32 34 35 35 36 38 41 47 53 60 65 70 74 77 81 85 86 83 80 77 74
97 86 76 70 64 61 62 67 67 56 52 52 53 56 53 48 45 43 41 41 39 38 39 42 41 41 40 42 48 55 60 63 65 68 70 73 76 80 79 77 76 77 77
95 86 78 72 65 64 66 70 64 54 52 54 57 60 58 54 53 51 52 51 49 48 50 51 49 47 46 49 52 56 59 61 64 67 67 67 67 68 67 67 66 63 58

GFSGL_prec_cthk_045.txt.gz
RH
31 30 29 28 30 30 30 30 30 30 31 34 35 34 33 34 36 36 37 40 46 49 52 59 64 74 82 83 85 92 99 99 93 87 91 91 92 93 98 98 96 98 93
35 35 33 32 32 33 35 38 37 37 36 33 31 29 28 29 32 36 40 43 46 48 51 58 67 75 84 83 85 89 94 99 96 93 93 98 90 89 93 98 99 97 94
37 38 39 39 39 41 43 45 42 40 37 34 33 33 32 32 33 35 40 43 47 54 61 65 69 77 86 88 91 92 95 95 98 96 94 95 98 99 98 95 92 88 87
40 41 42 44 45 46 47 44 42 41 37 38 38 37 36 37 39 39 44 46 49 56 64 71 77 82 85 83 87 96 90 95 97 97 95 98 98 96 94 93 94 92 96
45 45 46 48 49 47 44 45 43 42 43 42 39 38 37 39 40 43 48 51 53 61 67 75 77 79 88 93 87 90 97 93 92 94 96 96 94 89 90 95 96 87 79
48 48 49 48 48 46 47 45 45 47 47 45 43 42 41 42 45 49 54 59 63 66 74 78 84 87 92 90 95 96 87 90 93 91 92 95 92 94 92 82 62 37 21
49 47 46 48 47 46 47 48 49 50 47 46 45 46 48 52 55 59 63 66 68 71 76 81 84 86 93 93 97 97 96 93 93 92 91 89 78 65 50 34 26 21 19
49 49 49 51 54 56 58 58 56 53 53 54 54 55 54 54 53 53 57 63 70 72 73 80 85 90 92 90 89 89 83 70 57 45 38 36 33 28 22 18 15 14 13
49 48 50 50 52 54 54 56 56 55 53 50 49 47 42 39 37 35 33 32 31 33 33 31 30 27 23 20 18 16 16 16 17 19 19 17 17 17 19 16 13 13 13
42 42 42 45 47 50 51 49 48 48 45 36 30 28 26 24 23 21 19 17 16 15 14 13 12 12 13 13 13 14 16 19 22 23 22 20 16 15 16 14 14 21 26
40 40 41 43 45 46 46 42 36 30 28 25 24 24 23 21 20 18 16 16 16 15 15 16 16 17 17 17 18 18 19 21 19 19 17 16 16 15 16 23 27 29 30
41 40 40 39 38 39 36 34 32 30 28 27 26 24 23 22 20 20 20 20 20 20 20 20 21 20 20 20 20 20 20 20 18 17 15 14 16 23 26 29 31 33 35
40 37 35 35 35 36 37 36 34 32 32 30 28 26 25 25 25 25 25 25 25 24 24 24 25 25 24 23 22 21 20 18 17 15 16 22 25 27 30 32 35 38 40
40 38 37 36 36 37 37 37 37 37 36 34 32 31 29 29 29 29 29 29 28 27 26 26 25 25 23 22 21 20 18 17 17 22 26 27 30 32 35 38 40 43 44
44 42 40 40 40 39 38 38 40 39 39 38 37 35 33 32 32 31 31 30 29 27 26 26 25 23 22 21 19 18 17 19 24 28 29 30 33 37 40 44 46 49 51
50 47 45 43 42 42 41 41 41 42 41 41 39 38 37 36 36 33 34 32 30 28 27 26 24 23 21 19 17 17 19 24 28 31 32 35 39 42 46 50 54 57 59
66 56 50 48 47 47 45 45 45 43 43 43 43 42 41 41 38 38 36 32 30 28 27 25 24 22 20 17 17 20 24 27 32 34 35 39 43 47 52 57 62 66 69
75 69 59 55 52 52 51 50 49 48 48 46 45 46 47 45 41 38 35 32 30 28 27 25 24 21 19 19 21 24 27 30 32 35 38 43 49 53 58 65 70 75 79
85 78 71 64 59 56 54 52 52 52 50 48 49 52 51 47 43 39 35 31 29 28 27 26 24 21 21 23 26 28 30 31 34 37 41 45 52 58 65 71 77 87 90
89 89 81 73 68 62 59 58 55 54 52 50 53 55 53 49 45 39 34 31 29 28 27 26 24 24 26 27 30 32 33 33 33 37 45 52 58 63 69 77 85 88 92
90 93 91 83 73 69 62 61 57 55 55 55 59 57 54 52 48 39 34 31 30 30 29 28 27 28 29 30 33 34 34 36 41 45 49 54 59 65 73 77 80 83 84
92 96 97 89 82 74 65 63 61 57 56 58 62 59 55 54 49 41 38 35 34 33 33 32 32 32 34 35 38 38 38 39 42 47 53 59 64 69 73 76 78 80 81
95 98 98 92 86 77 70 67 63 59 59 65 65 58 55 54 53 47 43 42 41 39 39 37 38 39 39 41 43 40 39 41 48 55 59 60 63 66 67 69 72 74 75
98 99 98 97 90 78 75 70 64 62 63 67 63 57 56 56 58 54 50 50 49 49 47 46 47 47 47 49 49 48 48 51 53 56 57 58 60 63 64 66 68 68 65
99 98 98 98 90 83 76 69 64 63 66 68 62 58 58 61 65 63 60 59 58 57 56 57 56 54 53 54 51 49 49 50 52 54 55 56 58 60 62 64 66 65 63
98 98 98 96 90 80 74 68 65 66 70 68 62 59 64 69 71 69 65 63 62 59 60 60 56 54 54 52 47 45 46 48 51 55 57 58 59 61 63 63 63 60 57

GFSGL_prec_cthk_048.txt.gz
RH
32 30 29 29 28 29 30 29 28 28 28 28 30 32 33 32 31 32 32 31 31 33 34 37 41 46 48 54 61 68 77 87 88 85 82 91 96 96 93 91 97 98 98
35 33 33 33 34 34 33 31 31 34 36 36 35 33 32 30 29 29 30 31 33 38 40 42 46 51 55 58 62 71 79 84 89 94 89 94 98 96 99 97 96 98 99
39 37 37 37 38 39 40 40 40 42 42 39 37 35 34 34 33 32 32 33 35 39 41 45 50 54 56 61 67 73 77 79 93 99 98 93 97 98 98 98 98 98 98
43 41 39 40 41 42 44 44 44 42 40 39 37 37 37 35 34 34 34 38 41 45 47 49 53 56 59 62 70 76 85 82 92 94 93 97 97 98 97 98 98 97 97
45 45 44 44 45 47 48 44 43 43 40 38 40 40 38 36 36 37 40 45 48 51 54 54 60 63 66 69 73 79 84 86 89 93 87 91 90 93 94 95 95 95 93
48 48 47 48 48 48 46 45 43 43 42 43 44 43 42 42 42 46 50 52 54 56 57 61 64 66 70 73 77 82 85 88 93 91 88 89 86 89 89 92 94 90 85
47 47 46 46 46 45 44 44 45 46 47 47 48 48 49 49 49 48 48 49 52 54 52 54 64 67 67 68 65 63 68 77 83 86 84 82 77 67 63 60 50 41 30
48 48 48 47 48 50 50 50 50 50 51 51 50 48 46 41 37 36 36 35 30 27 26 26 28 30 32 31 30 28 25 22 20 19 18 18 18 18 18 17 17 17 16
48 49 48 47 46 46 47 50 52 53 49 46 41 34 30 26 24 21 19 17 15 14 13 13 12 12 12 12 13 13 14 16 18 19 18 20 20 20 19 18 18 19 16
41 43 42 43 45 46 46 46 47 46 36 29 27 25 24 23 21 19 17 15 15 15 15 15 15 16 16 17 16 17 17 18 19 21 22 22 22 20 17 17 17 15 16
38 39 40 40 41 42 43 41 35 31 29 28 28 26 24 22 21 20 19 19 19 19 20 20 20 20 19 20 20 20 20 20 19 18 17 17 16 15 14 14 19 24 27
39 39 40 39 37 37 34 32 33 32 32 31 30 28 26 25 24 24 24 25 25 25 25 24 24 23 23 23 22 21 20 19 17 16 15 15 15 17 21 25 28 30 32
41 39 37 36 33 33 33 32 34 34 35 35 34 33 31 30 29 29 29 29 29 28 27 27 26 26 26 24 22 20 19 17 15 14 15 18 23 26 27 29 31 33 37
42 40 38 36 35 34 33 33 35 36 37 38 38 38 37 35 33 32 33 32 31 32 31 29 28 27 25 23 21 20 19 16 16 18 24 27 28 30 31 32 35 38 42
47 44 43 41 39 38 37 37 37 38 39 39 40 41 41 40 39 38 37 35 34 33 32 30 28 26 24 22 21 19 17 17 20 25 29 31 32 33 35 37 40 44 47
55 50 48 46 44 42 42 41 42 42 41 42 42 42 44 45 44 44 42 39 37 33 31 30 28 25 23 22 20 18 18 20 26 30 35 36 35 36 38 41 45 49 52
68 66 61 53 51 49 48 48 48 49 48 46 45 45 47 47 50 51 45 40 36 33 30 29 28 26 24 23 21 21 22 26 30 34 38 38 37 39 43 47 51 54 59
77 74 71 66 59 55 55 54 52 52 51 50 49 48 48 50 54 53 47 41 37 34 30 29 28 27 26 25 24 25 27 31 34 37 39 38 39 40 43 50 56 60 63
84 83 81 76 70 64 60 58 57 56 55 54 52 50 50 52 56 54 51 45 40 35 31 31 30 30 29 29 29 30 32 35 36 39 37 37 39 45 49 53 57 62 66
92 90 89 86 81 76 69 67 63 61 60 57 54 52 53 56 59 56 53 49 41 36 34 33 34 34 34 34 34 35 37 39 39 41 40 41 43 46 49 53 59 62 66
98 97 98 95 91 86 78 72 70 64 61 60 57 54 55 60 61 57 54 52 44 41 39 39 40 39 39 39 40 40 43 43 43 42 40 40 43 49 57 61 63 64 65
99 99 96 97 95 92 83 80 76 69 64 62 60 56 60 65 64 59 55 56 52 49 47 47 46 45 44 44 45 46 45 44 46 44 44 47 54 57 58 60 63 64 67
92 94 95 94 96 96 90 87 79 72 71 65 61 58 63 66 65 61 58 62 62 58 58 57 55 53 52 52 52 51 49 51 52 50 49 51 53 56 57 59 62 64 67
92 94 95 96 98 98 97 91 82 77 74 65 62 61 65 67 65 65 63 68 72 67 69 66 63 61 61 58 54 53 55 55 52 49 49 50 52 55 57 59 62 63 66
94 95 96 98 98 98 97 90 88 84 74 70 63 63 67 67 67 70 72 75 75 71 71 70 66 64 59 53 51 55 55 51 47 45 46 47 49 52 53 55 58 61 66
98 98 98 98 98 97 97 96 88 81 74 70 63 66 69 69 73 77 82 79 75 72 73 70 66 58 51 48 54 54 51 45 41 43 44 46 48 51 56 61 65 67 66

GFSGL_prec_cthk_051.txt.gz
RH
38 37 36 35 34 34 32 29 28 28 28 28 27 27 29 30 32 34 34 33 33 33 32 33 35 38 40 44 49 51 53 55 59 63 68 72 79 92 84 84 90 96 99
41 41 40 38 35 35 34 33 33 33 32 33 34 35 35 34 33 31 30 29 29 30 33 36 38 41 44 47 51 52 55 58 62 66 68 70 88 91 93 91 97 98 93
39 39 39 38 37 37 37 40 41 40 40 39 40 39 38 35 33 33 33 32 32 32 34 36 39 42 46 50 52 54 57 60 64 66 67 75 82 88 91 91 91 98 97
40 42 42 41 40 41 41 42 43 44 42 41 40 38 37 36 35 35 33 33 35 37 40 43 46 47 49 55 57 57 60 63 66 67 71 77 77 78 86 89 92 94 97
45 46 45 45 45 44 45 46 46 44 43 41 40 39 38 38 36 36 36 37 41 43 45 48 51 55 56 59 59 60 60 61 65 70 74 78 80 82 84 83 86 87 89
48 49 48 48 48 47 47 48 46 44 42 42 41 40 41 42 44 45 45 45 45 46 47 48 49 54 57 58 53 46 43 44 46 51 51 53 58 62 70 70 66 67 76
49 49 48 47 47 48 46 45 42 43 43 43 43 44 48 49 46 42 40 38 36 34 30 28 27 29 32 34 35 34 33 33 35 38 39 41 41 39 37 36 34 30 26
50 49 49 48 47 46 46 46 45 44 45 45 47 49 46 37 30 25 22 19 17 16 15 14 13 13 13 12 13 14 14 15 15 15 15 17 18 18 19 19 18 18 18
51 50 50 50 49 46 46 46 46 47 46 46 41 32 26 24 23 22 19 17 16 16 15 15 15 15 16 15 16 16 17 17 18 19 20 22 22 21 21 18 16 15 14
47 45 46 45 45 46 45 44 44 44 36 27 27 27 26 25 23 21 19 19 19 19 19 20 20 20 20 21 20 21 21 20 20 21 21 21 19 17 16 14 14 15 15
44 43 42 43 44 44 43 42 34 27 26 27 29 29 28 26 25 23 23 23 23 24 25 25 25 24 24 24 24 23 22 21 19 18 17 15 13 13 14 14 15 20 24
46 43 41 39 40 39 35 29 28 27 28 30 32 32 30 30 30 30 29 28 27 27 28 28 28 28 26 26 25 23 21 20 19 17 15 14 14 16 19 23 26 28 29
47 44 41 40 38 33 31 30 29 28 30 33 33 34 35 36 37 36 35 33 33 32 30 31 32 30 28 27 25 23 21 20 19 17 16 18 21 26 29 30 32 32 32
50 45 43 40 39 35 34 33 32 31 33 34 35 36 37 37 38 40 40 40 39 37 35 35 34 31 29 27 24 23 22 20 19 19 22 26 30 32 34 34 35 35 36
53 49 46 44 43 41 39 38 37 36 37 37 37 37 38 40 41 41 43 45 45 42 39 36 33 30 28 27 25 24 22 21 21 22 26 30 35 38 38 39 38 38 39
60 55 51 48 47 45 44 43 43 42 43 43 43 42 42 42 42 42 47 50 51 47 42 38 34 32 29 27 26 25 25 24 25 28 32 37 40 40 39 40 41 41 43
71 67 64 59 53 50 49 48 48 48 48 48 48 47 46 46 46 46 46 50 52 51 45 42 37 33 30 30 29 29 29 29 30 32 36 39 42 39 41 41 41 42 45
79 74 73 70 67 61 55 53 53 53 53 53 51 52 51 49 49 50 51 53 53 53 49 45 40 36 34 33 33 35 34 34 35 37 40 42 41 39 40 41 45 47 49
95 90 85 81 77 73 70 64 61 60 57 56 56 57 57 53 52 52 53 55 55 53 52 48 43 40 39 39 40 40 40 39 39 41 42 42 40 43 43 43 43 46 49
98 97 93 90 87 85 80 77 72 68 67 62 58 59 59 57 56 56 59 60 58 55 55 53 50 47 47 47 47 46 44 43 44 44 42 41 43 45 43 43 46 53 58
96 98 98 98 93 93 91 84 80 78 70 68 66 63 61 60 59 58 61 64 63 59 58 59 57 56 56 55 53 49 49 50 48 43 43 45 50 50 51 53 56 58 59
87 92 95 99 99 98 98 95 90 80 77 75 71 68 65 62 61 62 65 67 67 64 62 64 66 65 65 62 59 57 57 55 48 48 52 56 56 55 53 54 56 58 60
83 86 88 92 95 96 95 96 94 89 87 82 76 72 71 65 62 63 69 69 72 70 71 76 76 73 72 69 67 65 62 52 51 54 54 55 52 48 50 51 53 56 58
83 86 88 90 91 94 94 95 98 97 92 85 81 79 74 69 66 70 69 73 76 80 85 83 78 74 73 70 68 63 53 51 53 52 54 50 43 45 47 47 50 52 56
88 89 90 91 92 93 95 97 98 98 95 90 89 82 75 73 69 67 74 77 81 89 85 81 79 77 74 68 59 51 49 50 50 51 49 41 41 43 47 52 59 63 69
95 95 94 94 96 97 98 98 98 97 97 96 84 81 78 72 70 73 75 81 88 85 84 80 79 74 64 55 52 50 49 50 51 51 45 44 48 52 56 58 60 63 64

GFSGL_prec_cthk_054.txt.gz
RH
46 40 35 35 36 36 36 35 34 33 31 31 28 26 27 28 30 31 33 34 36 37 36 35 34 34 36 37 39 43 49 51 50 50 52 54 53 54 58 64 74 78 88
47 46 43 41 41 41 40 39 38 38 35 32 33 34 35 35 36 35 35 32 31 32 32 32 34 34 38 39 40 44 48 51 52 53 55 54 54 58 62 65 72 80 86
50 48 47 44 45 46 44 41 38 37 38 40 41 41 39 38 37 35 34 35 35 34 34 34 36 38 41 44 43 45 50 53 53 53 55 55 56 60 65 67 71 72 78
46 47 48 49 45 43 42 41 40 40 43 44 42 41 39 37 36 36 37 37 37 38 38 39 41 42 43 46 48 50 55 55 50 47 50 53 54 53 57 60 67 73 76
47 46 45 45 46 45 46 47 46 45 46 44 42 40 38 37 37 37 38 41 45 47 47 46 45 45 47 50 52 53 52 40 37 37 37 39 40 43 45 48 50 50 51
54 53 49 49 49 50 49 49 50 48 47 46 43 40 38 38 38 43 46 47 45 43 42 38 30 29 29 32 32 32 33 31 30 32 33 35 37 40 41 41 41 42 42
55 56 55 50 49 50 50 51 50 47 46 44 42 41 41 42 44 43 39 35 28 22 21 18 16 16 14 13 12 13 16 16 16 16 18 19 20 20 19 18 17 17 16
54 52 51 50 49 50 50 49 47 45 45 45 44 44 44 39 29 24 23 22 19 18 17 16 16 15 15 15 16 17 17 17 17 18 18 19 20 20 19 17 16 15 13
59 54 53 51 50 50 51 50 48 46 46 46 44 35 25 23 24 24 22 21 20 19 19 19 19 19 20 20 21 21 21 21 21 21 21 21 22 22 20 16 15 14 12
58 53 51 50 49 48 48 49 48 46 44 36 25 23 23 24 24 24 23 23 23 23 23 24 25 25 25 25 23 24 24 23 22 22 21 19 18 16 15 14 14 15 16
56 52 49 48 48 47 46 46 45 38 26 25 25 25 25 26 26 27 28 30 30 29 28 27 27 27 27 27 27 27 26 24 23 21 20 18 16 15 16 16 18 21 26
56 52 50 49 47 45 44 41 30 28 27 27 28 29 29 30 30 32 34 36 36 35 34 33 32 30 29 30 30 29 26 24 23 22 20 18 17 18 22 26 29 31 32
58 53 50 49 46 44 39 31 29 29 29 30 32 32 33 33 34 36 36 37 38 40 41 41 37 34 34 33 31 29 27 25 23 22 21 20 22 26 29 32 34 35 36
63 57 51 51 48 42 37 35 34 32 32 33 35 36 35 35 36 38 38 39 40 41 44 47 45 41 38 35 32 30 28 26 25 24 24 25 28 32 35 37 38 40 38
64 59 54 52 50 46 42 40 39 38 38 38 39 39 40 40 41 41 42 42 41 40 44 49 49 46 42 38 36 33 31 30 29 29 30 32 35 38 40 41 42 40 39
75 65 56 53 51 49 47 46 46 45 44 44 44 45 45 46 45 45 46 46 45 45 47 49 50 48 45 42 39 37 35 34 34 35 36 36 38 40 43 45 43 41 42
82 76 67 61 56 52 49 50 50 50 49 49 50 50 50 51 50 50 51 50 49 49 51 52 52 50 48 46 43 41 40 39 41 41 41 40 40 42 44 43 40 41 46
90 85 81 76 71 68 64 60 57 55 54 54 54 55 55 55 55 55 56 54 53 54 56 55 54 54 53 50 48 47 47 47 47 47 45 44 44 45 44 41 43 45 47
95 95 93 89 84 81 78 76 75 72 67 64 63 61 61 60 58 58 58 58 58 59 60 59 57 56 57 56 54 54 55 54 53 51 50 49 48 46 41 43 45 46 47
85 91 96 97 95 90 89 87 83 81 78 75 73 70 69 68 62 60 61 62 63 64 64 64 61 60 60 61 61 60 60 58 57 56 56 53 50 44 47 48 51 53 54
78 81 86 92 96 98 96 94 90 90 87 82 81 76 70 69 67 65 62 63 63 65 67 68 67 65 66 71 72 68 67 65 65 64 62 56 49 52 54 55 54 54 50
75 76 78 81 84 90 95 98 98 98 93 90 89 83 78 77 73 70 68 68 68 68 71 74 76 81 82 79 79 75 74 72 68 64 54 50 53 54 53 52 52 48 49
71 74 77 80 83 85 87 90 95 96 96 97 94 90 84 81 78 75 73 71 70 72 76 78 86 86 83 81 81 77 74 68 57 50 49 50 52 51 50 50 46 45 48
74 76 78 81 83 85 88 90 92 93 95 97 97 97 90 87 82 81 75 75 71 79 80 84 86 86 83 75 72 65 58 53 50 48 49 51 49 51 50 48 49 53 56
81 85 87 88 88 88 90 91 93 94 96 98 98 97 95 91 86 80 83 73 74 79 83 84 78 71 70 64 58 58 55 52 52 51 50 50 50 53 57 54 55 55 56
76 82 92 95 96 96 97 96 97 98 98 97 97 97 97 88 84 87 81 84 85 82 75 65 62 64 60 56 58 59 56 54 52 52 53 53 61 61 55 52 52 53 55

GFSGL_prec_cthk_057.txt.gz
RH
44 46 46 44 42 41 39 36 35 34 33 32 31 30 30 30 29 28 31 33 35 36 37 37 36 36 37 36 37 40 40 40 45 48 48 49 51 51 48 48 51 53 57
44 45 46 45 45 44 44 42 41 40 39 37 36 36 37 35 35 36 36 35 35 34 35 35 33 33 36 38 41 43 42 42 46 50 50 50 51 48 47 47 50 53 58
47 46 46 46 48 48 47 47 44 44 45 42 42 39 39 40 40 38 37 35 36 37 36 36 36 37 39 41 43 43 44 46 48 51 51 44 43 43 38 38 42 45 49
53 50 48 48 48 51 52 50 49 49 46 41 41 41 42 41 39 37 37 37 38 38 39 41 43 45 45 45 46 48 49 51 53 47 33 29 29 31 32 33 36 39 41
55 52 50 52 51 51 50 51 51 47 45 45 44 42 42 40 40 39 37 38 42 45 46 46 44 40 38 36 38 39 40 39 33 29 27 29 31 32 32 33 33 34 35
57 57 57 55 56 52 50 50 50 51 50 49 47 44 43 41 39 39 42 43 40 40 37 31 26 24 22 21 20 18 17 18 20 21 23 24 25 25 25 24 23 21 19
62 62 60 59 59 60 61 61 60 61 56 50 47 45 43 40 41 44 37 29 23 21 19 18 18 17 16 16 15 15 15 15 16 17 18 19 19 19 17 17 16 15 14
62 61 59 58 58 59 58 59 56 54 51 49 47 46 45 43 34 23 19 19 19 19 19 19 19 19 19 19 19 19 20 21 21 21 21 21 20 19 19 18 17 15 13
66 66 63 58 57 57 60 55 53 53 53 51 49 45 35 25 21 20 20 21 21 21 22 24 24 25 24 24 24 24 24 24 24 24 23 22 21 20 18 18 16 14 14
70 70 65 62 63 59 57 55 55 55 53 50 40 27 23 22 21 22 23 24 25 27 29 30 30 29 28 28 26 26 26 26 26 26 24 22 21 19 18 17 16 16 18
73 70 67 63 59 56 55 56 55 52 46 31 26 25 24 24 25 26 28 30 32 33 33 34 35 34 33 32 29 28 28 28 28 27 24 22 21 21 19 19 20 24 27
73 71 68 65 61 60 56 53 57 42 30 28 28 28 27 27 29 30 33 34 35 36 37 38 39 38 37 37 36 34 33 33 31 28 26 25 24 23 24 26 28 30 33
73 70 68 65 62 58 55 54 37 33 32 31 31 31 31 31 33 34 36 36 37 37 38 39 39 39 40 41 42 39 38 37 35 32 31 30 30 31 32 34 35 37 38
76 72 68 66 63 59 54 44 38 37 35 34 34 34 34 36 36 37 39 40 41 42 42 43 44 43 43 44 44 43 41 39 38 36 36 36 36 38 39 40 40 41 42
78 74 70 67 62 57 51 46 45 44 42 40 40 39 40 41 41 43 44 46 46 46 45 47 47 47 47 47 46 44 43 42 42 42 41 41 42 44 44 44 44 44 45
83 78 72 67 63 59 54 53 51 50 48 46 45 46 45 47 48 49 49 50 50 51 51 51 52 52 52 50 49 47 47 46 46 47 47 48 48 49 49 48 47 47 46
91 83 81 76 69 63 58 55 53 53 52 51 50 50 51 52 54 56 55 54 55 57 57 57 58 58 57 54 53 52 52 52 53 54 54 54 54 53 52 52 51 48 45
97 94 88 85 79 77 77 73 69 64 60 58 56 56 57 59 60 60 59 59 59 60 61 62 62 62 61 60 56 56 57 57 57 59 60 59 58 57 56 54 51 45 42
91 93 93 93 90 85 83 81 79 78 78 77 75 71 68 67 66 66 66 64 61 60 62 64 64 65 66 66 62 61 61 64 64 63 64 63 61 59 57 52 45 44 46
76 79 84 87 89 92 93 91 89 86 86 82 82 80 77 76 74 70 69 68 67 66 64 65 68 71 71 72 74 76 75 72 72 71 70 68 65 61 51 47 48 51 53
73 76 78 80 82 84 89 92 96 97 97 92 91 88 85 84 82 79 74 72 71 69 68 70 73 74 80 83 83 82 82 81 79 74 66 58 53 50 49 49 51 53 52
69 72 73 74 76 78 80 82 84 90 94 97 98 97 94 91 93 84 80 78 75 71 73 74 73 81 84 86 85 84 82 75 66 57 53 51 49 47 47 49 51 51 51
65 66 67 68 71 74 76 80 82 85 87 90 93 94 95 97 96 88 86 83 76 77 79 77 84 84 86 86 85 74 66 64 58 53 52 50 49 48 48 50 50 51 57
69 71 71 74 76 78 80 81 83 85 87 89 92 94 95 96 97 95 94 82 83 84 84 75 83 84 86 77 65 63 60 58 55 54 52 53 51 49 49 51 55 64 62
71 70 70 72 74 82 85 88 91 92 91 92 93 94 95 97 97 97 91 89 88 90 76 80 86 79 67 62 60 59 56 53 53 55 52 52 47 47 53 60 64 64 57
55 57 58 63 71 75 83 90 95 98 97 97 98 97 97 97 97 97 93 92 96 88 91 79 68 63 61 59 60 57 54 57 57 54 51 48 48 54 61 63 64 54 51

GFSGL_prec_cthk_060.txt.gz
RH
53 51 48 45 45 45 45 45 44 43 41 39 35 33 32 32 31 30 30 32 34 34 39 40 40 39 39 39 39 38 39 42 44 47 47 48 50 48 51 52 47 44 44
52 48 46 45 45 45 45 44 44 46 45 43 42 38 36 37 37 37 37 35 35 35 36 34 34 36 35 35 37 39 41 44 45 46 46 48 51 50 50 45 37 37 40
50 50 49 47 46 45 45 45 45 48 48 48 48 45 43 44 44 43 39 39 37 35 35 35 34 35 35 36 38 41 43 45 46 47 50 52 42 33 30 32 32 33 37
48 49 49 50 48 47 48 48 47 49 51 52 52 50 49 47 44 40 39 37 37 36 36 37 37 38 40 41 42 45 45 46 48 48 43 35 30 29 29 30 31 32 32
54 55 55 54 52 50 48 51 53 51 52 53 54 54 50 45 43 40 39 38 38 40 42 41 39 36 30 29 28 28 29 27 27 28 27 26 26 27 29 28 28 28 27
59 60 57 56 56 57 57 56 58 57 53 53 54 51 50 47 44 42 41 42 44 42 36 29 22 19 18 17 17 18 17 17 19 20 21 24 24 24 22 21 19 18 20
63 61 58 60 62 59 59 60 60 62 64 63 61 57 56 51 48 44 44 44 33 23 18 17 16 17 17 17 17 17 17 17 18 19 20 22 22 21 21 21 20 19 19
66 64 63 63 63 64 63 62 63 68 70 68 65 60 55 50 49 45 31 22 18 17 18 18 19 20 21 22 23 23 22 22 22 22 23 23 23 23 23 22 21 19 18
72 70 67 67 66 64 62 61 66 70 70 63 56 55 55 48 35 26 21 19 19 21 22 23 24 25 25 26 26 27 27 26 25 24 24 24 25 24 23 22 21 20 20
72 72 75 71 69 68 67 66 64 66 65 65 62 54 42 31 26 22 22 23 25 26 27 28 30 31 31 32 33 32 30 29 29 28 28 28 27 27 24 23 22 21 22
68 68 73 72 74 73 71 70 70 67 66 61 53 36 30 26 25 25 26 29 30 30 31 32 34 34 35 36 35 34 33 32 34 35 34 32 30 29 28 28 29 30 29
71 70 74 74 76 73 69 67 67 65 62 49 36 34 31 30 30 30 32 33 33 32 33 34 35 36 38 38 38 37 35 35 36 37 36 36 34 33 34 36 36 37 37
75 88 81 76 76 75 73 69 67 62 46 41 39 35 34 33 34 34 35 36 35 35 36 37 39 40 42 42 41 40 41 40 38 38 37 38 38 40 42 42 42 44 45
84 79 78 76 75 75 72 68 64 50 43 40 39 38 38 37 37 38 38 39 39 40 41 42 44 44 44 44 45 45 45 44 42 41 40 41 42 44 47 47 48 50 50
89 87 82 79 76 75 71 68 59 50 47 46 44 43 44 43 43 43 43 44 45 46 47 48 49 50 50 48 48 49 49 47 46 45 45 46 48 49 51 52 52 53 54
95 89 83 81 76 73 70 66 57 54 52 52 51 50 49 50 49 49 49 49 51 51 52 53 54 56 56 54 53 54 53 52 51 51 52 53 53 54 56 56 56 56 56
97 96 93 82 77 74 70 66 60 58 56 54 53 54 55 55 53 53 54 54 55 57 58 58 59 60 59 58 58 59 60 58 58 58 57 57 57 59 60 60 58 58 55
98 98 98 94 83 78 73 68 64 63 62 60 61 61 61 60 60 60 60 62 63 62 63 62 61 61 61 62 63 67 67 65 65 64 65 66 64 63 64 62 57 48 42
84 94 97 98 96 91 87 88 90 88 85 83 78 75 73 72 72 72 69 68 68 68 67 66 64 64 64 66 69 72 74 76 75 74 71 70 69 66 60 51 47 45 43
75 79 80 84 87 89 89 88 85 85 87 87 86 90 93 89 86 81 79 79 76 72 71 70 70 69 67 69 74 80 82 81 82 81 80 76 65 57 53 51 50 49 48
69 73 76 78 79 80 80 82 86 89 91 93 95 97 91 89 91 87 86 86 87 79 77 73 73 70 73 77 79 86 87 87 85 84 73 66 61 54 49 48 48 49 49
68 70 73 72 74 74 75 75 76 78 79 81 84 87 89 92 96 94 95 96 95 84 85 77 73 74 79 79 83 87 89 88 83 68 62 61 58 52 51 51 50 49 48
62 64 66 66 67 68 68 69 69 70 72 74 77 81 84 85 89 92 94 95 93 91 88 78 80 84 83 84 87 88 87 75 66 65 61 61 59 54 54 53 52 49 49
66 66 69 70 71 73 75 74 75 76 78 81 83 84 85 85 88 91 94 95 95 96 86 86 92 92 78 82 88 84 68 65 65 60 58 59 58 58 55 55 52 51 58
73 73 75 73 71 69 68 66 69 75 80 85 90 93 94 94 93 94 94 95 97 96 93 94 91 83 90 89 73 65 64 62 60 56 56 59 60 58 55 51 54 61 66
56 53 51 53 53 54 55 59 63 61 69 78 82 88 96 98 98 97 97 97 97 97 96 96 94 93 81 69 62 60 58 60 59 57 61 61 58 54 53 56 62 66 67

GFSGL_prec_cthk_063.txt.gz
RH
65 66 65 63 62 59 55 52 48 46 46 46 45 45 44 42 40 35 33 34 35 38 40 41 43 42 41 44 44 42 42 40 39 39 43 45 46 45 46 45 47 47 43
58 57 59 60 58 54 50 46 46 46 46 46 46 46 47 47 45 42 41 37 39 41 43 43 39 38 36 35 36 35 37 37 39 41 41 44 45 47 40 40 39 32 28
54 57 56 54 52 51 50 48 47 46 46 46 47 47 48 49 50 51 49 47 48 47 45 39 36 36 36 35 36 36 37 39 43 45 46 47 48 40 34 28 26 27 28
49 49 48 47 49 49 47 46 46 47 48 49 50 50 50 50 51 50 52 51 49 45 40 38 39 38 39 40 39 39 38 36 36 38 39 35 30 26 26 26 27 29 30
44 46 47 47 49 49 49 50 51 51 49 50 51 52 52 52 51 51 51 51 47 41 39 41 45 46 40 34 28 25 26 26 26 26 28 27 24 24 24 25 26 25 25
51 53 52 52 53 51 52 51 52 55 58 58 58 58 56 55 53 51 50 46 43 42 47 49 41 24 19 17 16 18 18 18 18 20 22 27 27 25 25 22 21 19 22
56 55 56 57 55 56 55 56 58 60 61 61 63 64 66 63 58 53 49 46 48 53 40 26 17 17 17 18 18 18 19 20 20 20 21 23 25 23 23 22 23 22 23
58 57 57 60 60 59 60 59 60 61 63 67 66 69 70 67 63 60 57 55 46 33 24 19 18 20 22 22 23 24 24 24 25 24 24 24 24 24 24 24 24 24 23
65 64 66 67 67 69 68 66 64 63 66 69 71 72 69 65 62 56 44 34 28 25 23 22 24 26 26 27 27 29 31 31 29 28 27 26 26 27 27 26 26 26 25
72 69 69 69 69 71 73 70 69 69 70 69 69 70 68 65 57 45 37 31 26 25 26 28 30 30 30 31 32 33 34 34 31 29 29 29 29 31 31 31 30 29 29
77 76 75 73 69 68 70 71 73 72 71 70 68 68 63 54 42 34 29 28 29 30 32 34 34 32 33 33 34 35 36 35 34 33 32 32 33 33 33 34 34 35 36
75 73 75 75 69 69 74 78 77 77 74 75 72 67 47 36 33 32 34 34 33 35 36 36 34 34 35 36 37 38 37 37 37 36 36 35 35 36 35 37 38 40 43
73 69 73 73 74 74 78 79 80 73 70 69 63 44 39 42 41 38 37 37 38 38 38 38 37 38 39 40 41 41 41 41 41 40 39 38 38 39 40 41 43 46 48
71 70 74 79 87 88 79 80 80 80 73 66 48 43 46 43 42 41 41 41 40 41 41 41 42 43 43 46 48 46 47 47 47 46 44 44 44 44 45 47 49 51 53
80 81 82 84 86 81 84 80 82 76 69 54 46 45 45 45 45 45 45 44 44 45 46 47 47 47 49 52 53 53 54 53 52 51 51 52 52 51 51 52 53 53 54
97 95 89 91 96 92 86 86 81 75 63 54 52 51 51 50 51 51 51 51 50 50 50 51 53 54 55 57 57 57 56 56 55 57 58 58 57 57 57 56 55 56 57
97 97 96 96 97 92 83 78 78 73 65 61 58 57 56 56 56 56 56 56 56 57 58 57 59 62 61 61 59 58 58 59 61 63 64 64 64 63 63 63 61 60 57
83 88 98 98 98 98 90 78 72 69 64 61 61 61 60 60 58 58 60 62 61 60 63 68 68 66 66 64 62 62 61 63 65 71 74 73 72 71 70 68 65 55 48
76 80 83 92 96 98 96 91 82 80 77 75 76 76 75 73 74 75 73 71 72 76 76 73 70 69 69 68 68 67 65 67 74 80 81 80 80 79 78 74 60 54 51
71 74 78 80 86 94 98 97 94 90 91 97 97 98 96 92 88 85 86 86 86 83 79 79 75 71 71 72 72 71 72 75 83 85 85 85 85 84 77 63 60 57 53
68 70 73 76 78 80 81 82 83 83 84 84 84 84 84 86 88 93 96 97 97 91 93 96 91 80 81 74 76 76 79 83 86 90 90 88 86 71 63 64 60 56 50
70 70 71 72 75 76 77 77 77 77 78 77 78 78 77 77 80 82 83 83 88 88 89 94 93 87 91 79 83 82 85 88 92 92 90 83 72 69 65 62 58 54 51
73 74 73 72 71 72 71 69 69 69 69 71 72 73 75 76 78 79 81 84 84 86 89 92 88 95 88 84 86 91 88 88 91 91 78 72 69 65 61 61 60 58 55
74 71 69 68 68 69 70 71 73 76 77 74 74 77 80 82 86 89 92 95 95 94 93 94 94 96 91 93 97 85 85 94 90 77 69 67 65 61 60 64 65 60 56
73 73 73 73 75 76 78 79 79 75 68 63 66 65 69 76 78 81 85 92 96 97 98 97 97 97 96 96 89 95 93 87 72 67 62 63 63 65 68 68 63 56 56
70 73 74 74 72 67 60 55 53 53 53 55 59 60 66 73 78 80 81 83 88 96 97 97 97 97 97 97 95 89 78 66 62 60 65 68 68 68 68 63 57 56 62

GFSGL_prec_cthk_066.txt.gz
RH
65 65 69 73 75 75 72 69 68 63 61 55 51 49 46 46 46 45 45 45 44 42 42 42 41 44 47 50 50 48 47 47 45 44 42 40 39 40 42 43 44 43 44
48 56 63 68 67 65 65 66 65 65 57 54 50 48 47 46 46 45 45 47 48 46 47 48 47 48 49 47 42 40 40 39 40 39 40 39 40 43 44 46 33 29 28
41 47 50 56 65 66 63 63 60 51 50 47 47 47 47 47 47 47 47 48 48 50 51 51 51 51 46 42 37 38 38 38 38 39 41 43 43 43 41 33 26 23 24
40 41 44 48 53 55 55 51 52 51 50 50 50 49 48 48 49 49 48 50 52 54 53 52 49 47 44 41 41 41 41 38 34 32 31 34 31 27 25 23 23 25 25
46 47 48 46 46 46 47 50 48 47 49 50 51 53 52 53 53 52 51 52 52 54 54 54 50 44 44 47 45 37 30 26 25 26 24 25 23 20 20 21 23 23 22
53 51 50 50 52 51 51 51 49 48 50 52 54 52 53 56 59 59 58 58 53 52 50 49 48 52 48 33 24 20 19 19 20 22 22 21 23 23 21 21 21 20 21
56 55 55 55 53 54 55 54 53 53 54 56 57 58 60 63 64 64 63 64 62 56 51 51 48 37 26 23 22 19 20 20 21 22 23 24 25 23 23 22 22 22 22
58 58 56 56 55 57 57 59 61 62 62 60 60 62 65 68 69 67 67 66 64 62 53 45 38 32 27 24 25 25 24 25 26 28 28 27 26 25 25 23 24 24 26
63 63 64 66 64 64 64 64 65 66 65 65 67 68 70 72 73 72 70 63 56 46 41 37 32 29 27 28 29 29 28 30 32 32 30 28 27 26 26 27 27 27 28
67 67 70 70 69 68 68 68 68 67 69 73 71 72 75 75 75 70 61 53 45 42 40 35 33 31 31 33 33 33 32 33 34 35 32 32 31 30 29 29 29 30 31
71 70 70 71 71 71 72 73 70 67 70 76 75 76 74 72 65 60 53 51 47 42 37 35 34 35 36 36 35 33 35 37 39 36 35 35 35 33 32 32 33 35 36
71 71 71 72 73 70 74 76 70 67 74 83 81 81 81 69 62 49 44 40 37 36 38 39 40 40 39 37 36 36 39 42 42 42 42 41 40 38 37 37 38 40 41
70 72 73 74 73 68 72 75 75 77 81 85 77 77 76 61 49 41 37 37 39 42 43 44 43 41 40 40 40 42 45 47 48 48 48 47 47 45 44 43 44 46 47
67 68 69 70 70 72 79 83 80 86 85 87 76 73 58 44 41 42 48 46 45 45 46 47 46 46 46 46 47 49 50 52 53 54 54 54 53 51 50 51 50 51 51
75 76 76 77 78 75 76 84 88 81 87 86 86 71 55 48 49 52 47 46 46 47 47 48 49 51 53 55 56 55 56 59 60 58 57 56 57 57 55 55 55 57 57
96 96 93 93 95 94 87 87 87 88 86 86 79 62 52 48 48 47 48 50 51 51 51 53 55 57 58 60 60 61 63 62 61 59 58 59 61 62 63 63 62 62 63
87 86 88 94 97 96 91 90 95 95 87 83 74 63 58 53 53 56 57 57 59 60 61 62 62 63 62 65 70 67 65 64 62 61 61 63 68 71 70 70 69 68 68
80 78 77 83 87 95 97 97 98 92 84 83 77 70 66 62 62 61 61 61 61 62 64 70 68 65 71 75 71 70 69 67 66 66 66 70 76 78 76 75 74 73 74
78 76 77 78 79 83 91 95 97 92 85 77 70 66 67 70 71 70 71 72 75 78 77 73 72 78 81 79 76 72 70 69 70 71 72 78 83 84 83 83 82 80 80
76 78 75 75 75 78 84 91 95 96 95 90 87 84 82 85 86 86 85 85 86 85 86 88 90 92 89 85 79 77 77 75 78 78 80 87 89 90 88 86 85 80 68
78 78 75 72 73 74 76 80 84 89 94 95 92 89 88 86 86 84 85 84 83 82 84 86 89 87 93 96 93 94 90 81 90 83 91 92 95 93 89 88 84 72 65
80 80 77 73 73 72 74 75 78 78 78 79 79 78 77 74 72 70 69 69 71 74 78 75 79 82 82 88 87 92 85 94 92 96 95 96 96 93 89 84 73 65 62
80 84 80 76 76 76 76 75 76 76 74 72 70 68 68 71 73 74 76 78 80 84 85 86 90 93 95 97 94 94 91 94 97 96 94 97 95 91 84 72 65 61 63
85 87 82 80 80 79 77 74 72 70 68 68 70 74 74 71 69 66 68 72 76 78 80 82 86 88 92 96 97 96 95 97 94 95 97 95 91 82 67 64 65 69 71
95 91 86 82 80 77 75 73 73 73 75 77 77 71 61 55 58 61 62 67 74 78 80 81 82 85 90 97 97 97 97 97 97 97 93 88 71 63 66 70 72 72 68
92 95 90 86 82 80 81 81 80 76 68 60 55 50 49 51 54 55 58 63 67 71 77 81 87 94 97 97 97 97 97 97 92 79 69 63 65 72 74 73 71 69 65

GFSGL_prec_cthk_069.txt.gz
RH
67 74 76 77 80 77 73 72 75 77 73 72 71 69 67 63 54 51 48 47 45 44 43 43 48 48 45 48 53 53 61 62 59 58 55 50 42 41 40 38 39 41 40
38 47 58 65 69 69 68 73 74 74 72 68 67 67 61 53 50 51 50 48 47 46 44 44 48 49 49 50 52 52 52 52 52 48 44 42 39 43 41 41 41 42 29
32 35 40 42 45 50 59 66 67 70 70 68 62 58 56 55 53 52 52 50 50 50 49 48 50 51 51 51 51 48 44 47 44 42 44 41 41 42 41 38 33 28 24
36 36 38 41 42 44 46 49 52 54 54 55 51 50 51 50 52 54 55 55 55 54 55 54 53 52 53 51 49 47 47 46 45 44 38 35 34 34 31 28 25 25 26
41 43 45 46 48 47 47 48 48 48 48 46 47 47 47 49 50 53 55 56 56 58 57 56 56 55 52 49 46 48 49 48 41 31 30 29 25 23 21 23 24 24 24
53 53 53 53 52 51 51 51 52 52 50 50 51 50 49 51 53 56 57 57 59 63 64 62 60 55 50 50 52 46 39 31 26 26 27 24 23 24 25 23 22 22 21
56 57 56 56 58 58 57 54 54 53 53 55 55 56 55 55 57 58 60 64 66 68 68 68 66 62 52 41 32 28 24 24 25 24 27 26 26 27 28 26 23 23 22
54 56 56 58 60 59 57 57 58 56 59 62 62 62 60 61 63 64 67 69 71 72 71 68 63 52 41 39 36 32 31 27 30 30 29 30 31 30 29 28 25 24 25
54 58 61 62 64 64 64 64 65 66 65 64 62 61 63 66 68 72 73 75 76 75 70 56 43 41 40 41 37 34 30 34 34 33 33 33 33 32 31 30 29 28 28
56 60 65 69 69 71 72 70 69 69 70 69 67 67 68 71 74 74 74 75 71 63 52 47 43 43 45 41 38 35 35 38 36 35 34 36 36 36 36 35 34 32 31
63 65 68 73 74 74 76 74 71 70 72 72 71 68 70 78 83 77 68 66 57 51 52 49 47 45 43 42 39 40 41 39 38 37 39 40 40 44 42 40 38 37 37
62 65 68 73 75 78 77 73 73 72 71 74 74 75 77 82 79 74 67 57 51 51 50 48 46 43 42 42 44 44 42 40 41 43 44 45 50 50 48 47 44 43 44
63 65 70 74 78 77 76 76 76 75 77 80 78 80 83 81 75 68 62 53 47 43 42 42 48 50 49 49 47 45 44 46 49 50 51 52 55 56 55 52 50 49 49
69 70 71 72 72 73 73 73 75 80 82 83 84 86 87 81 69 55 48 46 47 49 44 48 49 50 50 50 49 49 50 53 55 57 58 59 61 61 58 56 54 53 53
78 81 82 80 81 82 80 82 82 80 81 88 89 89 87 76 51 46 45 46 49 52 52 51 51 52 51 51 52 54 56 60 59 59 63 67 62 61 59 61 59 59 60
85 83 87 96 97 97 97 96 96 98 85 88 86 87 87 73 60 56 54 54 54 52 51 54 56 55 56 57 60 65 66 64 68 72 69 65 63 64 65 66 67 67 68
89 91 91 90 91 90 94 98 98 98 93 91 92 91 85 65 55 53 53 53 52 53 55 58 61 65 69 71 75 72 70 79 80 73 71 67 66 67 72 75 74 73 73
83 90 88 85 84 81 85 92 97 98 98 96 96 87 76 66 62 62 62 60 61 65 64 65 63 61 65 75 72 68 77 83 79 75 71 70 70 73 79 80 80 80 79
74 77 84 84 84 85 83 84 87 95 96 98 95 90 83 76 72 71 70 71 70 70 70 73 81 85 81 78 78 87 90 85 81 81 77 73 75 79 86 88 91 90 88
68 70 82 84 83 84 82 83 87 91 94 94 93 87 83 73 69 71 76 81 83 85 86 86 84 84 86 86 91 92 89 86 87 90 84 82 89 87 91 96 95 93 90
71 69 75 80 81 82 83 81 81 84 89 93 96 98 97 94 89 86 86 88 88 85 83 81 78 75 74 75 72 77 82 82 82 85 82 92 89 95 97 97 96 93 92
70 76 73 77 78 81 82 80 79 78 81 84 87 88 87 87 86 84 81 77 73 69 70 73 75 79 81 82 83 85 86 87 90 89 95 94 95 97 97 97 95 94 94
74 77 76 80 79 80 83 80 80 81 81 80 80 80 80 79 77 73 71 72 73 74 74 72 73 75 78 80 82 84 85 87 91 91 96 97 97 97 97 97 96 94 94
72 81 78 81 83 80 85 84 82 83 84 84 81 77 73 72 71 74 73 69 65 63 63 67 71 73 74 76 79 82 84 88 94 97 97 97 97 97 97 97 93 81 71
82 82 87 90 88 83 86 86 84 84 84 80 77 76 74 77 78 71 62 55 57 57 59 63 66 68 71 76 81 85 91 95 97 97 97 97 97 93 83 76 71 71 75
92 97 98 97 96 90 90 86 84 82 80 78 78 79 74 66 58 50 50 51 54 57 62 64 66 68 73 76 81 88 91 93 95 94 89 78 72 74 74 75 78 76 74

GFSGL_prec_cthk_072.txt.gz
RH
37 45 55 59 64 71 77 79 82 84 82 74 76 77 76 72 70 68 66 62 55 53 50 49 49 48 50 50 49 53 57 59 60 62 64 67 68 63 55 47 40 40 40
30 34 39 47 56 65 73 78 81 80 76 73 76 78 78 73 69 66 63 59 56 53 54 53 52 51 53 53 52 53 58 60 65 62 62 61 60 56 45 43 42 42 43
28 30 32 35 40 46 51 52 52 51 55 63 70 73 68 66 62 57 52 53 55 56 56 58 57 56 56 57 56 57 56 57 57 57 58 57 54 48 45 44 42 39 33
33 34 35 36 37 39 41 43 45 46 48 50 52 54 54 55 50 48 48 49 50 51 54 54 56 56 57 58 58 59 57 54 53 55 56 56 52 43 37 34 31 27 25
39 38 38 38 39 40 43 45 47 47 49 49 49 48 45 45 45 44 45 46 49 52 54 57 59 60 61 60 59 57 54 50 50 54 57 52 42 33 27 26 27 26 27
43 45 47 50 50 51 52 52 52 53 53 52 52 50 50 50 49 48 49 48 51 54 55 59 61 61 62 65 62 59 56 57 57 48 39 36 31 27 25 28 25 24 24
49 50 53 55 56 57 56 56 57 56 57 57 55 53 52 52 53 53 53 56 58 60 61 64 66 66 66 64 60 56 44 35 32 31 30 29 32 30 34 28 28 29 27
50 53 55 56 57 56 58 59 57 56 56 55 55 55 57 58 57 56 58 60 62 66 69 71 71 71 67 59 48 41 39 37 34 31 35 35 35 37 34 33 33 32 29
52 55 57 55 58 60 61 61 61 61 61 61 63 65 65 64 62 62 64 67 68 71 75 77 75 66 58 49 43 40 42 50 46 41 35 40 41 36 35 36 35 34 32
51 57 60 60 60 65 67 68 68 70 69 70 70 69 67 67 70 72 75 75 76 78 79 71 61 55 50 46 44 46 52 43 42 39 41 45 40 38 38 39 38 38 39
55 57 59 62 64 70 72 73 74 76 74 74 73 69 68 72 73 73 74 76 77 74 62 55 53 51 51 50 52 51 48 47 42 45 47 44 43 43 44 45 45 47 45
60 62 63 66 69 73 76 78 77 78 78 77 72 72 73 75 79 81 79 69 70 63 55 52 61 61 57 52 52 51 47 46 49 48 46 45 48 49 50 51 53 55 54
66 66 67 67 70 72 75 78 77 77 77 76 76 79 77 81 81 84 77 70 64 61 55 54 53 49 46 47 47 48 50 52 50 48 48 50 52 54 56 57 58 60 58
67 70 71 74 76 77 78 79 76 76 77 76 78 79 84 87 90 91 75 68 59 54 48 47 46 46 48 52 52 53 52 51 49 49 51 54 58 62 61 65 64 62 59
75 76 78 80 81 82 81 79 80 81 79 82 82 83 84 93 95 89 69 54 49 46 50 54 58 55 55 55 55 56 55 55 55 56 60 66 69 72 75 67 64 64 63
79 83 82 82 83 85 86 97 95 96 98 97 96 97 91 96 96 85 60 49 48 49 52 61 59 58 54 55 56 58 59 62 67 75 78 78 76 77 74 70 66 68 71
79 81 90 89 90 93 94 92 91 92 94 97 98 96 95 96 95 85 67 60 63 62 62 58 53 53 53 58 63 66 71 80 82 77 81 84 83 80 74 71 72 76 78
76 78 82 83 91 92 90 88 83 83 91 94 98 97 97 96 97 82 63 59 55 54 55 55 58 65 71 71 68 64 68 75 74 73 80 82 81 79 77 75 78 80 84
68 76 76 73 76 84 88 85 87 84 84 90 96 97 98 98 95 76 68 66 66 70 69 71 71 69 69 74 80 83 81 77 83 89 84 82 84 84 79 76 86 89 91
69 68 69 69 72 69 75 84 85 86 85 90 91 94 97 97 94 85 76 72 67 68 74 81 85 88 90 87 83 79 76 77 79 77 71 74 77 75 73 79 89 92 95
71 74 71 71 71 69 72 79 81 84 83 85 92 91 92 92 90 88 86 81 81 88 92 92 89 85 81 75 72 74 79 81 81 83 82 82 86 83 86 88 93 97 97
55 64 71 72 72 71 71 78 78 80 83 83 86 89 88 90 94 95 97 96 94 91 88 83 75 73 75 75 72 73 76 78 79 81 83 85 81 85 90 92 97 97 97
57 56 64 75 74 72 74 73 76 76 82 83 83 85 83 83 85 86 85 84 83 79 76 73 73 71 68 68 71 73 73 73 73 76 80 84 85 92 96 97 97 97 97
64 60 62 69 78 79 81 77 80 77 81 84 84 83 85 84 82 82 81 77 75 76 73 68 63 60 61 62 65 67 70 75 79 84 88 94 97 97 97 97 97 97 97
64 65 66 70 77 80 83 79 80 81 82 85 86 85 84 85 85 83 79 77 77 73 63 55 54 55 58 63 66 68 71 73 77 81 87 92 94 94 92 91 88 82 80
63 65 70 76 85 85 85 82 86 86 84 86 86 84 84 84 81 78 77 71 61 53 49 51 55 60 62 62 62 62 64 66 68 70 73 76 79 81 78 76 77 77 78

GFSGL_prec_cthk_075.txt.gz
RH
38 38 42 45 51 57 60 63 68 73 74 77 80 83 83 83 75 75 73 73 72 69 64 59 56 55 56 58 58 58 56 59 61 58 62 66 66 74 73 69 67 59 50
26 30 33 34 37 44 48 52 57 65 76 78 78 78 76 73 72 75 77 75 70 64 61 57 60 61 61 62 61 60 60 62 63 67 66 68 72 68 68 64 62 56 50
27 29 30 31 32 34 39 44 48 51 53 57 57 56 52 51 56 62 61 57 57 56 52 53 52 54 56 58 60 61 64 64 62 63 63 67 63 62 61 65 59 56 50
30 30 31 31 32 34 36 38 41 44 45 45 44 44 45 47 47 47 46 45 46 47 47 48 50 51 53 55 57 60 62 64 65 63 60 59 58 58 58 61 53 43 35
34 35 36 36 36 37 38 39 40 41 43 43 45 46 47 48 47 46 45 44 44 46 46 49 50 53 56 56 59 62 64 64 66 64 60 58 56 59 61 46 35 37 35
38 41 42 43 42 40 40 41 43 45 47 50 51 52 51 51 51 51 50 50 49 51 53 54 56 57 60 59 61 62 63 63 67 66 63 65 62 49 38 32 35 35 31
42 43 45 46 46 47 49 50 52 53 54 55 52 52 52 52 53 53 53 53 52 54 57 60 62 63 64 67 67 65 63 63 63 60 53 45 38 37 39 36 34 33 35
43 43 46 48 51 53 54 55 55 56 55 53 53 53 52 52 54 55 57 58 59 62 63 65 66 68 70 71 67 61 55 48 44 40 38 41 40 38 38 38 38 40 38
45 45 47 51 53 55 56 55 57 58 57 56 56 56 56 57 59 61 62 62 64 67 70 72 73 75 74 68 61 54 50 48 46 42 42 42 40 42 39 44 43 40 38
47 49 48 52 54 57 59 59 61 63 62 62 63 63 64 65 65 65 63 64 67 71 75 79 79 74 61 56 54 53 52 51 49 51 54 50 47 41 47 46 43 43 42
47 52 54 55 58 60 63 62 62 66 67 67 67 69 70 70 69 69 67 68 72 74 74 69 63 59 54 50 53 51 51 56 60 54 52 50 45 48 49 46 47 49 49
49 53 57 58 59 61 64 64 65 68 73 73 73 74 74 74 76 73 73 71 71 70 65 59 57 52 53 63 60 59 58 57 58 52 50 51 54 51 48 49 52 53 53
53 54 59 63 65 67 68 68 68 70 74 76 75 74 75 76 78 77 76 76 73 71 64 60 56 52 65 65 57 55 54 52 53 53 54 56 54 51 51 53 57 58 59
62 61 62 64 69 71 71 71 75 76 75 77 76 76 77 80 78 79 80 84 78 69 64 57 52 52 51 54 55 54 56 56 56 57 55 54 53 54 57 63 70 76 77
69 73 72 72 73 75 78 79 80 81 81 77 76 78 78 77 80 81 82 90 80 65 60 54 49 48 52 50 50 51 55 57 59 60 61 62 63 64 68 74 75 76 69
70 73 81 79 80 81 82 84 86 87 86 90 93 93 96 94 94 96 94 95 79 63 54 47 46 50 54 56 57 65 61 58 60 62 64 69 75 82 84 82 84 83 77
76 75 79 85 86 87 89 89 89 92 93 93 92 89 92 94 95 98 98 97 74 58 53 49 47 51 60 61 66 56 56 61 68 74 81 81 82 80 79 83 82 78 74
78 73 81 80 89 89 89 94 93 94 94 92 89 86 90 93 96 97 97 96 78 66 62 65 63 61 59 57 57 64 71 73 71 70 72 78 80 80 82 79 75 76 75
80 78 79 80 87 85 84 86 89 95 96 89 86 84 88 92 95 97 97 96 85 67 60 55 54 57 60 66 72 71 71 75 79 81 76 76 81 73 70 69 71 69 67
78 86 81 79 79 85 90 83 78 79 85 88 87 88 92 90 92 96 97 97 87 73 65 70 74 74 76 77 75 78 88 84 75 70 70 77 76 72 75 76 77 76 74
50 65 84 85 82 78 75 76 75 76 74 77 85 88 87 90 92 92 95 90 82 84 80 75 73 77 93 93 89 84 75 72 73 76 75 75 75 74 75 79 83 84 86
53 50 56 71 82 83 82 77 77 77 75 77 81 83 85 84 87 89 88 87 85 88 91 91 92 94 91 85 79 75 77 73 72 72 71 71 72 73 76 80 82 86 90
57 57 55 55 60 68 76 79 77 77 74 79 81 80 82 82 84 88 88 88 88 88 89 88 87 85 81 79 74 70 65 65 65 66 69 72 73 75 80 84 89 95 97
65 63 61 58 59 60 61 68 75 78 79 78 81 79 81 84 84 83 84 85 84 83 83 81 78 78 78 70 64 60 59 63 66 69 68 68 71 74 77 80 83 87 90
69 66 66 64 64 63 62 63 67 74 81 83 80 81 82 85 85 85 85 84 85 84 81 80 82 79 68 58 56 58 63 65 65 65 65 67 70 73 75 77 79 80 82
70 65 63 66 66 69 66 64 66 73 83 86 85 83 83 86 87 89 89 87 86 85 85 80 69 60 52 55 60 64 63 60 59 60 61 62 65 70 72 73 73 71 71

GFSGL_prec_cthk_078.txt.gz
RH
46 47 48 48 46 44 46 50 54 60 69 68 69 72 73 75 77 78 79 78 74 74 75 72 71 66 62 60 60 63 64 66 69 65 64 67 65 67 72 70 75 74 74
34 33 33 35 37 37 39 40 42 48 54 55 60 62 69 71 72 71 68 66 63 61 62 61 60 60 57 56 56 60 61 62 67 67 71 72 72 70 74 73 69 72 68
30 28 28 29 30 32 34 35 35 42 47 48 50 54 55 55 55 51 47 45 47 48 49 48 47 46 47 50 52 54 56 59 63 63 65 68 71 73 72 74 66 65 62
31 30 29 30 30 31 31 31 33 36 39 44 45 46 47 47 44 42 42 43 43 42 41 41 42 43 46 49 50 52 54 57 60 61 64 66 68 69 66 62 61 59 60
34 33 33 32 35 35 35 36 37 37 39 41 42 43 43 42 43 43 44 45 44 44 45 47 49 50 51 53 54 55 58 60 61 62 64 65 66 69 65 64 65 61 45
37 39 39 39 39 38 40 42 42 42 43 44 42 43 44 45 45 45 44 44 46 46 47 51 52 53 55 56 58 61 63 64 65 68 68 67 66 67 69 71 56 41 39
44 43 44 43 43 44 46 46 48 47 47 48 48 49 49 48 47 47 45 46 46 49 51 53 55 58 59 61 63 64 62 65 67 70 71 70 67 63 54 47 40 39 46
43 43 46 48 49 48 50 51 52 52 53 54 53 52 50 50 49 48 48 48 51 52 54 56 59 60 64 66 68 66 61 58 56 53 50 49 45 48 49 45 42 42 40
43 43 44 48 51 52 52 53 54 57 57 57 56 54 54 53 52 51 52 54 56 57 58 60 60 64 71 74 70 63 59 55 52 48 47 43 45 49 49 46 43 43 47
43 45 45 48 51 53 55 57 57 59 60 60 60 58 58 58 57 56 59 60 62 63 64 63 65 69 72 63 58 55 54 50 48 50 56 56 57 55 53 52 48 53 53
46 49 50 50 55 60 63 62 62 61 60 60 61 62 64 64 63 63 64 68 69 69 67 65 66 69 60 53 51 49 51 55 53 57 57 57 54 57 56 50 51 56 48
49 51 51 54 57 62 65 65 64 64 66 65 65 65 66 70 70 69 70 72 72 73 67 64 61 58 55 53 50 53 55 54 58 60 60 61 55 51 51 57 54 49 49
57 56 56 56 60 63 67 69 69 68 69 69 68 68 70 73 75 73 72 73 74 76 67 65 64 58 57 53 58 67 60 55 53 53 54 56 57 58 63 59 55 54 55
57 64 66 66 67 68 70 73 75 74 74 73 72 72 73 75 74 74 74 75 77 77 69 69 69 61 58 55 60 57 55 57 56 56 54 54 56 57 56 56 57 65 78
68 66 64 68 74 76 76 74 77 79 80 77 77 78 76 75 77 75 76 78 77 80 71 68 71 62 56 52 49 52 53 52 52 53 55 60 63 64 65 67 71 77 78
74 78 77 75 74 78 80 81 81 84 83 82 82 80 80 81 87 88 90 92 90 93 88 78 71 60 53 51 54 59 60 58 60 64 63 62 68 73 78 81 84 82 81
58 74 84 82 80 78 77 85 86 90 87 85 87 87 86 91 90 89 89 91 95 96 94 81 66 55 52 52 56 58 59 66 66 61 59 66 77 79 78 82 80 80 83
38 52 72 88 84 86 85 88 94 91 91 94 94 94 92 89 87 85 86 91 96 97 96 80 59 53 52 53 53 58 59 61 63 68 74 72 71 71 75 76 75 73 67
38 38 52 74 92 89 88 89 98 99 95 97 98 96 96 91 84 84 86 92 97 98 98 81 60 57 60 65 66 63 61 63 74 72 69 73 77 74 67 71 69 66 66
45 44 45 54 79 95 88 89 89 97 94 93 94 97 96 93 86 88 92 94 96 98 97 96 75 68 67 62 62 65 74 79 76 77 84 74 69 70 72 71 65 64 67
40 50 50 53 58 84 95 88 85 94 91 86 84 83 83 86 86 88 90 95 96 97 98 92 76 70 72 72 77 79 84 85 87 82 75 75 71 70 69 66 62 64 69
48 45 56 57 57 65 85 96 87 85 85 90 89 79 78 74 78 87 90 92 95 96 92 86 90 92 87 85 82 95 92 85 83 77 73 67 66 66 67 69 69 70 73
62 53 54 65 61 61 65 83 95 90 86 84 83 80 81 77 79 82 87 91 93 93 93 87 86 91 93 95 91 88 84 84 77 70 64 63 66 68 69 67 67 68 70
73 62 56 69 68 62 58 56 71 88 88 85 80 79 83 82 82 82 82 88 90 91 90 91 90 88 87 87 84 82 84 76 65 61 61 65 66 65 63 65 66 67 69
81 69 64 69 70 65 63 59 57 61 75 81 81 80 83 84 82 82 80 86 90 90 89 90 89 88 85 82 85 87 74 62 59 63 65 64 62 62 63 63 63 64 66
86 74 67 70 73 68 66 63 61 60 63 68 72 77 81 86 85 81 81 86 91 92 91 91 89 88 86 89 79 66 60 63 65 65 63 59 58 59 59 61 63 65 66

GFSGL_prec_cthk_081.txt.gz
RH
52 52 51 52 54 56 55 54 51 48 51 58 67 73 72 76 77 70 70 69 71 70 68 65 60 60 62 61 56 55 54 55 57 58 62 61 65 66 71 70 72 76 75
40 38 35 35 40 43 42 43 44 42 44 50 55 62 66 65 65 64 64 66 64 60 54 49 44 44 44 44 45 45 45 48 49 50 53 55 60 64 67 70 71 76 77
35 33 32 32 34 35 35 36 35 36 38 41 47 51 54 54 53 55 58 54 52 46 41 39 39 37 37 37 39 41 44 45 47 50 52 54 56 58 62 65 69 73 76
32 33 33 32 33 32 31 31 32 33 35 37 40 45 48 48 50 51 48 48 43 40 38 37 37 38 39 42 47 48 48 49 51 53 56 57 60 61 63 65 68 67 65
37 34 33 34 32 32 32 31 32 32 34 34 35 38 39 42 44 46 45 40 39 39 39 39 39 40 43 46 47 50 52 54 56 58 60 62 62 65 68 69 68 66 67
41 40 37 36 37 36 36 38 38 38 39 40 38 39 37 38 40 40 41 41 41 42 41 39 40 42 44 46 49 52 55 57 60 62 63 64 67 66 70 69 69 71 74
42 42 42 41 42 44 43 44 43 44 44 45 44 44 43 45 45 45 45 46 44 43 42 41 43 47 49 49 51 53 57 60 63 66 68 68 70 72 74 76 73 60 47
48 46 46 44 45 48 52 53 52 52 51 52 53 53 54 52 50 48 47 45 44 45 45 47 50 51 52 54 54 57 60 60 58 57 60 60 59 54 54 49 45 51 55
51 50 48 48 48 48 52 54 56 57 57 56 59 58 58 56 52 49 48 49 50 50 51 55 56 57 57 58 58 61 58 54 53 50 50 45 44 44 52 45 54 55 50
52 53 53 51 52 52 53 57 61 61 64 61 62 62 61 59 56 55 56 55 54 55 59 61 61 61 61 61 59 53 51 49 46 45 47 46 50 55 54 50 57 55 52
51 52 54 56 54 55 55 61 67 68 68 66 66 66 65 64 62 59 60 60 61 62 63 65 65 65 65 61 52 48 47 44 46 51 56 54 54 55 53 56 56 55 54
52 53 54 59 60 58 59 65 70 73 75 73 72 72 72 69 68 65 65 66 68 67 68 67 67 67 64 55 50 48 48 45 51 48 53 54 54 54 58 54 52 55 58
56 61 58 63 65 70 69 69 72 74 77 77 75 73 75 74 71 69 68 70 73 72 71 68 65 65 58 57 54 53 51 56 56 55 54 52 53 53 53 56 60 60 57
44 56 66 69 69 71 73 76 72 74 76 77 77 77 77 76 75 74 73 74 75 75 73 71 65 62 59 60 57 57 60 62 57 57 56 57 56 54 54 56 59 58 62
35 45 56 67 81 81 77 77 77 80 80 79 81 81 80 77 78 77 77 78 77 78 77 78 71 67 65 60 59 59 60 58 57 58 54 53 54 55 59 61 63 68 74
33 33 38 49 66 84 89 81 82 80 83 83 81 82 84 82 80 81 80 81 81 86 87 90 85 77 75 64 64 59 55 53 54 56 57 59 61 61 64 70 77 81 83
42 35 35 34 41 62 84 93 88 90 83 87 85 87 87 86 84 82 80 85 90 87 87 90 94 87 75 65 65 57 57 56 60 59 63 66 62 60 67 77 79 77 81
28 32 42 38 37 45 63 85 93 96 88 82 92 92 91 91 89 88 87 89 89 85 84 90 95 94 75 65 62 54 58 60 58 61 62 63 68 71 74 73 74 78 76
35 32 31 38 43 41 51 68 89 95 96 89 94 95 93 95 95 93 94 91 88 85 87 92 96 96 70 62 61 55 56 56 56 59 64 69 76 74 72 76 77 70 72
41 43 43 37 37 47 46 55 78 95 94 95 97 99 99 97 97 97 96 92 90 90 94 95 97 94 69 62 62 65 65 70 70 69 73 81 79 80 81 70 72 73 69
52 51 50 49 42 41 51 53 63 84 97 92 97 98 99 98 97 98 97 97 92 91 95 97 97 97 77 68 65 67 74 70 69 81 85 85 88 84 76 73 69 68 64
63 66 64 58 52 47 53 58 59 73 91 98 96 99 98 98 96 94 90 90 93 90 93 97 97 96 93 81 77 77 78 79 87 95 94 86 85 80 71 67 65 67 67
81 80 77 71 66 55 54 62 62 65 82 96 96 95 98 97 90 87 83 80 87 90 93 97 96 94 90 89 91 92 96 95 96 93 87 84 83 71 66 62 66 66 63
90 91 88 84 75 65 58 65 70 67 73 90 98 92 89 91 91 88 83 79 83 84 90 94 96 95 88 88 91 92 92 91 89 86 85 82 68 63 63 66 64 63 63
94 94 96 92 80 70 63 63 71 69 69 80 92 97 94 91 89 87 83 82 84 83 83 88 94 95 94 93 91 89 87 84 82 86 78 68 63 66 66 65 62 60 59
96 98 96 88 81 71 66 67 73 72 71 74 76 88 91 89 86 83 82 86 90 90 85 86 90 93 93 93 91 89 87 86 82 71 64 65 69 66 63 60 58 57 57

GFSGL_prec_cthk_084.txt.gz
RH
59 59 61 60 59 59 60 60 59 58 58 57 57 59 63 70 74 76 76 76 75 70 68 69 66 61 53 50 46 42 41 39 40 40 43 45 47 46 50 53 58 62 62
52 51 49 48 48 47 48 49 49 51 52 52 53 54 56 61 66 70 71 66 64 65 61 60 58 52 44 39 37 36 36 36 38 40 40 43 45 48 51 54 58 59 63
47 46 45 41 38 37 37 36 41 44 43 44 47 48 50 53 57 60 63 60 58 54 53 47 45 40 37 35 36 37 37 41 44 45 47 48 50 51 53 56 58 63 65
43 42 42 42 38 34 33 31 31 32 34 35 37 40 44 47 50 52 52 53 50 48 45 43 40 36 34 35 37 38 41 45 46 46 48 51 53 55 57 59 62 64 67
43 42 41 39 37 36 34 32 33 34 35 35 36 37 37 40 43 45 47 47 47 46 45 41 38 38 36 35 36 41 43 44 44 47 50 53 57 59 61 65 67 67 68
46 42 40 41 41 39 40 40 39 38 38 37 38 38 39 40 41 42 41 42 44 43 41 43 40 37 36 38 41 42 43 45 46 47 49 54 58 62 67 69 70 69 69
48 46 44 43 44 45 44 46 48 48 46 45 45 46 47 47 48 48 46 44 44 44 43 41 39 39 40 42 43 45 45 47 49 50 55 60 64 66 69 71 74 75 75
50 50 48 46 45 46 47 48 53 55 55 56 55 55 53 53 53 53 50 47 49 48 44 41 43 41 44 48 49 49 50 50 49 48 52 57 61 60 61 58 56 55 51
52 53 52 51 50 49 50 53 55 60 61 62 62 60 60 59 59 58 57 54 52 49 45 45 46 48 50 53 53 53 56 52 47 44 45 43 42 45 47 48 49 50 51
50 49 49 49 50 51 53 54 57 60 65 70 68 67 66 66 64 63 61 58 56 52 51 49 51 52 56 59 58 59 57 51 45 43 42 41 41 43 45 51 51 50 50
41 46 49 50 51 50 50 53 56 62 66 70 72 71 71 71 70 66 65 63 60 62 56 53 55 58 64 64 61 59 51 45 42 42 41 46 49 46 49 51 52 51 52
40 41 45 51 56 56 56 55 56 60 67 74 77 78 79 79 77 72 70 70 70 66 62 61 63 65 67 65 61 54 48 44 43 44 50 52 52 53 51 51 53 52 51
35 33 33 41 50 61 68 66 64 65 68 77 78 83 85 84 81 79 76 75 74 75 72 70 68 67 68 67 61 53 49 48 47 48 53 52 58 57 55 52 50 49 55
37 36 35 33 35 48 63 79 79 73 70 79 85 87 88 88 85 82 81 81 81 79 75 71 70 67 67 66 58 52 51 49 49 56 61 58 55 53 52 53 54 55 55
35 36 36 34 35 35 47 63 85 84 85 77 80 87 91 89 89 88 83 81 81 81 76 74 73 71 66 64 63 63 57 53 54 64 61 59 59 56 54 53 55 58 62
26 28 31 37 40 35 34 42 57 83 93 89 84 82 86 90 91 90 87 85 83 81 77 77 78 79 75 73 70 68 63 58 59 65 61 59 58 55 56 56 58 66 73
19 19 22 27 31 41 40 39 43 56 81 93 97 95 88 90 92 89 88 88 86 81 81 81 83 87 85 76 73 71 63 58 65 60 55 55 59 64 64 64 65 70 75
29 29 31 30 30 29 34 44 44 48 59 78 96 97 95 91 95 95 92 89 88 83 81 82 88 84 82 82 80 71 64 65 65 58 54 60 64 68 66 63 68 73 76
38 37 38 40 42 38 34 34 43 48 53 60 89 98 98 97 93 97 95 89 93 87 83 91 90 84 83 84 85 68 67 70 63 64 61 60 62 63 66 71 75 75 76
43 45 46 46 45 49 45 39 36 43 51 59 71 94 98 99 97 96 97 96 96 96 94 95 89 86 86 88 84 68 69 70 62 58 58 57 58 63 74 77 80 85 82
50 51 53 55 52 55 55 50 43 40 48 56 65 86 98 98 98 98 98 98 98 98 98 95 91 90 91 91 86 70 69 67 65 60 63 69 75 79 84 85 91 85 78
58 60 62 61 63 67 65 63 55 47 47 57 63 79 98 97 98 98 98 98 98 98 99 97 91 91 92 94 83 71 74 68 72 76 76 76 84 91 91 90 87 84 75
72 70 67 70 77 80 74 69 66 57 50 57 64 74 95 97 98 98 98 98 98 98 97 94 92 92 93 97 91 83 77 71 76 88 87 87 97 98 94 87 84 80 69
78 73 76 87 89 90 88 81 75 64 54 57 66 74 90 98 98 98 98 98 98 99 94 88 90 91 94 97 94 92 91 90 91 92 96 97 96 94 88 83 76 71 67
75 80 92 91 92 94 93 89 81 69 58 59 71 72 84 97 98 98 98 98 98 96 93 87 89 89 92 95 94 91 92 95 95 94 93 90 87 85 82 74 71 69 70
88 96 97 95 97 98 96 87 80 71 63 62 74 70 81 97 97 98 98 96 97 95 90 85 88 87 89 91 94 96 97 95 94 92 89 87 83 79 72 71 70 70 66

GFSGL_prec_cthk_087.txt.gz
RH
68 69 68 70 71 69 68 68 62 63 65 65 67 68 68 68 73 79 84 89 82 78 76 74 70 63 63 60 57 51 45 42 39 37 35 35 36 36 39 41 44 47 50
58 56 55 57 57 59 61 61 60 57 58 56 57 59 60 62 62 65 74 75 72 71 68 65 60 59 60 57 54 45 37 35 34 36 36 38 39 41 43 45 49 52 53
54 50 50 51 50 47 49 48 48 47 47 46 46 48 54 58 62 63 63 65 64 63 60 57 54 53 53 50 44 36 36 36 36 38 39 40 42 43 43 45 48 51 55
49 47 48 46 44 43 44 43 43 42 39 40 40 41 44 49 55 54 56 57 60 59 58 57 53 49 46 45 40 37 35 36 38 38 39 39 43 45 47 50 51 54 57
48 47 45 43 41 41 41 42 43 42 39 39 39 38 39 41 45 50 51 55 59 58 57 53 51 48 45 39 39 36 35 35 36 39 41 41 42 46 47 49 53 56 62
51 49 48 46 43 42 41 41 44 45 46 43 41 40 39 40 45 50 50 50 50 53 52 50 47 45 41 38 37 37 36 37 38 42 41 44 47 51 53 56 57 61 65
48 49 49 48 47 46 44 44 45 47 49 49 48 47 45 46 47 48 50 50 49 48 48 48 47 43 40 39 38 38 37 42 42 44 46 50 50 54 55 57 60 61 65
43 43 44 44 45 47 48 48 47 47 50 52 52 52 51 50 53 53 54 52 51 52 52 51 48 47 45 42 40 42 43 44 46 51 49 49 52 52 55 54 54 55 55
36 37 39 41 41 43 46 47 47 47 48 52 56 58 58 60 61 59 58 58 57 57 56 55 52 49 47 47 46 47 49 50 52 47 45 42 40 41 41 43 45 47 45
31 30 32 35 41 43 45 46 45 47 50 52 56 62 63 66 67 67 64 62 62 63 63 61 56 54 51 52 50 51 52 56 53 46 42 40 36 35 35 40 44 46 48
32 32 34 35 36 40 45 47 49 50 52 54 56 62 66 70 72 73 75 74 70 66 66 64 64 61 58 59 55 56 57 61 51 43 41 38 36 35 41 45 47 50 50
33 33 34 32 32 34 39 44 52 57 58 58 59 62 68 74 76 78 79 80 81 78 74 72 70 72 69 65 61 61 62 60 49 42 40 38 37 43 47 50 48 49 49
32 33 35 34 32 32 31 37 45 55 67 68 68 69 72 80 87 88 84 83 85 87 86 80 81 78 75 69 67 67 65 58 49 44 43 42 42 45 52 54 53 53 52
27 27 29 30 33 32 32 32 39 47 59 73 79 76 77 82 85 88 92 95 95 89 92 90 84 83 78 75 74 69 67 58 51 46 45 42 44 50 57 56 55 52 51
22 22 23 26 29 32 37 36 34 35 50 62 80 88 83 78 83 94 98 96 94 94 94 91 88 85 84 78 76 75 68 60 54 52 49 46 52 59 57 55 54 52 52
21 21 21 20 19 20 24 30 37 36 34 49 64 86 88 86 81 85 99 93 99 96 92 88 86 85 83 82 76 75 69 66 64 60 55 54 59 60 58 59 54 51 52
26 28 29 30 26 25 25 26 25 27 39 40 51 66 83 92 92 83 90 99 99 96 88 89 85 83 84 83 82 76 72 74 67 65 62 59 64 63 59 58 55 56 60
34 38 37 37 39 38 37 35 31 29 29 41 41 52 68 87 97 97 93 93 92 86 83 90 92 91 87 87 85 85 81 73 71 67 63 59 61 61 57 57 63 65 66
42 46 48 47 46 46 44 43 42 37 33 30 40 44 57 75 91 98 99 91 90 89 89 91 94 93 91 88 86 92 82 79 73 67 61 68 63 58 56 63 66 65 65
54 57 58 59 56 51 52 51 50 49 44 38 33 45 52 63 80 98 98 96 95 95 95 95 98 93 89 88 93 92 89 88 75 67 68 70 62 58 58 66 64 65 70
74 74 74 72 65 58 56 58 59 58 54 46 40 37 54 57 68 93 98 98 98 99 98 98 98 98 96 95 97 94 94 92 72 67 75 65 69 68 64 63 64 72 79
91 90 91 86 75 72 68 66 67 65 61 59 50 43 46 57 66 82 97 98 98 99 98 98 98 98 98 98 98 96 96 90 72 72 80 69 62 62 62 68 81 88 90
97 98 98 92 82 79 75 72 73 70 68 67 60 52 43 55 63 77 97 98 98 98 98 98 98 98 98 98 98 96 95 89 69 70 73 77 71 71 75 88 96 97 92
99 99 98 92 86 79 75 80 82 83 79 73 69 59 48 53 64 74 96 97 98 98 98 98 98 98 98 98 98 97 96 82 74 79 74 75 81 86 93 97 97 97 94
99 97 88 80 80 84 93 90 87 88 87 81 76 62 52 54 67 76 96 98 98 98 98 98 98 98 97 96 94 96 96 87 83 81 79 85 96 97 97 97 96 93 88
74 80 91 96 96 96 93 93 94 96 93 82 76 65 56 60 72 80 98 98 98 98 98 98 98 98 95 93 95 96 97 97 97 97 97 97 97 97 96 94 91 86 79

GFSGL_prec_cthk_090.txt.gz
RH
80 80 81 81 82 82 78 78 81 82 81 80 83 89 87 82 79 81 87 88 90 93 92 91 92 85 76 75 68 65 62 57 51 46 42 37 34 34 34 35 36 39 41
62 63 64 64 64 62 61 66 69 68 64 65 63 66 67 66 70 76 75 76 82 93 92 87 85 79 74 69 64 62 57 52 46 38 38 39 37 36 36 38 38 40 42
57 57 54 53 50 48 47 48 49 50 51 52 53 52 53 58 59 61 65 66 73 76 75 73 71 67 63 61 58 57 51 45 37 37 37 36 38 36 37 38 39 41 43
54 54 53 48 46 42 41 42 43 43 41 41 45 47 48 50 53 56 58 67 69 70 69 69 74 68 62 56 52 50 47 44 37 36 38 37 36 38 39 38 41 42 44
52 50 48 44 42 40 39 40 40 41 40 41 42 43 44 46 49 50 52 55 59 65 69 74 77 77 71 58 54 51 46 40 38 39 39 37 38 39 39 41 44 46 46
48 46 45 43 43 43 43 43 41 42 43 45 45 47 46 45 47 49 52 52 54 57 62 67 66 69 66 54 51 49 42 39 38 37 39 39 38 39 42 46 46 50 50
42 40 40 40 41 41 42 43 42 43 46 47 48 51 51 50 50 51 54 56 57 57 55 56 57 55 55 55 50 44 42 41 42 41 41 41 43 43 45 45 50 51 52
30 28 30 31 34 35 36 38 40 42 45 48 49 52 55 56 57 58 57 57 57 57 56 56 56 57 55 52 49 46 43 43 46 45 45 47 49 47 45 46 46 48 48
27 28 27 25 25 26 28 32 37 42 45 47 51 52 55 57 61 63 64 63 61 60 59 58 58 59 58 55 51 48 47 50 48 49 49 50 47 47 44 41 40 40 39
26 24 24 23 23 23 26 28 31 37 41 44 51 56 56 59 64 68 69 68 70 70 68 65 63 62 61 57 55 52 54 55 53 52 51 49 43 39 38 32 31 35 40
24 23 22 23 24 24 24 25 26 32 38 46 49 53 56 60 66 71 72 71 75 76 76 74 72 70 66 62 62 61 60 60 59 57 55 49 44 40 33 31 34 41 42
21 22 25 27 28 29 28 27 28 33 35 37 43 56 55 61 67 73 75 77 81 80 80 80 80 78 75 72 69 69 67 65 62 64 55 50 43 37 33 35 43 45 45
21 19 19 19 21 25 28 31 32 33 37 38 42 51 62 67 68 71 76 81 84 90 89 88 88 87 83 82 79 77 72 70 70 66 58 52 43 40 37 41 43 46 49
15 14 14 15 17 21 25 30 35 36 37 39 40 44 54 70 75 71 77 84 90 88 93 94 92 92 90 89 82 79 81 76 75 69 60 54 48 42 42 43 47 54 56
19 18 18 18 18 17 17 17 21 31 39 44 48 45 46 56 81 87 79 80 89 91 98 98 95 91 92 91 89 85 85 79 78 70 63 59 50 47 45 47 50 58 57
24 26 27 27 25 24 22 18 20 22 23 29 37 48 50 51 60 88 96 88 95 93 92 98 98 91 93 97 94 92 90 86 83 71 63 61 55 52 50 54 57 59 57
31 35 35 35 33 32 31 32 29 25 28 26 26 29 44 53 57 60 95 98 94 98 98 93 91 96 95 96 97 92 92 88 82 69 67 64 66 62 59 58 59 59 60
41 43 44 44 43 41 42 42 41 39 36 30 29 29 31 38 56 63 71 98 98 97 86 91 99 95 98 94 97 93 89 86 80 74 69 70 73 66 65 63 61 60 60
52 52 54 58 56 54 53 52 51 48 46 43 39 35 35 33 37 60 66 76 98 98 89 93 98 98 99 96 98 98 92 88 86 81 73 76 75 68 67 66 68 64 59
70 69 72 75 73 72 70 67 63 60 53 50 48 44 44 39 35 41 62 67 85 97 98 93 93 95 95 99 98 98 98 95 92 82 83 77 72 68 65 65 67 63 60
81 84 90 91 92 93 93 88 80 72 65 57 53 53 53 50 41 37 47 68 70 89 98 98 98 95 98 98 97 98 98 97 91 92 91 78 73 67 72 73 65 62 63
88 92 95 96 97 98 98 95 88 83 78 69 59 59 64 59 50 43 40 61 68 77 98 98 97 97 98 98 98 98 98 95 96 97 96 81 69 71 76 69 64 63 65
96 98 99 99 99 99 98 96 90 85 80 75 71 70 70 67 56 49 43 56 72 75 94 98 98 98 97 97 97 98 98 98 98 97 96 72 72 78 73 74 73 71 71
97 98 98 98 99 99 97 93 89 86 81 78 75 72 70 67 57 54 47 55 71 76 94 97 97 97 97 97 98 98 98 98 97 97 90 71 77 87 76 72 70 73 90
82 82 80 80 81 84 88 89 87 86 88 84 80 80 80 71 62 57 48 59 69 77 95 97 97 97 97 98 98 98 98 97 97 97 83 73 72 76 85 87 90 95 97
94 97 99 99 99 96 97 98 95 93 91 89 89 87 85 75 68 57 50 66 71 81 94 97 98 98 98 98 98 98 98 97 97 89 83 80 84 83 83 90 97 97 97

GFSGL_prec_cthk_093.txt.gz
RH
88 89 90 91 91 90 92 91 94 96 97 95 95 96 96 95 92 90 92 94 95 92 95 93 94 91 93 92 92 96 94 83 76 66 60 55 47 41 36 33 32 32 34
69 69 68 69 69 70 76 79 81 80 79 78 81 84 88 87 89 88 86 82 81 92 94 94 94 97 93 98 96 86 77 68 72 67 59 52 45 39 37 35 35 34 33
56 55 54 52 50 49 49 48 50 52 56 59 62 64 67 68 69 71 70 73 77 77 82 88 97 97 95 91 84 79 76 69 65 62 55 49 40 38 37 36 34 36 35
55 53 51 50 48 45 43 43 43 43 44 46 45 46 48 51 53 54 56 56 66 72 78 81 90 90 84 78 76 77 67 63 60 56 47 44 41 38 38 37 37 36 39
48 47 45 43 42 42 40 38 37 36 38 39 41 42 42 43 47 50 54 54 56 63 69 79 84 89 80 75 81 82 72 65 58 53 47 40 39 38 39 39 39 38 40
41 40 38 37 37 37 36 36 37 37 36 35 36 38 41 45 46 45 47 49 53 55 58 67 75 84 82 80 84 82 84 78 59 53 47 39 38 40 41 40 42 43 45
31 29 27 28 27 27 29 29 31 32 32 34 36 36 40 43 45 49 51 51 53 54 56 59 66 76 78 76 76 77 73 74 54 51 42 38 41 42 44 46 46 46 48
24 24 23 21 21 21 21 22 23 25 28 30 32 35 37 41 45 49 52 55 56 57 60 60 59 59 62 65 67 68 61 56 54 47 42 41 44 45 49 50 49 48 47
19 18 19 18 18 17 17 18 18 19 22 26 30 33 36 42 47 50 53 54 57 63 62 62 64 68 67 64 63 60 58 55 51 49 46 47 50 51 51 52 49 47 42
16 16 16 16 16 15 16 16 16 16 16 18 25 32 39 41 47 52 57 59 59 65 65 68 69 68 67 65 66 64 62 59 56 53 55 55 56 54 49 46 45 39 39
24 23 21 21 21 21 22 22 22 22 21 22 21 28 32 39 46 51 56 59 65 67 71 72 75 77 76 74 70 68 66 63 62 64 64 62 59 54 50 45 39 34 31
17 17 17 18 18 19 20 21 23 26 27 28 29 28 33 39 49 59 60 62 68 69 74 78 82 81 82 84 81 78 72 70 71 69 69 69 64 58 52 46 40 36 34
16 12 10 10 11 13 15 18 20 23 26 29 34 38 40 47 48 56 69 68 68 73 78 82 87 87 87 87 87 84 80 81 81 77 77 76 69 61 55 50 42 37 38
14 14 15 15 15 16 19 21 22 22 21 23 27 32 41 48 52 55 66 83 77 77 81 88 87 87 90 86 91 93 89 92 92 90 87 81 73 65 59 53 43 38 40
18 19 22 24 27 27 27 29 28 25 25 26 25 26 29 42 54 61 67 72 95 91 86 92 94 95 97 95 93 94 97 98 94 94 93 87 78 70 62 57 47 41 42
30 30 31 34 38 39 37 33 34 32 30 29 31 29 27 28 33 55 60 69 83 99 96 87 97 93 93 98 99 98 97 98 99 98 97 91 80 72 65 60 51 44 44
40 42 44 47 48 49 48 43 37 35 38 36 38 37 33 31 30 29 48 61 68 90 98 96 89 99 97 94 96 95 97 96 98 97 98 96 84 77 72 62 55 53 50
48 51 59 64 64 63 61 56 53 46 41 39 42 42 39 36 34 33 30 43 66 70 88 97 95 96 98 98 98 98 99 98 98 98 98 97 84 79 74 67 60 63 59
53 58 64 72 75 76 77 73 71 66 59 52 52 51 49 44 41 37 35 37 45 65 73 89 97 97 94 97 98 98 99 98 98 97 98 96 91 87 76 70 65 67 61
56 64 73 77 80 84 88 90 88 86 79 71 64 60 57 50 48 44 42 40 39 47 69 75 89 98 97 98 98 98 98 98 97 97 98 96 93 90 80 73 72 70 64
68 73 81 88 90 93 94 94 95 96 94 90 80 73 66 62 55 52 50 43 40 40 56 71 83 92 98 97 98 96 97 98 96 98 98 96 94 90 84 79 73 69 66
73 77 81 87 93 96 98 97 98 98 97 95 88 84 78 69 62 58 56 52 44 39 48 66 76 89 93 98 97 97 94 93 96 98 98 97 95 90 85 81 73 67 66
76 79 82 84 86 91 97 98 98 98 97 94 90 85 82 76 69 63 61 56 50 43 42 59 71 82 94 96 97 95 90 91 96 97 97 97 97 97 88 80 71 72 76
82 83 84 86 88 90 88 87 87 91 93 91 91 88 83 79 76 68 63 60 55 47 42 55 72 75 90 97 98 95 94 93 96 98 97 97 97 97 82 72 77 80 75
93 96 98 98 98 99 99 99 98 96 93 89 86 85 84 82 78 72 68 61 55 47 43 63 77 81 92 96 95 94 96 97 98 97 97 97 97 88 75 80 79 79 81
93 96 98 99 99 99 99 98 97 94 93 93 92 88 84 83 80 75 72 63 55 46 49 74 83 89 96 97 96 98 98 98 97 97 97 97 96 83 79 93 85 79 78

GFSGL_prec_cthk_096.txt.gz
RH
95 91 94 96 97 97 98 97 97 97 97 98 95 96 96 94 96 96 96 97 96 97 98 94 93 96 98 96 96 91 94 90 93 91 86 84 79 71 66 59 50 42 34
70 69 72 76 81 81 83 86 88 88 86 87 88 89 90 93 96 96 95 93 93 94 96 98 96 94 95 96 94 94 96 95 92 90 87 80 76 69 69 57 45 38 36
66 65 62 61 59 58 58 57 56 56 57 60 65 68 70 72 80 86 89 89 89 89 90 88 92 98 95 95 96 96 96 97 92 88 81 76 76 70 61 50 40 36 35
64 59 57 54 52 51 51 49 48 46 45 46 48 49 48 51 56 62 68 72 77 79 80 82 84 85 94 96 98 96 96 96 86 81 77 74 69 62 55 43 38 37 36
43 41 39 38 37 37 37 37 37 37 37 37 37 38 41 45 50 52 53 56 58 62 64 69 72 74 79 85 91 98 97 90 81 71 68 63 54 52 48 43 40 37 37
34 32 29 29 29 28 27 26 26 27 30 31 33 33 32 36 40 42 45 47 50 52 56 61 63 65 72 78 86 95 89 85 78 79 73 64 64 57 50 39 39 39 40
24 23 21 20 18 18 18 17 18 20 21 22 26 29 29 34 37 39 41 43 46 48 51 53 58 62 69 73 81 92 96 89 95 90 86 93 84 61 49 42 41 41 45
19 18 17 16 16 15 14 14 14 14 14 14 15 17 22 29 32 36 42 44 47 49 49 52 55 60 64 70 70 79 89 93 89 88 85 82 86 69 48 44 43 48 50
16 16 16 15 14 13 13 12 12 12 12 12 12 13 15 18 25 33 38 43 47 50 56 56 59 60 66 64 69 69 76 82 88 83 84 79 72 55 45 46 49 52 52
15 14 13 13 13 13 13 14 14 15 15 15 15 16 15 15 21 26 33 39 44 50 55 58 62 66 72 72 73 71 68 66 68 62 64 67 58 54 53 55 56 56 55
15 15 15 16 18 17 17 16 17 17 18 19 19 20 22 22 23 28 28 41 45 47 52 59 64 70 74 75 78 80 79 82 72 70 66 62 61 60 61 61 59 58 57
9 9 8 8 9 10 11 11 12 13 14 15 16 18 22 25 28 33 39 44 47 56 55 59 66 73 76 78 81 85 85 80 74 71 71 68 66 67 67 65 63 62 55
13 13 12 10 10 12 15 16 17 19 18 17 16 14 13 15 23 31 39 53 56 59 64 66 70 80 84 82 81 85 87 82 80 79 75 74 75 74 69 67 67 61 57
18 18 18 19 19 19 22 27 28 28 28 27 25 22 20 18 16 19 31 43 63 70 72 81 84 87 92 87 90 90 90 89 87 86 85 85 82 78 74 71 68 63 60
22 23 23 25 26 27 30 35 41 43 44 38 33 35 33 29 24 25 25 33 45 65 79 85 95 94 98 96 95 93 92 93 92 94 94 92 91 87 80 74 70 67 64
27 27 30 33 36 40 43 44 51 53 54 48 44 43 38 36 32 29 26 26 33 46 76 80 90 97 92 98 99 97 98 97 98 97 99 96 96 92 85 78 74 72 67
29 33 38 43 47 50 58 61 61 64 65 64 58 52 48 45 41 35 32 30 27 38 56 77 87 98 98 94 97 98 99 99 98 99 98 99 98 98 86 77 76 74 68
38 44 50 54 57 59 64 70 76 76 77 72 72 64 56 53 51 46 40 36 31 32 45 58 76 90 97 98 92 97 98 98 98 98 98 98 98 98 94 83 79 76 75
45 53 58 62 66 73 76 76 82 84 88 86 81 75 72 63 58 53 50 44 40 36 37 47 60 78 87 97 97 96 97 96 97 97 98 98 97 95 94 89 84 83 79
53 60 65 68 73 78 82 85 91 95 93 90 92 93 88 77 67 60 57 54 49 44 39 39 49 62 81 89 96 98 97 96 97 97 96 95 98 98 97 93 87 82 72
60 62 69 72 77 82 86 89 90 93 94 96 94 94 96 93 80 69 63 59 55 51 45 40 43 54 67 86 95 97 96 97 97 97 97 97 98 95 96 97 92 84 81
61 67 73 78 83 84 88 90 90 88 94 94 93 93 94 91 87 82 71 63 59 56 50 43 39 46 61 78 92 97 98 97 97 98 98 98 98 98 97 97 95 89 82
69 74 81 87 93 96 95 94 94 93 88 89 94 93 91 88 84 82 78 68 60 57 54 48 41 45 58 76 90 95 97 97 98 97 98 95 94 96 97 97 97 90 82
76 81 87 92 95 97 98 99 99 98 99 96 93 91 90 90 86 81 77 71 64 59 56 52 44 41 58 72 89 95 93 95 96 97 95 91 93 95 96 97 93 89 87
77 83 90 96 96 98 99 98 98 98 97 96 93 90 88 87 84 82 78 74 68 61 57 53 46 42 55 70 85 96 93 90 93 95 94 89 92 95 97 97 96 94 84
79 83 90 96 98 99 99 98 98 99 98 96 91 91 91 89 87 85 82 79 72 62 57 54 47 44 67 75 79 91 96 96 95 95 91 91 95 96 97 97 94 85 84

GFSGL_prec_cthk_099.txt.gz
RH
90 91 91 91 92 94 95 96 95 97 97 98 97 96 97 97 98 97 98 97 98 98 98 99 96 96 95 96 96 96 95 99 98 97 98 99 97 94 89 88 84 76 65
84 81 79 78 82 89 83 78 78 81 81 85 90 93 95 96 97 97 95 96 97 98 98 99 98 98 97 95 97 97 94 97 99 97 97 95 95 94 90 90 85 77 68
75 72 69 68 64 65 67 64 63 62 59 61 63 67 70 76 82 88 93 96 98 96 94 95 95 97 96 98 97 96 95 95 93 93 93 92 94 91 87 89 84 78 74
69 65 60 56 54 52 52 52 53 53 53 53 50 49 51 53 55 57 63 73 80 86 91 95 95 94 95 95 96 95 97 98 98 96 99 95 95 91 91 86 80 78 68
45 42 39 35 32 31 30 29 29 29 30 31 34 37 40 41 44 45 47 49 54 60 71 74 79 85 91 92 92 94 99 97 97 98 98 99 97 85 81 83 73 69 60
31 27 25 23 21 20 19 19 19 20 21 20 22 23 26 30 33 36 37 39 41 44 49 54 61 69 75 79 81 87 90 89 95 94 99 97 95 87 83 75 68 59 49
24 22 20 18 17 16 14 14 13 13 13 13 13 14 15 17 20 25 30 33 39 41 42 46 50 53 58 63 72 77 79 83 89 89 97 98 97 91 89 83 77 67 50
17 16 15 14 13 13 13 13 13 13 13 12 12 13 13 14 14 14 17 24 30 38 42 47 48 49 54 56 56 65 70 75 79 91 94 96 95 94 94 98 97 84 70
15 14 13 12 12 12 12 12 12 12 12 13 14 14 14 14 15 15 16 16 20 29 35 42 47 53 57 59 61 62 65 67 74 89 94 99 97 98 93 94 87 81 71
13 13 12 11 11 10 10 10 10 11 11 11 12 13 14 15 16 18 19 28 26 24 27 35 43 48 55 63 66 67 68 71 74 76 76 81 87 94 91 88 82 72 64
10 9 9 9 9 9 10 10 10 10 10 11 13 13 12 13 13 15 19 26 31 35 32 29 36 47 55 57 65 67 71 80 76 79 73 76 75 77 81 80 75 61 58
12 12 12 11 11 11 11 11 13 14 15 15 15 14 14 14 15 14 14 17 25 38 41 41 41 45 57 63 68 68 74 78 84 83 78 78 76 71 74 70 65 61 60
14 15 16 17 17 16 16 15 16 17 20 22 24 24 22 21 20 20 20 19 21 26 38 42 47 50 56 64 73 75 80 81 83 81 86 88 91 94 79 71 69 66 68
20 20 19 19 19 19 20 21 23 25 30 32 34 35 34 34 30 30 30 30 28 27 29 40 49 53 65 69 76 82 85 89 85 83 86 90 93 88 82 79 75 70 68
20 19 19 19 20 22 24 27 31 35 44 46 45 45 45 43 42 45 43 38 35 32 30 32 44 56 65 70 76 84 84 97 90 88 91 94 94 91 88 85 81 75 71
21 21 22 24 25 29 33 33 39 47 51 53 56 60 56 54 54 54 50 45 42 40 37 33 37 48 71 73 76 82 84 94 96 99 96 99 97 97 95 91 86 81 78
23 24 26 29 33 37 41 45 47 49 59 63 65 71 71 68 64 62 56 51 47 45 43 38 37 50 63 77 87 91 87 91 98 98 98 99 98 99 99 97 92 85 80
26 30 34 38 42 45 49 51 58 61 66 70 81 82 79 78 76 72 63 57 51 50 47 42 37 44 55 79 91 96 93 90 93 98 98 98 98 98 98 98 97 90 80
31 35 41 46 48 53 58 60 65 70 77 79 82 88 87 84 82 84 77 67 60 59 55 47 41 38 54 67 86 98 98 92 97 97 97 98 97 98 95 98 97 92 82
36 44 50 51 54 57 61 66 74 80 83 85 84 84 89 93 88 88 89 80 70 64 61 53 45 41 45 67 80 90 98 97 93 94 96 97 97 97 96 97 97 96 90
47 54 57 59 64 70 74 78 83 87 88 89 86 88 94 95 93 90 86 85 77 68 65 59 52 44 41 59 70 90 96 97 96 93 97 98 97 97 98 98 97 96 91
57 60 60 64 69 74 78 88 95 96 96 95 93 92 92 96 96 90 84 82 81 73 65 60 54 49 43 46 66 82 94 96 98 98 97 96 98 97 97 98 97 97 97
62 62 64 70 76 79 82 89 96 97 97 98 99 98 97 93 91 91 86 83 79 73 65 60 56 50 42 42 61 78 88 97 97 98 98 98 98 97 96 97 97 97 92
65 65 68 74 78 82 85 89 94 97 97 98 98 97 96 94 90 89 87 84 78 73 67 61 56 52 44 40 55 79 96 98 97 95 97 97 97 95 97 97 97 92 93
67 66 70 75 79 84 89 92 93 94 95 97 99 97 94 91 89 89 87 83 80 74 68 63 57 53 46 40 50 77 90 97 97 98 98 97 98 97 98 97 96 95 93
66 67 70 72 77 81 85 89 92 91 93 97 99 95 90 92 91 92 89 86 81 75 70 63 57 54 46 40 48 73 91 96 94 93 96 98 97 95 91 92 93 92 95

GFSGL_prec_cthk_102.txt.gz
RH
84 86 77 78 81 90 93 89 88 89 90 90 92 96 97 98 97 98 97 96 98 99 99 96 93 91 92 98 97 97 97 98 97 94 97 92 93 97 96 97 94 94 92
88 89 90 86 85 85 91 91 80 74 74 77 77 79 82 92 94 97 97 96 98 95 97 98 97 96 95 99 97 97 98 98 98 97 95 94 97 97 98 96 96 95 94
93 89 85 78 75 73 75 72 72 73 71 69 68 66 66 69 71 75 83 90 94 96 99 98 95 96 98 97 99 98 97 97 99 98 98 98 99 96 96 96 96 96 96
79 74 70 64 62 60 59 58 55 55 56 53 53 53 54 54 54 54 56 59 64 72 83 89 93 98 99 98 97 98 97 99 97 98 99 98 97 98 98 98 97 94 94
58 50 42 38 34 30 28 26 25 24 24 25 26 26 28 30 30 33 38 41 43 46 50 54 62 76 89 94 96 96 95 97 99 96 98 98 98 99 98 95 97 94 94
24 22 20 18 17 16 15 14 14 14 14 14 13 13 13 14 14 15 17 21 28 32 34 37 43 48 54 62 73 87 89 90 94 98 95 96 99 97 99 99 98 98 95
20 17 15 14 13 12 12 11 11 11 11 10 10 10 11 11 12 12 13 13 14 15 20 27 34 41 46 47 53 62 71 79 85 90 92 96 93 89 95 97 98 96 93
16 14 13 12 11 10 9 9 8 8 8 8 8 9 9 9 10 11 12 13 13 14 14 16 22 29 39 46 49 49 55 62 71 76 82 86 89 97 98 96 97 97 96
14 13 11 10 9 9 9 9 9 9 9 8 8 8 8 8 8 8 8 9 11 12 15 17 19 22 27 38 47 50 54 53 61 65 68 76 83 84 93 96 94 98 98
11 11 12 12 12 12 11 11 11 11 11 11 10 10 11 11 10 9 9 9 9 9 10 19 25 26 27 28 39 48 52 58 63 65 65 66 69 95 85 99 93 99 98
13 13 14 15 15 14 13 13 13 14 14 13 13 13 14 15 16 15 14 13 12 12 13 16 20 24 32 38 40 43 46 59 63 67 71 71 73 76 80 98 95 99 95
15 14 15 16 18 19 19 18 18 18 18 18 18 18 19 19 20 20 21 24 24 25 22 21 19 21 27 35 42 44 53 56 64 69 75 79 76 74 80 85 80 88 88
16 17 18 19 22 22 22 21 21 20 20 22 24 27 27 27 27 26 28 32 33 32 30 28 26 21 25 36 42 49 58 64 70 76 72 72 78 78 89 85 85 77 77
18 19 23 25 26 27 27 27 27 27 27 29 32 35 35 35 36 36 37 39 38 37 36 33 32 29 26 36 46 53 61 60 69 79 86 85 83 90 89 85 88 87 86
25 28 29 29 28 27 27 28 29 29 33 37 40 43 45 43 47 52 55 54 53 50 48 43 38 34 31 35 53 57 68 66 67 74 90 96 96 92 97 99 95 98 92
31 31 30 30 30 30 31 28 29 31 35 40 44 51 54 59 64 68 68 71 64 62 56 51 47 46 43 40 49 59 72 74 73 73 80 93 98 95 91 94 97 98 97
32 32 31 32 32 33 32 34 35 32 38 42 48 55 64 69 76 78 78 77 76 69 62 58 57 51 45 42 44 62 74 82 86 82 81 84 95 98 98 98 94 97 98
31 33 34 33 34 37 39 42 43 43 44 47 55 65 71 78 81 80 83 84 83 82 73 66 62 57 49 42 40 55 81 88 90 90 83 87 91 93 96 96 92 93 98
30 32 33 37 41 44 46 47 50 55 60 63 65 73 82 81 81 84 88 90 85 91 85 73 67 62 53 44 40 50 69 92 98 94 92 81 93 94 97 96 97 94 97
30 33 39 43 45 48 52 56 60 66 70 76 81 87 86 86 86 86 90 92 88 85 88 78 71 66 56 47 40 48 68 92 97 98 98 96 89 92 99 97 97 97 96
28 36 44 48 50 55 60 66 69 76 80 82 86 92 96 95 94 93 89 92 89 83 86 82 72 66 58 49 43 45 69 89 95 97 97 98 98 93 97 94 95 97 97
30 45 50 52 54 58 63 68 75 80 87 87 89 94 97 97 94 92 89 87 87 81 81 82 72 64 56 50 46 44 62 86 94 98 98 98 97 91 97 97 97 97 97
41 52 54 53 57 64 70 75 78 80 87 89 88 91 96 96 95 92 90 88 87 82 77 78 71 62 55 51 46 46 56 83 96 98 98 98 98 98 97 96 93 91 94
48 55 54 58 63 70 77 83 85 85 85 87 87 90 96 96 91 89 89 88 85 82 76 74 69 61 55 51 45 41 56 84 93 98 98 98 98 97 94 97 97 97 97
51 52 57 63 68 77 83 87 90 90 86 84 85 92 95 89 89 89 87 89 85 81 76 71 66 59 55 50 45 43 58 84 89 98 98 98 97 97 97 96 97 97 96
50 53 61 66 73 80 81 83 88 89 89 86 83 89 89 88 91 89 91 90 87 81 77 68 63 58 53 47 43 42 60 88 95 97 97 98 97 97 97 97 97 97 97

GFSGL_prec_cthk_105.txt.gz
RH
68 64 61 63 62 65 75 82 82 77 86 81 80 82 86 87 88 90 92 96 95 97 97 99 99 98 97 97 97 96 95 96 90 95 90 93 96 95 96 98 98 96 94
77 83 95 88 77 74 74 87 88 91 82 74 73 73 79 79 78 85 87 93 94 97 99 97 97 98 98 97 97 96 95 94 98 96 95 96 94 94 96 97 98 99 98
85 88 90 86 83 81 77 75 78 76 71 70 69 67 64 64 66 67 70 74 77 83 92 95 97 98 98 99 99 98 98 96 96 98 98 97 95 97 97 98 99 99 98
82 82 76 74 68 63 61 60 59 57 55 55 55 55 54 52 50 49 49 51 55 57 60 66 75 87 94 98 98 97 97 98 98 97 98 97 98 98 98 98 98 99 97
64 57 50 37 33 32 29 24 27 19 17 16 17 15 16 16 16 18 19 21 24 27 32 37 42 50 58 64 75 90 95 97 98 96 97 98 99 97 97 97 98 98 97
26 21 18 16 15 13 12 10 9 8 7 7 7 7 7 7 8 9 9 10 11 12 14 16 19 25 31 36 46 56 66 78 84 88 92 93 97 97 99 98 98 99 99
18 16 14 12 10 8 7 7 8 8 8 8 8 8 8 7 7 7 7 8 8 9 10 11 12 15 17 22 30 38 43 51 63 68 78 81 88 92 96 98 97 98 97
16 14 10 9 9 10 10 11 11 11 11 11 11 11 10 10 10 9 9 8 7 7 7 7 8 10 12 16 18 23 32 40 48 54 64 64 78 95 96 97 98 97 96
13 10 10 12 13 13 13 14 14 14 14 14 14 13 13 13 12 12 12 12 11 10 8 7 8 8 8 11 19 24 23 30 42 50 52 58 66 71 83 86 92 92 98
11 13 14 15 15 14 14 15 15 17 17 17 17 18 17 18 18 18 17 17 15 14 12 11 9 9 16 18 18 21 23 24 29 42 52 58 59 61 70 77 84 80 90
16 17 17 17 16 16 16 17 18 19 20 21 21 21 21 21 20 20 20 20 22 23 23 22 19 13 14 19 18 22 26 29 30 36 45 57 65 67 66 69 71 78 84
19 18 18 19 20 22 23 24 25 27 27 27 27 26 27 28 29 29 29 31 30 28 26 25 23 23 22 20 20 19 24 32 34 39 43 50 69 74 73 73 76 75 80
31 31 30 29 31 32 30 30 29 29 30 31 32 32 31 31 29 29 30 32 34 39 37 33 30 28 27 26 24 24 24 37 43 47 46 52 59 80 82 85 89 89 80
32 34 34 32 30 30 32 33 33 34 33 32 33 34 35 37 37 37 35 38 41 45 47 42 39 39 34 31 30 29 32 41 48 55 53 64 57 74 88 90 90 81 94
33 32 32 32 31 33 33 34 34 34 39 40 41 43 44 43 41 42 47 49 52 56 58 55 50 45 41 41 42 41 39 45 58 57 65 69 72 68 90 98 98 98 95
29 29 30 30 33 35 37 36 37 41 42 41 41 44 47 49 51 56 57 59 62 63 67 66 61 55 51 52 50 46 43 49 62 64 75 77 79 70 83 95 95 98 98
32 31 30 32 37 43 43 45 44 33 35 40 44 48 51 57 60 65 67 68 69 76 77 76 73 65 61 57 54 50 46 55 68 74 78 84 81 78 80 91 98 98 98
35 37 34 39 46 47 47 43 41 42 42 41 46 55 61 65 69 72 74 76 76 81 82 79 78 75 71 68 66 57 49 50 67 77 83 90 92 88 88 82 91 97 96
36 35 38 40 48 47 40 41 44 47 48 49 51 56 66 75 78 80 84 86 86 86 84 82 83 83 77 75 69 60 52 51 66 78 87 96 98 90 87 86 93 94 98
38 36 38 47 46 39 41 47 51 54 57 57 56 61 67 71 76 84 90 92 91 87 83 81 81 86 78 76 69 61 52 47 60 82 92 98 98 96 97 92 94 91 92
37 37 42 45 42 42 50 55 61 65 65 65 65 68 75 75 76 83 88 91 90 87 84 82 80 85 78 73 66 58 52 45 62 79 88 97 98 97 93 98 92 92 90
35 36 40 44 43 49 56 61 66 68 70 72 72 70 73 77 81 88 90 89 89 88 86 80 78 82 75 70 63 55 50 47 63 87 97 96 97 96 97 98 95 91 94
35 31 42 45 49 53 59 63 62 64 71 75 76 72 73 84 89 88 86 85 86 86 83 77 78 80 74 67 60 55 49 46 63 84 94 96 97 96 97 97 98 97 98
29 33 44 49 53 58 62 65 67 69 70 74 75 74 79 82 86 88 88 87 88 88 83 77 78 76 70 63 56 54 48 52 64 89 97 97 97 97 98 97 98 98 97
25 35 46 53 58 62 68 74 80 79 76 71 73 74 79 80 87 87 90 93 90 85 79 76 75 71 66 59 54 49 47 56 76 93 97 97 95 96 97 97 96 98 96
26 36 47 57 61 65 68 76 84 90 86 76 71 73 77 77 80 85 90 92 90 82 77 73 70 66 60 55 51 46 45 65 85 95 96 96 97 97 97 97 95 96 94

GFSGL_prec_cthk_108.txt.gz
RH
86 82 84 83 76 68 66 69 79 86 85 78 72 76 70 73 80 84 87 90 93 92 91 90 92 93 99 99 98 98 97 98 98 97 95 94 96 94 93 91 95 95 94
80 71 73 80 73 65 54 57 64 67 83 81 80 79 79 83 78 75 83 84 87 89 87 92 98 99 97 98 98 98 98 98 98 98 98 98 98 96 92 92 93 96 94
78 76 86 88 91 90 83 76 71 67 72 77 76 71 69 67 66 66 64 66 68 71 75 81 86 91 96 98 98 98 99 98 97 96 96 97 96 95 94 94 95 97 95
77 78 76 74 72 66 62 59 58 56 56 56 55 53 50 48 51 51 51 51 50 50 53 57 60 64 72 78 86 96 98 98 98 97 95 98 95 96 98 98 97 97 98
61 59 53 46 38 35 32 28 22 19 22 21 19 15 13 16 16 11 16 19 19 21 19 17 20 24 28 34 43 53 61 74 84 91 91 90 92 93 96 97 97 96 96
24 22 22 18 17 14 7 7 6 9 8 7 8 8 8 8 8 8 8 7 7 6 6 6 8 10 13 17 20 23 31 41 48 62 75 83 82 88 88 91 94 91 95
19 16 13 9 7 7 8 9 10 10 10 10 10 10 10 10 9 9 9 9 9 8 8 8 7 7 7 8 11 15 19 23 34 43 47 60 70 77 84 87 91 93 91
17 14 10 9 10 11 12 12 12 13 13 13 13 14 15 15 16 16 16 15 14 12 12 11 10 9 9 15 16 13 14 17 20 27 39 46 54 61 65 79 87 90 97
16 11 12 13 13 13 13 14 14 14 14 15 16 17 18 19 20 21 23 28 29 30 29 24 19 17 17 12 16 19 19 18 18 22 23 32 45 52 60 62 68 86 86
14 15 16 15 15 16 17 19 21 23 23 24 24 24 23 22 22 23 25 30 29 29 30 32 29 27 24 24 23 22 21 19 17 16 19 21 28 41 53 61 66 68 84
20 19 19 21 27 34 34 33 32 30 28 27 26 28 29 31 29 28 28 28 31 30 29 28 27 27 26 27 26 25 24 22 21 18 17 18 23 34 41 54 65 67 71
24 25 27 30 37 35 33 32 32 29 28 28 27 27 28 29 30 32 30 30 33 36 39 38 35 31 30 28 26 25 24 23 23 20 18 19 20 26 37 45 60 68 71
23 25 29 33 33 33 31 28 26 28 31 34 37 37 36 35 35 36 38 40 39 40 42 42 41 41 39 35 32 30 27 27 27 29 25 31 29 25 38 45 53 64 75
31 35 34 33 32 30 27 29 31 35 41 42 42 43 40 38 37 37 41 44 46 52 51 48 46 47 45 43 38 33 34 36 36 36 35 33 40 35 42 52 56 57 70
30 31 33 33 29 28 32 36 39 43 45 44 42 42 42 42 40 42 46 47 50 50 52 50 51 55 52 47 45 43 42 41 40 39 40 45 44 46 51 59 61 66 81
33 38 40 37 37 38 38 41 46 44 41 39 43 45 46 47 48 50 53 55 58 60 60 58 61 63 61 58 57 53 52 50 46 42 46 52 60 56 65 77 85 71 67
47 45 40 37 35 38 47 49 46 36 39 41 43 42 43 43 48 50 54 59 61 64 66 67 67 65 65 63 67 65 59 59 54 52 57 59 65 64 72 92 98 78 76
46 41 40 38 40 50 53 49 45 43 42 41 45 48 48 49 51 56 60 62 63 70 73 71 72 72 71 69 71 72 65 65 61 56 64 65 78 74 79 96 98 98 86
45 47 45 47 47 48 49 42 44 46 50 52 52 53 55 59 60 61 65 66 69 74 78 80 81 78 73 72 74 77 74 71 65 59 65 70 82 81 89 89 91 95 96
48 51 48 44 44 48 44 46 48 53 56 58 58 60 62 65 63 62 67 70 76 80 81 81 81 79 76 73 79 78 74 69 62 56 57 72 87 88 97 91 97 97 97
51 42 38 40 40 43 46 48 56 62 65 67 64 64 67 67 63 68 75 80 83 84 83 81 80 79 76 74 82 74 71 65 58 53 55 75 88 90 97 97 92 93 97
43 41 42 35 37 46 49 56 63 67 72 73 67 64 65 65 69 73 79 83 83 82 81 81 80 76 73 78 77 72 69 61 55 51 57 76 90 98 98 98 97 97 97
42 44 36 27 38 50 55 62 67 72 79 82 72 65 64 66 69 77 84 85 88 87 85 83 76 72 76 78 71 69 62 56 53 52 62 93 97 98 97 98 91 95 93
44 38 25 27 40 55 59 64 69 78 86 90 78 67 64 66 69 73 82 87 89 86 81 76 74 75 76 72 68 62 55 53 54 55 78 96 97 96 95 90 93 96 97
40 27 23 29 44 56 61 66 73 81 91 93 84 76 69 68 70 75 82 85 86 81 75 74 73 73 70 65 61 55 50 48 59 66 88 98 97 96 92 90 94 97 97
34 24 23 31 48 57 62 66 75 82 92 95 91 80 75 73 76 80 81 80 77 74 71 70 69 67 63 60 53 49 48 51 68 88 96 97 97 93 96 97 97 97 97

GFSGL_prec_cthk_111.txt.gz
RH
84 85 83 84 79 78 75 73 72 79 79 83 81 74 63 67 71 72 70 70 76 80 84 87 89 89 90 93 94 93 94 99 98 99 96 94 97 96 96 94 91 90 88
85 81 83 83 82 82 75 66 67 60 58 63 72 80 79 82 71 79 81 89 74 75 87 86 87 92 94 94 92 96 97 99 98 98 96 97 98 99 98 97 96 96 92
65 66 65 75 78 78 76 77 79 69 55 55 57 57 64 69 67 63 69 68 68 67 66 68 70 71 76 84 87 93 96 98 99 98 98 98 98 99 98 97 97 96 95
67 66 64 61 59 59 60 58 54 50 48 49 48 45 46 49 49 46 42 40 42 44 47 49 50 51 51 59 63 65 79 85 91 95 98 98 98 98 98 97 96 96 93
30 33 36 39 36 29 21 21 19 19 19 18 18 23 21 21 23 21 21 25 20 18 17 26 26 19 21 25 29 32 36 47 51 63 82 84 86 91 91 90 85 87 91
26 21 17 14 10 7 8 9 9 8 9 8 10 13 10 12 14 13 11 8 8 8 8 7 7 7 8 7 10 13 13 15 20 31 38 44 56 68 77 84 83 81 82
25 20 16 10 9 10 11 11 12 11 11 11 11 12 12 12 12 12 13 13 13 13 13 12 11 12 11 13 13 13 11 14 16 21 25 30 35 42 52 64 78 79 80
26 22 16 12 13 13 12 12 12 13 13 14 15 15 16 16 17 18 19 19 22 23 25 24 25 24 22 25 21 18 15 14 15 13 17 22 25 29 39 49 54 66 73
30 23 17 17 16 14 14 15 16 18 22 26 28 30 32 32 33 32 33 35 35 34 36 35 35 31 28 24 23 23 22 21 18 15 15 18 20 22 25 33 48 55 60
31 22 24 23 21 21 22 24 28 36 40 41 39 38 36 35 36 37 35 34 33 33 34 35 39 40 41 37 34 34 32 29 23 19 18 14 13 12 13 23 36 47 53
27 28 26 25 28 28 31 35 36 40 41 40 38 36 33 32 33 34 34 33 33 31 31 31 34 37 36 35 39 39 35 34 32 29 23 16 16 18 14 17 21 38 49
22 22 22 26 28 30 34 38 42 42 39 37 35 32 33 34 33 33 33 33 34 35 34 34 36 36 35 38 39 38 36 35 31 29 29 30 27 23 22 22 19 23 43
20 20 21 25 28 30 34 35 38 39 40 39 37 36 35 33 33 36 36 35 36 39 39 40 41 40 37 34 36 38 36 33 33 32 29 25 27 32 29 22 27 24 31
20 22 25 29 33 34 34 35 37 40 41 42 44 42 41 39 39 39 40 41 43 46 50 52 51 52 50 50 51 45 41 41 44 43 39 38 33 27 27 30 25 29 32
25 30 36 38 37 41 43 42 43 45 49 50 49 49 47 44 42 43 46 47 47 47 53 53 52 53 52 53 53 49 47 45 46 45 42 38 34 32 34 36 39 36 41
40 46 50 48 48 45 43 45 53 56 54 52 51 50 49 48 47 47 47 48 50 52 54 54 53 56 58 59 55 52 53 54 55 53 48 46 45 44 45 40 54 48 49
48 49 50 50 46 52 55 53 50 51 49 49 50 48 50 51 50 49 53 55 55 58 59 60 62 63 65 66 65 62 59 59 61 61 56 54 52 53 52 50 50 58 64
48 48 56 53 55 52 47 47 53 49 43 45 51 54 54 53 51 52 54 54 54 59 62 63 64 68 73 73 73 71 69 66 69 68 62 61 57 59 69 85 76 68 76
50 52 46 51 46 47 48 49 51 46 47 51 52 57 60 55 49 50 54 57 59 62 67 70 74 77 79 78 76 74 70 68 73 68 67 65 60 67 70 93 85 72 93
47 43 48 43 46 50 44 45 45 48 54 58 61 68 68 58 52 49 53 57 66 71 73 74 73 75 76 76 74 73 68 74 76 74 72 65 58 73 82 89 84 81 97
46 46 43 44 44 40 34 42 48 52 58 62 71 80 76 63 54 53 57 63 71 77 79 80 78 77 75 75 73 66 75 77 74 71 65 59 57 74 92 91 90 93 97
47 43 42 44 38 27 31 46 53 57 62 70 80 83 75 65 58 59 63 69 79 84 85 83 80 78 74 68 69 75 73 70 69 63 59 56 62 88 98 97 98 98 95
45 41 41 40 27 24 36 51 57 61 69 77 87 86 79 70 64 67 72 77 81 84 83 78 72 69 70 74 74 70 68 65 61 57 54 57 70 89 94 95 97 96 90
44 41 40 31 23 24 40 55 59 62 72 84 90 90 76 71 69 70 75 76 76 76 73 72 72 73 72 69 66 63 62 58 55 55 60 67 84 98 98 97 98 98 95
43 42 38 27 22 25 42 56 59 63 73 87 90 86 71 69 69 70 71 71 71 72 72 71 70 67 64 62 60 57 55 55 55 61 72 82 92 95 93 88 91 89 91
43 41 37 26 23 28 46 56 55 62 73 88 90 85 70 66 66 66 67 68 67 67 66 66 64 63 60 55 53 52 56 64 65 75 90 97 97 96 93 87 89 92 91

GFSGL_prec_cthk_114.txt.gz
RH
81 82 81 82 80 78 74 69 71 68 68 69 71 72 76 70 75 72 72 75 78 76 70 75 75 78 82 89 89 91 91 93 90 90 86 86 92 97 98 98 95 97 96
73 71 72 71 78 81 79 76 69 66 64 64 63 56 56 67 73 74 72 70 75 72 80 86 81 78 76 83 84 82 92 95 93 89 91 92 94 97 97 98 98 99 97
68 69 68 61 60 64 66 67 66 66 72 71 70 58 48 45 50 55 61 64 64 55 57 64 74 78 77 72 70 79 75 84 87 87 93 97 97 98 99 98 99 99 98
30 31 37 43 47 45 38 32 25 27 34 35 30 27 31 35 36 38 43 46 48 45 39 40 39 44 44 49 50 48 55 54 61 67 77 88 92 95 98 99 99 98 97
32 28 23 19 16 13 11 10 14 21 19 13 16 22 21 28 27 26 27 24 20 20 20 22 29 27 22 22 28 40 36 27 35 38 46 50 66 82 92 96 96 95 96
33 29 24 19 13 9 10 10 9 8 8 8 9 9 9 10 10 11 11 14 18 19 16 20 14 11 13 14 14 13 15 17 18 21 26 29 31 49 54 65 81 86 79
37 33 26 20 13 13 13 12 11 11 11 12 12 13 14 15 16 17 17 17 16 16 18 18 19 21 22 22 21 19 15 13 15 18 19 19 18 18 23 30 37 47 57
39 35 32 26 23 22 18 16 16 16 16 16 18 21 24 26 29 29 30 28 28 28 29 30 31 30 30 30 27 24 22 22 22 21 21 19 17 14 14 19 22 27 37
40 37 33 28 28 26 24 23 23 24 25 26 29 31 34 36 41 45 44 40 38 37 37 37 37 38 38 37 36 32 33 29 26 24 23 23 21 19 18 17 13 17 23
33 28 20 20 20 21 23 28 33 35 38 42 42 43 45 47 48 48 48 48 46 44 40 36 35 37 42 42 41 40 39 33 32 29 26 25 24 23 23 22 23 24 24
34 25 21 19 19 19 20 22 23 28 33 38 43 47 47 47 46 45 45 44 42 40 38 34 32 34 38 39 40 40 40 43 42 35 31 29 25 26 27 30 32 30 29
29 21 20 20 21 22 22 24 29 33 34 35 37 39 40 39 38 36 38 40 44 46 43 40 40 39 40 41 40 39 39 45 44 38 36 34 32 31 29 26 26 31 30
23 19 18 21 24 30 37 39 38 39 42 44 46 47 45 44 43 43 44 45 43 42 41 44 46 45 45 46 45 45 46 46 44 39 39 37 36 34 31 28 25 23 23
18 18 21 32 41 43 42 43 44 46 51 52 53 52 49 47 45 44 46 46 42 42 43 44 44 47 49 48 44 42 45 47 45 42 41 39 38 37 34 32 34 34 32
19 31 38 42 46 46 45 48 51 53 53 55 55 56 54 50 50 49 48 46 44 44 44 43 43 42 42 43 45 50 49 45 43 43 43 42 39 37 33 34 38 37 37
33 34 38 41 44 48 44 47 47 45 50 56 56 52 52 51 51 52 56 52 48 48 44 44 42 46 48 53 55 57 59 56 52 49 47 47 47 45 39 36 39 41 40
31 33 36 40 40 38 42 42 43 44 49 49 47 48 52 54 58 62 61 54 50 48 47 48 53 55 55 58 60 64 64 62 61 59 56 57 56 51 50 47 47 50 53
32 36 37 35 39 42 37 40 41 36 37 40 45 52 57 60 67 70 62 51 47 47 50 55 60 64 67 68 68 68 66 65 64 62 59 61 62 59 58 57 56 72 80
32 35 36 39 39 37 40 39 29 27 40 44 49 55 61 70 74 72 62 53 51 52 57 62 68 70 70 70 69 68 68 68 67 64 64 68 68 67 63 56 65 88 89
36 35 36 39 36 37 39 29 23 32 44 49 54 61 69 75 75 66 54 53 56 60 65 71 75 75 74 73 72 72 70 66 65 73 74 76 75 69 63 62 87 91 94
35 35 38 39 37 38 35 25 25 39 50 54 59 68 77 77 62 56 53 57 61 65 68 71 72 71 70 69 68 68 72 74 73 72 73 70 63 61 64 75 90 92 91
36 38 41 40 37 36 32 24 29 45 53 54 62 76 81 69 59 54 57 59 61 65 69 70 71 72 73 73 73 72 70 69 69 68 65 59 58 68 80 94 98 98 98
40 40 42 40 39 34 29 22 31 50 54 55 66 80 80 64 56 55 57 60 63 66 69 69 69 68 68 67 66 65 65 64 62 58 56 56 62 72 82 94 92 95 97
42 41 42 41 39 35 27 22 35 52 53 57 72 82 81 70 58 57 58 59 61 63 64 65 65 65 64 63 62 62 59 57 62 62 61 64 75 84 95 97 97 98 98
45 40 43 43 40 35 26 23 41 52 52 59 76 83 83 81 68 60 61 62 63 64 64 65 64 62 59 56 58 61 64 65 66 72 73 77 79 88 88 88 95 98 97
43 40 45 44 41 35 25 25 46 53 52 60 79 84 85 83 82 72 67 68 70 69 67 63 59 58 58 58 61 66 67 68 71 77 87 97 98 97 94 85 87 97 98

GFSGL_prec_cthk_117.txt.gz
RH
79 77 72 69 70 76 75 71 71 68 64 63 62 65 64 66 66 64 67 67 66 66 67 69 72 73 74 76 77 82 84 81 77 78 85 88 84 83 86 93 87 91 93
46 50 58 64 60 58 62 64 66 65 66 68 66 59 55 55 58 56 55 61 69 71 65 61 63 75 80 79 89 81 75 74 75 84 78 78 85 91 89 92 94 97 99
30 28 26 25 30 38 43 40 37 36 31 33 41 47 49 47 53 53 47 41 46 48 54 57 62 55 50 53 63 72 83 88 74 67 74 82 83 84 91 95 93 98 95
31 29 26 23 19 14 12 13 13 15 13 17 23 21 23 27 26 24 23 25 28 28 29 33 39 51 47 43 39 40 45 50 57 62 56 63 61 65 74 86 94 95 96
35 34 32 27 22 16 12 11 10 9 8 8 8 8 8 8 9 11 11 14 20 26 30 36 32 27 26 27 30 39 39 30 26 28 47 39 35 47 56 60 69 91 95
40 40 39 35 30 23 21 19 16 15 14 13 12 12 13 13 13 14 15 14 15 15 16 17 21 27 32 36 39 29 20 22 25 27 22 23 25 19 28 39 40 51 73
41 39 38 32 26 24 27 28 28 27 24 22 21 20 20 19 20 23 25 27 29 30 30 30 31 32 32 32 30 28 27 27 24 22 21 18 17 14 14 13 21 28 30
42 41 38 32 24 21 19 20 21 22 25 30 33 34 32 32 33 34 35 38 40 40 40 41 42 40 37 37 36 34 31 29 30 30 28 26 25 21 20 19 16 13 15
40 39 34 27 21 18 17 18 18 20 21 22 25 30 34 39 44 47 56 55 53 51 50 48 45 40 39 42 47 42 37 34 36 35 35 32 28 26 25 26 22 23 23
41 39 33 25 20 18 18 17 18 21 23 27 32 36 38 38 38 39 42 43 43 44 43 45 44 44 44 47 51 50 47 43 39 39 37 32 29 28 28 30 32 34 34
42 38 30 23 18 18 18 20 26 32 34 36 38 40 41 43 45 45 44 47 48 49 48 45 42 41 44 46 47 52 51 50 49 45 40 33 27 26 24 25 27 29 29
43 36 26 19 18 21 27 31 34 37 39 40 41 45 50 52 48 48 47 50 49 49 49 47 44 41 47 47 48 51 52 51 53 52 48 40 34 30 30 29 27 24 24
40 28 19 19 25 27 29 30 34 38 36 38 44 49 50 49 47 49 51 53 55 53 52 50 48 47 48 48 45 45 49 49 48 50 47 45 40 36 34 32 30 26 26
31 20 27 29 27 28 30 32 35 34 37 41 41 44 47 49 51 50 52 52 52 50 48 45 46 46 42 38 36 35 38 44 50 51 50 45 43 40 38 38 37 33 32
25 31 30 27 27 29 32 33 33 37 38 40 46 49 47 43 44 47 49 50 53 54 52 47 44 42 38 37 39 40 42 46 51 53 50 46 44 42 40 40 39 38 38
33 31 30 27 28 30 32 34 36 34 35 34 32 35 38 41 45 50 54 60 63 64 53 44 41 42 45 48 50 52 55 56 55 54 53 53 49 46 44 41 42 41 37
34 32 32 28 28 30 33 35 32 34 30 21 28 38 44 47 53 59 63 62 55 44 39 39 42 47 49 53 56 58 58 58 55 55 56 55 53 52 50 46 48 46 43
35 35 34 30 28 31 35 33 34 31 23 19 34 42 48 56 62 68 64 50 42 40 43 45 50 55 58 60 61 61 59 58 58 57 57 56 56 53 52 54 51 50 50
37 37 36 31 28 32 35 35 34 28 22 24 39 45 51 60 70 70 55 46 43 44 48 52 56 58 60 61 60 60 61 61 60 60 59 57 58 61 61 62 60 58 54
40 40 39 34 31 34 35 35 33 28 21 30 43 46 54 69 75 63 50 46 48 50 53 56 59 62 64 65 65 65 64 64 64 65 66 67 69 72 70 66 63 60 67
43 42 41 40 34 35 36 36 34 27 22 35 47 48 61 73 75 63 51 50 52 53 56 58 60 61 62 62 62 62 62 62 63 64 65 67 66 63 60 59 63 71 81
45 45 44 43 38 35 35 37 35 26 24 40 47 51 66 74 75 68 55 55 57 59 60 60 60 62 64 62 61 60 60 60 61 60 59 57 57 59 68 75 80 91 98
49 49 47 46 39 36 36 38 35 25 27 44 46 54 72 77 76 77 70 60 60 61 63 63 62 62 62 60 62 62 61 60 58 57 55 55 60 70 74 76 87 94 97
53 53 51 46 39 37 37 38 35 26 32 46 46 58 74 78 79 81 82 77 73 73 71 69 65 61 58 60 62 67 65 67 67 64 67 69 70 74 81 92 97 97 98
55 56 54 47 41 38 39 39 34 26 37 47 47 61 76 81 83 85 86 84 80 76 71 70 67 66 67 68 70 73 75 73 73 73 75 80 88 90 95 96 96 98 98
58 59 57 50 43 40 39 39 34 28 40 48 47 63 78 82 84 87 90 85 75 70 69 69 69 71 72 72 73 78 88 92 92 90 92 98 96 92 90 86 95 96 93

GFSGL_prec_cthk_120.txt.gz
RH
26 26 25 24 29 41 48 47 46 44 52 58 63 66 62 61 64 69 75 75 67 67 68 66 64 61 68 69 70 70 71 70 71 69 71 78 75 84 85 91 92 85 86
28 27 26 24 22 19 15 15 28 33 30 27 25 30 37 50 58 57 55 53 51 46 47 51 56 59 59 54 49 56 63 74 78 78 82 80 76 74 83 84 84 93 89
33 31 30 29 26 22 17 13 11 10 10 14 13 14 21 27 29 29 26 30 36 38 37 36 38 43 47 54 61 59 52 53 52 54 65 75 79 77 66 75 78 74 83
37 36 35 35 32 28 25 22 22 19 15 13 11 10 10 10 14 14 14 19 19 23 26 32 32 34 34 35 32 34 49 50 47 42 40 39 44 58 63 58 70 64 71
38 38 37 36 34 29 23 21 21 22 24 25 24 22 18 16 14 14 13 13 13 12 13 14 15 16 20 28 33 44 39 39 39 35 34 44 40 32 36 57 49 52 56
40 39 38 36 34 28 21 18 17 16 17 18 19 21 24 27 27 25 22 21 21 22 23 25 26 29 31 31 31 29 29 34 37 39 36 30 26 39 38 24 39 47 38
43 41 39 37 34 27 21 18 17 17 16 16 16 17 19 21 23 28 38 42 42 39 36 37 39 41 43 42 41 39 37 36 36 36 31 36 36 26 25 32 25 24 25
44 43 41 40 37 29 23 20 19 18 18 19 19 20 23 27 30 33 39 40 41 43 47 47 46 46 45 46 49 51 52 49 43 41 39 36 36 34 34 31 28 28 26
46 45 44 43 38 28 22 20 19 18 19 21 24 27 31 36 39 41 43 40 39 37 37 38 39 40 42 46 48 47 46 44 46 49 46 43 42 36 31 32 29 30 28
48 49 48 44 36 26 20 18 19 22 25 26 28 30 33 37 38 40 43 44 45 44 45 47 47 46 45 45 46 47 44 41 46 43 41 42 44 42 37 35 33 33 33
51 51 50 44 31 21 19 23 26 26 24 25 29 31 34 38 42 43 43 43 44 46 48 48 49 49 50 48 50 50 49 51 52 52 48 46 43 41 38 37 37 37 35
50 50 49 38 24 24 29 29 26 25 25 29 29 31 36 37 41 43 44 48 52 52 52 52 51 51 52 52 53 52 51 51 50 48 47 44 43 40 40 38 37 37 39
50 51 42 28 31 33 31 28 26 26 27 28 31 34 34 38 39 37 38 42 46 49 48 46 46 44 46 47 45 45 48 46 43 44 46 47 46 43 40 38 36 36 36
53 46 32 34 35 33 30 29 28 26 28 31 31 32 33 29 28 31 34 39 44 48 50 53 51 47 39 36 35 35 38 39 43 46 49 52 50 48 44 42 38 35 35
50 36 34 36 36 34 32 31 28 28 29 28 31 33 26 24 33 37 42 48 53 57 58 45 37 34 31 34 36 40 45 49 51 52 53 53 51 48 45 43 42 41 39
41 35 38 38 38 37 34 32 31 30 28 28 30 29 26 31 37 42 48 54 60 57 43 36 34 35 36 39 42 45 49 55 58 59 57 56 54 51 48 46 46 44 40
37 39 40 39 40 39 36 34 33 31 27 28 28 29 28 37 41 46 53 62 61 47 37 35 38 40 42 45 48 51 52 54 56 57 58 56 55 54 54 53 51 48 44
41 44 43 42 42 42 39 37 36 31 28 28 28 29 31 37 43 53 62 65 53 43 40 40 43 46 49 50 52 54 56 57 58 58 58 58 59 58 56 54 52 51 53
45 47 47 46 44 44 43 40 39 33 30 30 28 30 35 40 46 58 64 62 50 43 44 46 48 50 53 55 56 57 56 56 58 60 62 63 64 66 66 66 65 65 63
48 50 51 49 48 48 46 44 40 34 32 30 29 32 38 43 53 64 67 64 60 51 48 49 51 54 56 57 58 58 57 58 58 59 61 63 65 67 68 69 69 67 63
50 52 52 51 52 52 49 45 41 35 34 32 30 35 41 47 57 68 69 69 70 66 56 56 55 56 57 57 56 58 60 60 61 60 59 59 61 61 60 58 58 60 62
52 54 53 53 55 56 53 46 42 37 35 32 32 37 41 48 62 70 73 75 78 70 68 65 65 65 61 60 62 65 63 65 65 60 57 56 56 57 61 67 75 79 82
55 54 54 55 57 59 54 47 43 39 37 33 34 40 42 53 66 72 76 80 75 67 67 67 66 65 67 70 74 76 77 74 71 71 69 65 59 65 73 77 79 82 89
59 58 56 57 60 61 56 48 45 40 37 34 37 42 45 57 71 75 78 80 70 68 68 68 66 68 72 76 78 80 82 92 91 80 76 75 74 75 84 89 92 96 96
63 61 58 60 62 62 59 52 47 41 38 36 38 43 46 61 74 78 80 80 68 66 69 71 74 78 80 80 87 93 97 97 97 97 95 89 90 94 95 94 93 91 92
65 63 61 64 64 63 61 55 48 43 38 38 39 45 47 66 76 80 84 82 69 66 68 70 70 75 86 93 92 95 97 98 98 98 98 97 92 88 85 86 90 90 92